[[{"header":{"parameterUnit":"m.s-1","parameterCategory":1,"la1":31.0,"la2":29.5877,"lo1":-88.7671,"lo2":-86.6584,"dy":0.0162,"dx":0.0185,"nx":115,"ny":88,"refTime":"2023-06-12T12:00:00:Z","depth":0,"parameterNumber":2,"parameterNumberName":"U-component_of_WINDS"},"data":[0.0,0.0,0.0,0.0,0.0,0.0,0.0,0.0,0.0,0.0,0.0,0.0,0.0,0.0,0.0,0.0,0.0,0.0,0.0,0.0,0.0,0.0,0.0,0.0,0.0,0.0,0.0,0.0,0.0,0.0,0.0,0.0,0.0,0.0,0.0,0.0,0.0,0.0,0.0,0.0,0.0,0.0,0.0,0.0,0.0,0.0,0.0,0.0,0.0,0.0,0.0,0.0,0.0,0.0,0.0,0.0,0.0,0.0,0.0,0.0,0.0,0.0,0.0,0.0,0.0,0.0,0.0,0.0,0.0,0.0,0.0,0.0,0.0,0.0,0.0,0.0,0.0,0.0,0.0,0.0,0.0,0.0,0.0,0.0,0.0,0.0,0.0,0.0,0.0,0.0,0.0,0.0,0.0,0.0,0.0,0.0,0.0,0.0,0.0,0.0,0.0,0.0,0.0,0.0,0.0,0.0,0.0,0.0,0.0,0.0,0.0,0.0,0.0,0.0,0.0,0.0,0.0,0.0,0.0,0.0,0.0,0.0,0.0,0.0,0.0,0.0,0.0,0.0,0.0,0.0,0.0,0.0,0.0,0.0,0.0,0.0,0.0,0.0,0.0,0.0,0.0,0.0,0.0,0.0,0.0,0.0,0.0,0.0,0.0,0.0,0.0,0.0,0.0,0.0,0.0,0.0,0.0,0.0,0.0,0.0,0.0,0.0,0.0,0.0,0.0,0.0,0.0,0.0,0.0,0.0,0.0,0.0,0.0,0.0,0.0,0.0,0.0,0.0,0.0,0.0,0.0,0.0,0.0,0.0,0.0,0.0,0.0,0.0,0.0,0.0,0.0,0.0,0.0,0.0,0.0,0.0,0.0,0.0,0.0,0.0,0.0,0.0,0.0,0.0,0.0,0.0,0.0,0.0,0.0,0.0,0.0,0.0,0.0,0.0,0.0,0.0,0.0,0.0,0.0,0.0,0.0,0.0,0.0,0.0,0.0,0.0,0.0,0.0,0.0,0.0,0.0,0.0,0.0,0.0,0.0,0.0,0.0,0.0,0.0,0.0,0.0,0.0,0.0,0.0,0.0,0.0,0.0,0.0,0.0,0.0,0.0,0.0,0.0,0.0,0.0,0.0,0.0,0.0,0.0,0.0,0.0,0.0,0.0,0.0,0.0,0.0,0.0,0.0,0.0,0.0,0.0,0.0,0.0,0.0,0.0,0.0,0.0,0.0,0.0,0.0,0.0,0.0,0.0,0.0,0.0,0.0,0.0,0.0,0.0,0.0,0.0,0.0,0.0,0.0,0.0,0.0,0.0,0.0,0.0,0.0,0.0,0.0,0.0,0.0,0.0,0.0,0.0,0.0,0.0,0.0,0.0,0.0,0.0,0.0,0.0,0.0,0.0,0.0,0.0,0.0,0.0,0.0,0.0,0.0,0.0,0.0,0.0,0.0,0.0,0.0,0.0,0.0,0.0,0.0,0.0,0.0,0.0,0.0,0.0,0.0,0.0,0.0,0.0,0.0,0.0,0.0,0.0,0.0,0.0,0.0,0.0,0.0,0.0,0.0,0.0,0.0,0.0,0.0,0.0,0.0,0.0,0.0,0.0,0.0,0.0,0.0,0.0,0.0,0.0,0.0,0.0,0.0,0.0,0.0,0.0,0.0,0.0,0.0,0.0,0.0,0.0,0.0,0.0,0.0,0.0,0.0,0.0,0.0,0.0,0.0,0.0,0.0,0.0,0.0,0.0,0.0,0.0,0.0,0.0,0.0,0.0,0.0,0.0,0.0,0.0,0.0,0.0,0.0,0.0,0.0,0.0,0.0,0.0,0.0,0.0,0.0,0.0,0.0,0.0,0.0,0.0,0.0,0.0,0.0,0.0,0.0,0.0,0.0,0.0,0.0,0.0,0.0,0.0,0.0,0.0,0.0,0.0,0.0,0.0,0.0,0.0,0.0,0.0,0.0,0.0,0.0,0.0,0.0,0.0,0.0,0.0,0.0,0.0,0.0,0.0,0.0,0.0,0.0,0.0,0.0,0.0,0.0,0.0,0.0,0.0,0.0,0.0,0.0,0.0,0.0,0.0,0.0,0.0,0.0,0.0,0.0,0.0,0.0,0.0,0.0,0.0,0.0,0.0,0.0,0.0,0.0,0.0,0.0,0.0,0.0,0.0,0.0,0.0,0.0,0.0,0.0,0.0,0.0,0.0,0.0,0.0,0.0,0.0,0.0,0.0,0.0,0.0,0.0,0.0,0.0,0.0,0.0,0.0,0.0,0.0,0.0,0.0,0.0,0.0,0.0,0.0,0.0,0.0,0.0,0.0,0.0,0.0,0.0,0.0,0.0,0.0,0.0,0.0,0.0,0.0,0.0,0.0,0.0,0.0,0.0,0.0,0.0,0.0,0.0,0.0,0.0,0.0,0.0,0.0,0.0,0.0,0.0,0.0,0.0,0.0,0.0,0.0,0.0,0.0,0.0,0.0,0.0,0.0,0.0,0.0,0.0,0.0,0.0,0.0,0.0,0.0,0.0,0.0,0.0,0.0,0.0,0.0,0.0,0.0,0.0,0.0,0.0,0.0,0.0,0.0,0.0,0.0,0.0,0.0,0.0,0.0,0.0,0.0,0.0,0.0,0.0,0.0,0.0,0.0,0.0,0.0,0.0,0.0,0.0,0.0,0.0,0.0,0.0,0.0,0.0,0.0,0.0,0.0,0.0,0.0,0.0,0.0,0.0,0.0,0.0,0.0,0.0,0.0,0.0,0.0,0.0,0.0,0.0,0.0,0.0,0.0,0.0,0.0,0.0,0.0,0.0,0.0,0.0,0.0,0.0,0.0,0.0,0.0,0.0,0.0,0.0,0.0,0.0,0.0,0.0,0.0,0.0,0.0,0.0,0.0,0.0,0.0,0.0,0.0,0.0,0.0,0.0,0.0,0.0,0.0,0.0,0.0,0.0,0.0,0.0,0.0,0.0,0.0,0.0,0.0,0.0,0.0,0.0,0.0,0.0,0.0,0.0,0.0,0.0,0.0,0.0,0.0,0.0,0.0,0.0,0.0,0.0,0.0,0.0,0.0,0.0,0.0,0.0,0.0,0.0,0.0,0.0,0.0,0.0,0.0,0.0,0.0,0.0,0.0,0.0,0.0,0.0,0.0,0.0,0.0,0.0,0.0,0.0,0.0,0.0,0.0,0.0,0.0,0.0,0.0,0.0,0.0,0.0,0.0,0.0,0.0,0.0,0.0,0.0,0.0,0.0,0.0,0.0,0.0,0.0,0.0,0.0,0.0,0.0,0.0,0.0,0.0,0.0,0.0,0.0,0.0,0.0,0.0,0.0,0.0,0.0,0.0,0.0,0.0,0.0,0.0,0.0,0.0,0.0,0.0,0.0,0.0,0.0,0.0,0.0,0.0,0.0,0.0,0.0,0.0,0.0,0.0,0.0,0.0,0.0,0.0,0.0,0.0,0.0,0.0,0.0,0.0,0.0,0.0,0.0,0.0,0.0,0.0,0.0,0.0,0.0,0.0,0.0,0.0,0.0,0.0,0.0,0.0,0.0,0.0,0.0,0.0,0.0,0.0,0.0,0.0,0.0,0.0,0.0,0.0,0.0,0.0,0.0,0.0,0.0,0.0,0.0,0.0,0.0,0.0,0.0,0.0,0.0,0.0,0.0,0.0,0.0,0.0,0.0,0.0,0.0,0.0,0.0,0.0,0.0,0.0,0.0,0.0,0.0,0.0,0.0,0.0,0.0,0.0,0.0,0.0,0.0,0.0,0.0,0.0,0.0,0.0,0.0,0.0,0.0,0.0,0.0,0.0,0.0,0.0,0.0,0.0,0.0,0.0,0.0,0.0,0.0,0.0,0.0,0.0,0.0,0.0,0.0,0.0,0.0,0.0,0.0,0.0,0.0,0.0,0.0,0.0,0.0,0.0,0.0,0.0,0.0,0.0,0.0,0.0,0.0,0.0,0.0,0.0,0.0,0.0,0.0,0.0,0.0,0.0,0.0,0.0,0.0,0.0,0.0,0.0,0.0,0.0,0.0,0.0,0.0,0.0,0.0,0.0,0.0,0.0,0.0,0.0,0.0,0.0,0.0,0.0,0.0,0.0,0.0,0.0,0.0,0.0,0.0,0.0,0.0,0.0,0.0,0.0,0.0,0.0,0.0,0.0,0.0,0.0,0.0,0.0,0.0,0.0,0.0,0.0,0.0,0.0,0.0,0.0,0.0,0.0,0.0,0.0,0.0,0.0,0.0,0.0,0.0,0.0,0.0,-5.0011,0.0,0.0,0.0,0.0,0.0,0.0,0.0,0.0,0.0,0.0,0.0,0.0,0.0,0.0,0.0,0.0,0.0,0.0,0.0,0.0,0.0,0.0,0.0,0.0,0.0,0.0,0.0,0.0,0.0,0.0,0.0,0.0,0.0,0.0,0.0,0.0,0.0,0.0,0.0,0.0,0.0,0.0,0.0,0.0,0.0,0.0,0.0,0.0,0.0,0.0,0.0,0.0,0.0,0.0,0.0,0.0,0.0,0.0,0.0,0.0,0.0,0.0,0.0,0.0,0.0,0.0,0.0,0.0,0.0,0.0,0.0,0.0,0.0,0.0,0.0,0.0,0.0,0.0,0.0,0.0,0.0,0.0,0.0,0.0,0.0,0.0,0.0,0.0,0.0,0.0,0.0,0.0,0.0,0.0,0.0,0.0,0.0,0.0,0.0,0.0,0.0,0.0,0.0,0.0,0.0,0.0,0.0,0.0,0.0,0.0,-5.0424,-5.0011,-5.0011,-4.9947,-4.983,0.0,0.0,0.0,0.0,0.0,0.0,0.0,0.0,0.0,0.0,0.0,0.0,0.0,0.0,0.0,0.0,0.0,0.0,0.0,0.0,0.0,0.0,0.0,0.0,0.0,0.0,0.0,0.0,0.0,0.0,0.0,0.0,0.0,0.0,0.0,0.0,0.0,0.0,0.0,0.0,0.0,0.0,0.0,0.0,0.0,0.0,0.0,0.0,0.0,0.0,0.0,0.0,0.0,0.0,0.0,0.0,0.0,0.0,0.0,0.0,0.0,0.0,0.0,0.0,0.0,0.0,0.0,0.0,0.0,0.0,0.0,0.0,0.0,0.0,0.0,0.0,0.0,0.0,0.0,0.0,0.0,0.0,0.0,0.0,0.0,0.0,0.0,0.0,0.0,0.0,0.0,0.0,0.0,0.0,0.0,0.0,0.0,0.0,0.0,0.0,0.0,0.0,0.0,0.0,0.0,0.0,0.0,0.0,0.0,0.0,0.0,0.0,-4.9963,-4.9801,-4.9649,0.0,0.0,0.0,0.0,0.0,0.0,0.0,0.0,0.0,0.0,0.0,0.0,0.0,0.0,0.0,0.0,0.0,0.0,0.0,0.0,0.0,0.0,0.0,0.0,0.0,0.0,0.0,0.0,0.0,0.0,0.0,0.0,0.0,0.0,0.0,0.0,0.0,0.0,0.0,0.0,0.0,0.0,0.0,0.0,0.0,0.0,0.0,0.0,0.0,0.0,0.0,0.0,0.0,0.0,0.0,0.0,0.0,0.0,0.0,0.0,0.0,0.0,0.0,0.0,0.0,0.0,0.0,0.0,0.0,0.0,0.0,0.0,0.0,0.0,0.0,0.0,0.0,0.0,0.0,0.0,0.0,0.0,0.0,0.0,0.0,0.0,0.0,0.0,0.0,0.0,0.0,0.0,0.0,0.0,0.0,0.0,0.0,0.0,0.0,0.0,0.0,0.0,0.0,0.0,0.0,0.0,0.0,0.0,0.0,0.0,-5.0629,-5.056,-4.9876,0.0,-4.95,0.0,0.0,0.0,0.0,0.0,0.0,0.0,0.0,0.0,0.0,0.0,0.0,0.0,0.0,0.0,0.0,0.0,0.0,0.0,0.0,0.0,0.0,0.0,0.0,0.0,0.0,0.0,0.0,0.0,0.0,0.0,0.0,0.0,0.0,0.0,0.0,0.0,0.0,0.0,0.0,0.0,0.0,0.0,0.0,0.0,0.0,0.0,0.0,0.0,0.0,0.0,0.0,0.0,0.0,0.0,0.0,0.0,0.0,0.0,0.0,0.0,0.0,0.0,0.0,0.0,0.0,0.0,0.0,0.0,0.0,0.0,0.0,0.0,0.0,0.0,0.0,0.0,0.0,0.0,0.0,0.0,0.0,0.0,0.0,0.0,0.0,0.0,0.0,0.0,0.0,0.0,0.0,0.0,0.0,0.0,0.0,0.0,0.0,0.0,0.0,0.0,0.0,0.0,0.0,0.0,0.0,0.0,0.0,0.0,0.0,-5.1455,-5.0602,-4.979,-4.932,0.0,0.0,0.0,0.0,0.0,0.0,0.0,0.0,0.0,0.0,0.0,0.0,0.0,0.0,0.0,0.0,0.0,0.0,0.0,0.0,0.0,0.0,0.0,0.0,0.0,0.0,0.0,0.0,0.0,0.0,0.0,0.0,0.0,0.0,0.0,0.0,0.0,0.0,0.0,0.0,0.0,0.0,0.0,0.0,0.0,0.0,0.0,0.0,0.0,0.0,0.0,0.0,0.0,0.0,0.0,0.0,0.0,0.0,0.0,0.0,0.0,0.0,0.0,0.0,0.0,0.0,0.0,0.0,0.0,0.0,0.0,0.0,0.0,0.0,0.0,0.0,0.0,0.0,0.0,0.0,0.0,0.0,0.0,0.0,0.0,0.0,0.0,0.0,0.0,0.0,0.0,0.0,0.0,0.0,0.0,0.0,0.0,0.0,0.0,0.0,0.0,0.0,0.0,0.0,0.0,0.0,0.0,0.0,0.0,0.0,-5.273,-5.1977,-5.0512,-4.9811,-4.9342,-4.9138,0.0,0.0,0.0,0.0,0.0,0.0,0.0,0.0,0.0,0.0,0.0,0.0,0.0,0.0,0.0,0.0,0.0,0.0,0.0,0.0,0.0,0.0,0.0,0.0,0.0,0.0,0.0,0.0,0.0,0.0,0.0,0.0,0.0,0.0,0.0,0.0,0.0,0.0,0.0,0.0,0.0,0.0,0.0,0.0,0.0,0.0,0.0,0.0,0.0,0.0,0.0,0.0,0.0,0.0,0.0,0.0,0.0,0.0,0.0,0.0,0.0,0.0,0.0,0.0,0.0,0.0,0.0,0.0,0.0,0.0,0.0,0.0,0.0,0.0,0.0,0.0,0.0,0.0,0.0,0.0,0.0,0.0,0.0,0.0,0.0,0.0,0.0,0.0,0.0,0.0,0.0,0.0,0.0,0.0,0.0,0.0,0.0,0.0,0.0,0.0,0.0,0.0,0.0,0.0,0.0,0.0,0.0,0.0,-5.3416,-5.2739,-5.1622,-5.0234,-5.0098,-4.976,0.0,0.0,0.0,0.0,0.0,0.0,0.0,0.0,0.0,0.0,0.0,0.0,0.0,0.0,0.0,0.0,0.0,0.0,0.0,0.0,0.0,0.0,0.0,0.0,0.0,0.0,0.0,0.0,0.0,0.0,0.0,0.0,0.0,0.0,0.0,0.0,0.0,0.0,0.0,0.0,0.0,0.0,0.0,0.0,0.0,0.0,0.0,0.0,0.0,0.0,0.0,0.0,0.0,0.0,0.0,0.0,0.0,0.0,0.0,0.0,0.0,0.0,0.0,0.0,0.0,0.0,0.0,0.0,0.0,0.0,0.0,0.0,0.0,0.0,0.0,0.0,0.0,0.0,0.0,0.0,0.0,0.0,0.0,0.0,0.0,0.0,0.0,0.0,0.0,0.0,0.0,0.0,0.0,0.0,0.0,0.0,0.0,0.0,0.0,0.0,0.0,0.0,0.0,0.0,0.0,0.0,0.0,0.0,0.0,-5.3484,-5.2706,-5.2063,-5.1522,-5.1048,-5.0473,0.0,0.0,0.0,0.0,0.0,0.0,0.0,0.0,0.0,0.0,0.0,0.0,0.0,0.0,0.0,0.0,0.0,0.0,0.0,0.0,0.0,0.0,0.0,0.0,0.0,0.0,0.0,0.0,0.0,0.0,0.0,0.0,0.0,0.0,0.0,0.0,0.0,0.0,0.0,0.0,0.0,0.0,0.0,0.0,0.0,0.0,0.0,0.0,0.0,0.0,0.0,0.0,0.0,0.0,0.0,0.0,0.0,0.0,0.0,0.0,0.0,0.0,0.0,0.0,0.0,0.0,0.0,0.0,0.0,0.0,0.0,0.0,0.0,0.0,0.0,0.0,0.0,0.0,0.0,0.0,0.0,0.0,0.0,0.0,0.0,0.0,0.0,0.0,0.0,0.0,0.0,0.0,0.0,0.0,0.0,0.0,0.0,0.0,0.0,0.0,0.0,0.0,0.0,0.0,0.0,0.0,0.0,0.0,0.0,-5.3484,0.0,-5.257,-5.23,-5.1826,-5.1217,0.0,0.0,0.0,0.0,0.0,0.0,0.0,0.0,0.0,0.0,0.0,0.0,0.0,0.0,0.0,0.0,0.0,0.0,0.0,0.0,0.0,0.0,0.0,0.0,0.0,0.0,0.0,0.0,0.0,0.0,0.0,0.0,0.0,0.0,0.0,0.0,0.0,0.0,0.0,0.0,0.0,0.0,0.0,0.0,0.0,0.0,0.0,0.0,0.0,0.0,0.0,0.0,0.0,0.0,0.0,0.0,0.0,0.0,0.0,0.0,0.0,0.0,0.0,0.0,0.0,0.0,0.0,0.0,0.0,0.0,0.0,0.0,0.0,0.0,0.0,0.0,0.0,0.0,0.0,0.0,0.0,0.0,0.0,0.0,0.0,0.0,0.0,0.0,0.0,0.0,0.0,0.0,0.0,0.0,0.0,0.0,0.0,0.0,0.0,0.0,0.0,0.0,0.0,0.0,0.0,0.0,0.0,0.0,-5.3314,-5.3484,-5.345,-5.3078,-5.2367,-5.2301,-5.1929,0.0,0.0,0.0,0.0,0.0,0.0,0.0,0.0,0.0,0.0,0.0,0.0,0.0,0.0,0.0,0.0,0.0,0.0,0.0,0.0,0.0,0.0,0.0,0.0,0.0,0.0,0.0,0.0,0.0,0.0,0.0,0.0,0.0,0.0,0.0,0.0,0.0,0.0,0.0,0.0,0.0,0.0,0.0,0.0,0.0,0.0,0.0,0.0,0.0,0.0,0.0,0.0,0.0,0.0,0.0,0.0,0.0,0.0,0.0,0.0,0.0,0.0,0.0,0.0,0.0,0.0,0.0,0.0,0.0,0.0,0.0,0.0,0.0,0.0,0.0,0.0,0.0,0.0,0.0,0.0,0.0,0.0,0.0,0.0,0.0,0.0,0.0,0.0,0.0,0.0,0.0,0.0,0.0,0.0,0.0,0.0,0.0,0.0,0.0,0.0,0.0,0.0,0.0,0.0,0.0,0.0,0.0,0.0,0.0,-5.3109,-5.3109,-5.2975,-5.274,-5.2706,-5.237,0.0,0.0,0.0,0.0,0.0,0.0,0.0,0.0,0.0,0.0,0.0,0.0,0.0,0.0,0.0,0.0,0.0,0.0,0.0,0.0,0.0,0.0,0.0,0.0,0.0,0.0,0.0,0.0,0.0,0.0,0.0,0.0,0.0,0.0,0.0,0.0,0.0,0.0,0.0,0.0,0.0,0.0,0.0,0.0,0.0,0.0,0.0,0.0,0.0,0.0,0.0,0.0,0.0,0.0,0.0,0.0,0.0,0.0,0.0,0.0,0.0,0.0,0.0,0.0,0.0,0.0,0.0,0.0,0.0,0.0,0.0,0.0,0.0,0.0,0.0,0.0,0.0,0.0,0.0,0.0,0.0,0.0,0.0,0.0,0.0,0.0,0.0,0.0,0.0,0.0,0.0,0.0,0.0,0.0,0.0,0.0,0.0,0.0,0.0,0.0,0.0,0.0,0.0,0.0,0.0,0.0,0.0,0.0,0.0,-5.3528,-5.3634,-5.374,-5.3705,-5.3472,-5.3104,-5.2635,0.0,0.0,0.0,0.0,0.0,0.0,0.0,0.0,0.0,0.0,0.0,0.0,0.0,0.0,0.0,0.0,0.0,0.0,0.0,0.0,0.0,0.0,0.0,0.0,0.0,0.0,0.0,0.0,0.0,0.0,0.0,0.0,0.0,0.0,0.0,0.0,0.0,0.0,0.0,0.0,0.0,0.0,0.0,0.0,0.0,0.0,0.0,0.0,0.0,0.0,0.0,0.0,0.0,0.0,0.0,0.0,0.0,0.0,0.0,0.0,0.0,0.0,0.0,0.0,0.0,0.0,0.0,0.0,0.0,0.0,0.0,0.0,0.0,0.0,0.0,0.0,0.0,0.0,0.0,0.0,0.0,0.0,0.0,0.0,0.0,0.0,0.0,0.0,0.0,0.0,0.0,0.0,0.0,0.0,0.0,0.0,0.0,0.0,0.0,0.0,0.0,0.0,0.0,0.0,0.0,0.0,0.0,0.0,-5.4655,-5.5092,-5.5241,-5.5041,-5.4372,-5.404,0.0,0.0,0.0,0.0,0.0,0.0,0.0,0.0,0.0,0.0,0.0,0.0,0.0,0.0,0.0,0.0,0.0,0.0,0.0,0.0,0.0,0.0,0.0,0.0,0.0,0.0,0.0,0.0,0.0,0.0,0.0,0.0,0.0,0.0,0.0,0.0,0.0,0.0,0.0,0.0,0.0,0.0,0.0,0.0,0.0,0.0,0.0,0.0,0.0,0.0,0.0,0.0,0.0,0.0,0.0,0.0,0.0,0.0,0.0,0.0,0.0,0.0,0.0,0.0,0.0,0.0,0.0,0.0,0.0,0.0,0.0,0.0,0.0,0.0,0.0,0.0,0.0,0.0,0.0,0.0,0.0,0.0,0.0,0.0,0.0,0.0,0.0,0.0,0.0,0.0,0.0,0.0,0.0,0.0,0.0,0.0,0.0,0.0,0.0,0.0,0.0,0.0,0.0,0.0,0.0,0.0,0.0,0.0,0.0,-5.6912,-5.7553,-5.69,-5.4775,-5.4439,-5.4376,0.0,0.0,0.0,0.0,0.0,0.0,0.0,0.0,0.0,0.0,0.0,0.0,0.0,0.0,0.0,0.0,0.0,0.0,0.0,0.0,0.0,0.0,0.0,0.0,0.0,0.0,0.0,0.0,0.0,0.0,0.0,0.0,0.0,0.0,0.0,0.0,0.0,0.0,0.0,0.0,0.0,0.0,0.0,0.0,0.0,0.0,0.0,0.0,0.0,0.0,0.0,0.0,0.0,0.0,0.0,0.0,0.0,0.0,0.0,0.0,0.0,0.0,0.0,0.0,0.0,0.0,0.0,0.0,0.0,0.0,0.0,0.0,0.0,0.0,0.0,0.0,0.0,0.0,0.0,0.0,0.0,0.0,0.0,0.0,0.0,0.0,0.0,0.0,0.0,0.0,0.0,0.0,0.0,0.0,0.0,0.0,0.0,0.0,0.0,0.0,0.0,0.0,0.0,0.0,0.0,0.0,0.0,0.0,-5.7508,-5.8237,-5.8668,-5.8071,-5.6382,-5.5752,-5.5421,0.0,0.0,0.0,0.0,0.0,0.0,0.0,0.0,0.0,0.0,0.0,0.0,0.0,0.0,0.0,0.0,0.0,0.0,0.0,0.0,0.0,0.0,0.0,0.0,0.0,0.0,0.0,0.0,0.0,0.0,0.0,0.0,0.0,0.0,0.0,0.0,0.0,0.0,0.0,0.0,0.0,0.0,0.0,0.0,0.0,0.0,0.0,0.0,0.0,0.0,0.0,0.0,0.0,0.0,0.0,0.0,0.0,0.0,0.0,0.0,0.0,0.0,0.0,0.0,0.0,0.0,0.0,0.0,0.0,0.0,0.0,0.0,0.0,0.0,0.0,0.0,0.0,0.0,0.0,0.0,0.0,0.0,0.0,0.0,0.0,0.0,0.0,0.0,0.0,0.0,0.0,0.0,0.0,0.0,0.0,0.0,0.0,0.0,0.0,0.0,0.0,0.0,0.0,0.0,0.0,0.0,0.0,0.0,-5.8403,-5.9098,-5.9198,-5.9231,-5.9198,-5.774,-5.6879,0.0,0.0,0.0,0.0,0.0,0.0,0.0,0.0,0.0,0.0,0.0,0.0,0.0,0.0,0.0,0.0,0.0,0.0,0.0,0.0,0.0,0.0,0.0,0.0,0.0,0.0,0.0,0.0,0.0,0.0,0.0,0.0,0.0,0.0,0.0,0.0,0.0,0.0,0.0,0.0,0.0,0.0,0.0,0.0,0.0,0.0,0.0,0.0,0.0,0.0,0.0,0.0,0.0,0.0,0.0,0.0,0.0,0.0,0.0,0.0,0.0,0.0,0.0,0.0,0.0,0.0,0.0,0.0,0.0,0.0,0.0,0.0,0.0,0.0,0.0,0.0,0.0,0.0,0.0,0.0,0.0,0.0,0.0,0.0,0.0,0.0,0.0,0.0,0.0,0.0,0.0,0.0,0.0,0.0,0.0,0.0,0.0,0.0,0.0,0.0,0.0,0.0,0.0,0.0,0.0,0.0,0.0,0.0,-5.9893,-6.0622,-6.1185,-6.1525,-6.1492,-5.9496,-5.8171,0.0,0.0,0.0,0.0,0.0,0.0,0.0,0.0,0.0,0.0,0.0,0.0,0.0,0.0,0.0,0.0,0.0,0.0,0.0,0.0,0.0,0.0,0.0,0.0,0.0,0.0,0.0,0.0,0.0,0.0,0.0,0.0,0.0,0.0,0.0,0.0,0.0,0.0,0.0,0.0,0.0,0.0,0.0,0.0,0.0,0.0,0.0,0.0,-5.2729,0.0,0.0,0.0,0.0,0.0,0.0,0.0,0.0,0.0,0.0,0.0,0.0,0.0,0.0,0.0,0.0,0.0,0.0,0.0,0.0,0.0,0.0,0.0,0.0,0.0,0.0,0.0,0.0,0.0,0.0,0.0,0.0,0.0,0.0,0.0,0.0,0.0,0.0,0.0,0.0,0.0,0.0,0.0,0.0,0.0,0.0,0.0,0.0,0.0,0.0,0.0,0.0,0.0,0.0,0.0,0.0,0.0,0.0,0.0,-6.0887,-6.1583,-6.2354,-6.2676,-6.2685,-6.1218,-5.9761,0.0,0.0,0.0,0.0,0.0,0.0,0.0,0.0,0.0,0.0,0.0,0.0,0.0,0.0,0.0,0.0,0.0,0.0,0.0,0.0,0.0,0.0,0.0,0.0,0.0,0.0,0.0,0.0,0.0,0.0,0.0,0.0,0.0,0.0,0.0,0.0,0.0,0.0,0.0,0.0,0.0,0.0,0.0,0.0,0.0,0.0,0.0,0.0,0.0,0.0,0.0,0.0,0.0,0.0,0.0,0.0,0.0,0.0,0.0,0.0,0.0,0.0,0.0,0.0,0.0,0.0,0.0,0.0,0.0,0.0,0.0,0.0,0.0,0.0,0.0,0.0,0.0,0.0,0.0,0.0,0.0,0.0,0.0,0.0,0.0,0.0,0.0,0.0,0.0,0.0,0.0,0.0,0.0,0.0,0.0,0.0,0.0,0.0,0.0,0.0,0.0,0.0,0.0,0.0,0.0,0.0,0.0,-6.0589,-6.1682,-6.252,-6.3183,-6.3481,-6.3438,-6.2709,-6.1309,-5.9257,0.0,0.0,0.0,0.0,0.0,0.0,0.0,0.0,0.0,0.0,0.0,0.0,0.0,0.0,0.0,0.0,0.0,0.0,0.0,0.0,0.0,0.0,0.0,0.0,0.0,0.0,0.0,0.0,0.0,0.0,0.0,0.0,0.0,0.0,0.0,0.0,0.0,0.0,-5.373,-5.4345,0.0,0.0,0.0,0.0,0.0,0.0,0.0,0.0,-5.4418,0.0,0.0,0.0,0.0,0.0,0.0,0.0,0.0,0.0,0.0,0.0,0.0,0.0,0.0,0.0,0.0,0.0,0.0,0.0,0.0,0.0,0.0,0.0,0.0,0.0,0.0,0.0,0.0,0.0,0.0,0.0,0.0,0.0,0.0,0.0,0.0,0.0,0.0,0.0,0.0,0.0,0.0,0.0,0.0,0.0,0.0,0.0,0.0,0.0,0.0,0.0,0.0,0.0,0.0,0.0,0.0,-6.0721,-6.1583,-6.2685,-6.4001,-6.4177,-6.4243,-6.4167,-6.3297,-6.2045,-6.0463,0.0,0.0,0.0,0.0,0.0,0.0,0.0,0.0,0.0,0.0,0.0,0.0,0.0,0.0,0.0,0.0,0.0,0.0,0.0,0.0,0.0,0.0,0.0,0.0,0.0,0.0,0.0,0.0,0.0,0.0,0.0,0.0,0.0,0.0,0.0,0.0,0.0,0.0,0.0,-5.4621,-5.4683,0.0,0.0,0.0,0.0,0.0,0.0,0.0,0.0,-5.4049,0.0,0.0,0.0,0.0,0.0,0.0,0.0,0.0,0.0,0.0,0.0,0.0,0.0,0.0,0.0,0.0,0.0,0.0,0.0,0.0,0.0,0.0,0.0,0.0,0.0,0.0,0.0,0.0,0.0,0.0,0.0,0.0,0.0,0.0,0.0,0.0,0.0,0.0,0.0,0.0,0.0,0.0,0.0,0.0,0.0,0.0,0.0,0.0,0.0,0.0,0.0,0.0,0.0,0.0,0.0,-6.0708,-6.1923,-6.3023,-6.3946,-6.4374,-6.4572,-6.4539,-6.3714,-6.2782,0.0,0.0,0.0,0.0,0.0,0.0,0.0,0.0,0.0,0.0,0.0,0.0,0.0,0.0,0.0,0.0,0.0,0.0,0.0,0.0,0.0,0.0,0.0,0.0,0.0,0.0,0.0,0.0,0.0,0.0,0.0,0.0,0.0,0.0,0.0,0.0,0.0,0.0,0.0,0.0,-5.553,-5.5776,-5.5776,0.0,0.0,0.0,0.0,0.0,0.0,-5.4928,-5.4805,0.0,0.0,0.0,0.0,0.0,0.0,0.0,0.0,0.0,0.0,0.0,0.0,0.0,0.0,0.0,0.0,0.0,0.0,0.0,0.0,0.0,0.0,0.0,0.0,0.0,0.0,0.0,0.0,0.0,0.0,0.0,0.0,0.0,0.0,0.0,0.0,0.0,0.0,0.0,0.0,0.0,0.0,0.0,0.0,0.0,0.0,0.0,0.0,0.0,0.0,0.0,0.0,0.0,0.0,0.0,-6.0869,-6.2289,-6.3373,-6.4014,-6.4604,-6.4899,-6.4899,-6.4165,-6.3334,0.0,0.0,0.0,0.0,0.0,0.0,0.0,0.0,0.0,0.0,0.0,0.0,0.0,0.0,0.0,0.0,0.0,0.0,0.0,0.0,0.0,0.0,0.0,0.0,0.0,0.0,0.0,0.0,0.0,0.0,0.0,0.0,0.0,0.0,0.0,0.0,0.0,0.0,0.0,0.0,0.0,-5.6977,-5.6928,-5.6825,0.0,0.0,0.0,0.0,-5.6274,-5.5933,0.0,0.0,0.0,0.0,0.0,0.0,0.0,0.0,0.0,0.0,0.0,0.0,0.0,0.0,0.0,0.0,0.0,0.0,0.0,0.0,0.0,0.0,0.0,0.0,0.0,0.0,0.0,0.0,0.0,0.0,0.0,0.0,0.0,0.0,0.0,0.0,0.0,0.0,0.0,0.0,0.0,0.0,0.0,0.0,0.0,0.0,0.0,0.0,0.0,0.0,0.0,0.0,0.0,0.0,0.0,0.0,-6.231,-6.3141,-6.419,-6.5455,-6.5619,-6.5652,-6.5652,-6.47,-6.3597,0.0,0.0,0.0,0.0,0.0,0.0,0.0,0.0,0.0,0.0,0.0,0.0,0.0,0.0,0.0,0.0,0.0,0.0,0.0,0.0,0.0,0.0,0.0,0.0,0.0,0.0,0.0,0.0,0.0,0.0,0.0,0.0,0.0,0.0,0.0,0.0,0.0,0.0,0.0,0.0,0.0,-5.7556,-5.7308,-5.7748,-5.8044,0.0,0.0,-5.7329,-5.7329,-5.6406,0.0,0.0,0.0,0.0,0.0,0.0,0.0,0.0,0.0,0.0,0.0,0.0,0.0,0.0,0.0,0.0,0.0,0.0,0.0,0.0,0.0,0.0,0.0,0.0,0.0,0.0,0.0,0.0,0.0,0.0,0.0,0.0,0.0,0.0,0.0,0.0,0.0,0.0,0.0,0.0,0.0,0.0,0.0,0.0,0.0,0.0,0.0,0.0,0.0,0.0,0.0,0.0,0.0,0.0,0.0,-6.1217,-6.2138,-6.3382,-6.4365,-6.5091,-6.5512,-6.5497,-6.4899,-6.4465,-6.3578,0.0,0.0,0.0,0.0,0.0,0.0,0.0,0.0,0.0,0.0,0.0,0.0,0.0,0.0,0.0,0.0,0.0,0.0,0.0,0.0,0.0,0.0,0.0,0.0,0.0,0.0,0.0,0.0,0.0,0.0,0.0,0.0,0.0,0.0,0.0,0.0,0.0,0.0,0.0,0.0,0.0,0.0,-5.792,-5.8075,0.0,0.0,0.0,-5.7228,-5.7049,0.0,0.0,0.0,0.0,0.0,0.0,0.0,0.0,0.0,0.0,0.0,0.0,0.0,0.0,0.0,0.0,0.0,0.0,0.0,0.0,0.0,0.0,0.0,0.0,0.0,0.0,0.0,0.0,0.0,0.0,0.0,0.0,0.0,0.0,0.0,0.0,0.0,0.0,0.0,0.0,0.0,0.0,0.0,0.0,0.0,0.0,0.0,0.0,0.0,0.0,0.0,0.0,0.0,0.0,0.0,0.0,0.0,-6.1897,-6.3473,-6.4479,-6.4802,-6.546,-6.5507,-6.4796,-6.4572,0.0,0.0,0.0,0.0,0.0,0.0,0.0,0.0,0.0,0.0,0.0,0.0,0.0,0.0,0.0,0.0,0.0,0.0,0.0,0.0,0.0,0.0,0.0,0.0,0.0,0.0,0.0,-5.1376,0.0,0.0,0.0,0.0,0.0,0.0,0.0,0.0,0.0,0.0,0.0,0.0,0.0,0.0,-5.8354,-5.8492,-5.8501,-5.8365,0.0,0.0,-5.7497,-5.7209,-5.6983,-5.6651,0.0,0.0,0.0,0.0,0.0,0.0,0.0,0.0,0.0,0.0,0.0,0.0,0.0,0.0,0.0,0.0,0.0,0.0,0.0,0.0,0.0,0.0,0.0,0.0,0.0,0.0,0.0,0.0,0.0,0.0,0.0,0.0,0.0,0.0,0.0,0.0,0.0,0.0,0.0,0.0,0.0,0.0,0.0,0.0,0.0,0.0,0.0,0.0,0.0,0.0,0.0,0.0,0.0,0.0,0.0,-6.2124,-6.3469,-6.4525,-6.5262,-6.5916,-6.6236,-6.6121,-6.5564,-6.4572,0.0,0.0,0.0,0.0,0.0,0.0,0.0,0.0,0.0,0.0,0.0,0.0,0.0,0.0,0.0,0.0,0.0,0.0,0.0,0.0,0.0,0.0,0.0,0.0,0.0,0.0,0.0,0.0,0.0,0.0,0.0,0.0,0.0,0.0,0.0,0.0,0.0,0.0,0.0,0.0,0.0,-5.9451,-5.8945,-5.9439,-5.9622,0.0,0.0,-5.8871,-5.86,-5.7823,-5.7168,-5.6811,0.0,0.0,0.0,0.0,0.0,0.0,0.0,0.0,0.0,0.0,0.0,0.0,0.0,0.0,0.0,0.0,0.0,0.0,0.0,0.0,0.0,0.0,0.0,0.0,0.0,0.0,0.0,0.0,0.0,0.0,0.0,0.0,0.0,0.0,0.0,0.0,0.0,0.0,0.0,0.0,0.0,0.0,0.0,0.0,0.0,0.0,0.0,0.0,0.0,0.0,0.0,0.0,0.0,-6.2076,-6.278,-6.4188,-6.5144,-6.5663,-6.6365,-6.6453,-6.5853,-6.5186,-6.4361,0.0,0.0,0.0,0.0,0.0,0.0,0.0,0.0,0.0,0.0,0.0,0.0,0.0,0.0,0.0,0.0,0.0,0.0,0.0,0.0,0.0,0.0,0.0,0.0,0.0,0.0,0.0,0.0,-5.2544,-5.2883,-5.3238,0.0,0.0,0.0,0.0,0.0,0.0,0.0,0.0,0.0,0.0,-5.9674,-6.0077,-6.025,0.0,0.0,-6.0356,-6.0011,-5.9151,-5.8719,-5.8147,-5.7236,-5.6807,0.0,0.0,0.0,0.0,0.0,0.0,0.0,0.0,0.0,0.0,0.0,0.0,0.0,0.0,0.0,0.0,0.0,0.0,0.0,0.0,0.0,0.0,0.0,0.0,0.0,0.0,0.0,0.0,0.0,0.0,0.0,0.0,0.0,0.0,0.0,0.0,0.0,0.0,0.0,0.0,0.0,0.0,0.0,0.0,0.0,0.0,0.0,0.0,0.0,0.0,0.0,0.0,-6.2348,-6.3304,-6.4452,-6.5307,-6.5802,-6.65,-6.6574,-6.589,-6.5006,-6.4279,0.0,0.0,0.0,0.0,0.0,0.0,0.0,0.0,0.0,0.0,0.0,0.0,0.0,0.0,0.0,0.0,0.0,0.0,0.0,0.0,0.0,0.0,0.0,0.0,0.0,0.0,0.0,0.0,-5.3314,-5.356,-5.4237,0.0,0.0,0.0,0.0,0.0,0.0,0.0,0.0,0.0,0.0,-6.0211,-6.0805,-6.0838,-6.0866,-6.11,-6.1104,-6.0787,-5.9776,-5.9549,-5.9087,-5.7936,0.0,0.0,0.0,0.0,0.0,0.0,0.0,0.0,0.0,0.0,0.0,0.0,0.0,0.0,0.0,0.0,0.0,0.0,0.0,0.0,0.0,0.0,0.0,0.0,0.0,0.0,0.0,0.0,0.0,0.0,-6.2826,0.0,0.0,0.0,0.0,0.0,0.0,0.0,0.0,0.0,0.0,0.0,0.0,0.0,0.0,0.0,0.0,0.0,0.0,0.0,0.0,0.0,0.0,-6.2147,-6.3507,-6.4235,-6.4879,-6.5626,-6.6238,-6.6586,-6.6523,-6.5258,-6.4532,-6.4437,0.0,0.0,0.0,0.0,0.0,0.0,0.0,0.0,0.0,0.0,0.0,0.0,0.0,0.0,0.0,0.0,0.0,0.0,0.0,0.0,0.0,0.0,0.0,0.0,0.0,0.0,-5.4591,-5.4652,-5.4914,0.0,0.0,0.0,0.0,0.0,0.0,0.0,0.0,0.0,0.0,-6.0687,-6.1279,-6.0988,-6.1231,-6.1408,-6.119,-6.1164,-6.0992,-6.0624,-6.0341,-5.985,0.0,0.0,0.0,0.0,0.0,0.0,0.0,0.0,0.0,0.0,0.0,0.0,0.0,0.0,0.0,0.0,0.0,0.0,0.0,0.0,0.0,0.0,0.0,0.0,0.0,0.0,0.0,-6.3681,-6.2826,0.0,0.0,0.0,0.0,0.0,0.0,0.0,0.0,0.0,0.0,0.0,-6.2937,-6.2692,0.0,0.0,0.0,0.0,0.0,0.0,0.0,0.0,0.0,0.0,0.0,0.0,-6.3236,-6.4152,-6.4848,-6.5543,-6.6238,-6.6491,-6.6586,-6.6586,-6.5701,-6.4563,-6.3173,0.0,0.0,0.0,0.0,0.0,0.0,0.0,0.0,0.0,0.0,0.0,0.0,0.0,0.0,0.0,0.0,0.0,0.0,0.0,0.0,0.0,0.0,0.0,0.0,0.0,-5.4683,0.0,0.0,0.0,0.0,0.0,0.0,0.0,0.0,0.0,0.0,0.0,-5.9665,-6.0135,-6.073,-6.1291,-6.1896,-6.195,-6.2025,0.0,0.0,0.0,0.0,0.0,0.0,0.0,0.0,0.0,0.0,0.0,0.0,0.0,0.0,-5.6223,-5.5026,-5.4459,-5.4007,-5.3726,0.0,0.0,0.0,0.0,0.0,0.0,0.0,0.0,0.0,0.0,0.0,0.0,0.0,0.0,-6.4885,0.0,-6.3649,0.0,0.0,0.0,0.0,0.0,0.0,0.0,0.0,-6.2888,-6.3299,-6.4088,-6.3887,-6.4089,0.0,-6.4449,-6.3584,0.0,0.0,0.0,0.0,0.0,0.0,0.0,0.0,-6.4184,-6.4848,-6.5353,-6.589,-6.6554,-6.6586,-6.6586,-6.6586,-6.5701,-6.4437,-6.2857,-6.1909,-6.1182,0.0,0.0,0.0,0.0,0.0,0.0,0.0,0.0,0.0,0.0,0.0,0.0,0.0,0.0,0.0,0.0,0.0,0.0,0.0,0.0,0.0,0.0,0.0,-5.5438,0.0,0.0,0.0,0.0,0.0,0.0,0.0,0.0,0.0,-5.8416,-5.9287,-6.0166,-6.0524,-6.1079,-6.1715,-6.2423,0.0,0.0,0.0,0.0,0.0,0.0,0.0,-6.1319,-6.0382,-5.9947,-5.9684,-5.9335,-5.9306,-5.9248,-5.9161,0.0,0.0,-5.6079,-5.5196,-5.4544,-5.4373,-5.4316,-5.4316,-5.4316,-5.4288,-5.4316,0.0,0.0,0.0,0.0,0.0,0.0,0.0,0.0,-6.6835,-6.6722,0.0,-6.5748,0.0,0.0,0.0,0.0,0.0,-6.4171,0.0,0.0,-6.4792,-6.4755,-6.448,-6.4544,-6.4544,-6.4512,-6.4607,-6.4575,-6.448,-6.4512,0.0,0.0,0.0,0.0,0.0,0.0,-6.4879,-6.5543,-6.569,-6.5985,-6.6617,-6.6649,-6.6617,-6.6586,-6.529,-6.4247,-6.352,-6.2225,-6.1466,-6.1403,-6.0739,0.0,0.0,0.0,0.0,0.0,0.0,0.0,0.0,0.0,0.0,0.0,0.0,0.0,0.0,0.0,0.0,0.0,0.0,0.0,0.0,-5.6923,0.0,0.0,0.0,0.0,0.0,0.0,0.0,0.0,0.0,0.0,-5.9429,-5.9988,-6.0524,-6.0866,0.0,0.0,0.0,0.0,-6.3137,-6.3137,-6.3137,-6.3137,-6.3079,-6.2789,-6.2261,-6.1407,0.0,0.0,-5.9539,-5.9364,-5.9277,-5.8956,-5.8897,-5.8549,-5.7654,-5.6443,-5.5639,-5.5552,-5.5552,-5.5552,-5.5552,-5.5552,-5.561,-7.3164,0.0,0.0,0.0,0.0,-6.9775,-6.9134,-6.8262,-6.7713,-6.7096,-6.6381,-6.5655,0.0,0.0,0.0,0.0,0.0,0.0,-6.4361,-6.4346,-6.4346,-6.4444,-6.4664,-6.5133,-6.5352,-6.5352,-6.5822,-6.5929,-6.5733,-6.5702,-6.5303,-6.448,0.0,0.0,0.0,0.0,-6.5385,-6.5658,-6.6575,-6.7091,-6.7313,-6.7313,-6.7091,-6.6617,-6.5732,-6.4942,-6.4247,-6.3362,-6.2635,-6.2161,-6.1466,0.0,0.0,0.0,0.0,0.0,0.0,0.0,0.0,0.0,0.0,0.0,0.0,0.0,0.0,0.0,0.0,0.0,0.0,0.0,-5.6875,-5.6858,-5.6994,0.0,0.0,0.0,0.0,0.0,0.0,0.0,0.0,0.0,-6.0213,-6.0479,-6.0927,0.0,0.0,-6.2612,-6.2892,-6.3017,-6.3137,-6.3137,0.0,0.0,0.0,-6.2847,-6.2497,-6.2231,-6.1704,-6.1232,-6.0998,-6.082,-6.0642,-6.0493,-5.9967,-5.9414,-5.9094,-5.8016,-5.7203,-5.7115,-5.7024,-5.6845,-5.6845,-5.6996,-5.7115,-7.589,-7.4053,-7.2948,-7.2286,-7.1844,-7.1155,-7.0461,-6.9696,-6.8852,-6.8151,-6.7496,-6.662,-6.623,-6.6147,-6.537,0.0,0.0,0.0,-6.5219,-6.5593,-6.5562,-6.5705,-6.595,-6.6355,-6.6542,-6.6542,-6.6948,-6.7003,-6.6846,-6.6955,-6.6623,-6.5933,0.0,0.0,-6.5353,-6.6017,-6.6449,-6.6428,-6.7471,-6.8039,-6.8039,-6.7755,-6.7407,-6.6997,-6.608,-6.5353,-6.4942,-6.3994,-6.3299,-6.2857,-6.2193,-6.1814,0.0,0.0,0.0,0.0,0.0,0.0,0.0,0.0,0.0,0.0,0.0,-5.9018,0.0,0.0,0.0,0.0,-5.7921,-5.7726,-5.7611,-5.7611,0.0,0.0,0.0,0.0,0.0,0.0,0.0,-5.9787,-6.0219,-6.0448,-6.0518,-6.1061,-6.1459,-6.1713,-6.2345,-6.2802,-6.3077,0.0,-6.3137,-6.3137,-6.3137,-6.3137,-6.3137,-6.2905,-6.2731,-6.2615,-6.2175,-6.1791,-6.1791,-6.1583,-6.1344,-6.1286,-6.0785,-6.0374,-6.0374,-5.9549,-5.8671,-5.8156,-5.7891,-5.7772,-5.7772,-5.7863,-5.7982,-7.8661,-7.7852,-7.5131,-7.3901,-7.3642,-7.1929,-7.1242,-7.1156,-7.0183,-6.967,-6.9468,-6.8264,-6.7679,-6.7553,-6.5759,0.0,-6.5864,-6.5864,-6.6519,-6.7735,-6.7735,-6.7766,-6.7766,-6.7797,-6.7797,-6.7735,-6.7797,-6.7797,-6.7735,-6.8037,-6.8178,-6.8202,-6.7247,-6.6775,-6.6807,-6.7376,-6.7692,-6.766,-6.8387,-6.8766,-6.8766,-6.8103,-6.7692,-6.7565,-6.6396,-6.5701,-6.5595,-6.4342,-6.3584,-6.3457,-6.2857,-6.2477,-6.2396,0.0,0.0,0.0,0.0,0.0,0.0,0.0,0.0,0.0,0.0,0.0,0.0,0.0,0.0,0.0,-5.8943,0.0,-5.8793,-5.8793,0.0,0.0,0.0,-5.9131,-5.9809,-5.9666,-5.9735,-6.0377,0.0,0.0,-6.062,0.0,-6.2121,-6.2181,-6.269,-6.3137,-6.3137,-6.3137,-6.3137,-6.3137,-6.3137,-6.3137,-6.3137,-6.3079,-6.2963,-6.2731,-6.2351,-6.2175,-6.2116,-6.185,-6.1673,-6.1673,-6.1464,-6.1224,-6.1253,-6.0926,-6.0307,-5.8858,-5.8539,-5.8451,-5.8508,-5.8537,-5.8596,-8.041,-8.0119,-7.837,-7.6718,-7.5076,-7.3928,-7.332,-7.2947,-7.1998,-7.1005,-7.0077,-6.928,-6.8461,-6.7707,-6.7284,-6.7166,-6.7322,-6.7322,-6.7312,-6.7454,-6.7398,-6.7285,-6.7147,-6.7615,-6.7584,-6.7178,-6.7672,-6.7755,-6.7454,-6.7735,-6.8013,-6.8202,-6.8193,-6.8197,-6.8197,-6.8355,-6.8419,-6.845,-6.9082,-6.943,-6.943,-6.9272,-6.8703,-6.7629,-6.7281,-6.6617,-6.5606,-6.5258,-6.4595,-6.3552,-6.3331,-6.2983,-6.2428,-6.2396,0.0,0.0,0.0,0.0,0.0,0.0,0.0,0.0,0.0,-5.9992,-5.9895,0.0,-5.934,0.0,-5.8962,-5.8793,-5.8793,-5.8793,0.0,0.0,-5.9562,-5.9809,-6.0486,-6.0288,-6.0355,-6.073,-6.0651,-6.0806,-6.1605,-6.1938,-6.2301,-6.275,-6.2959,-6.3137,-6.3137,-6.3137,-6.3137,-6.3137,-6.3137,-6.3137,-6.3137,-6.3137,-6.3079,-6.3021,-6.2731,-6.2498,-6.2498,-6.2175,-6.1998,-6.1969,-6.1939,-6.1821,-6.1554,-6.1434,-6.1168,-6.0607,-6.01,-5.9708,-5.9797,-5.989,-6.01,-8.1997,-8.1867,-8.0264,-7.8913,-7.7661,-7.5788,-7.474,-7.4359,-7.2883,-7.185,-7.1128,-7.0521,-6.9703,-6.8763,-6.8422,-6.8298,-6.8298,-6.7988,-6.7905,-6.8011,-6.832,-6.8386,-6.8274,-6.892,-6.8889,-6.8274,-6.8612,-6.8517,-6.8042,-6.8468,-6.8808,-6.892,-6.9367,-6.962,-6.962,-6.9304,-6.9146,-6.9146,-6.9809,-7.0157,-7.0157,-6.9841,-6.9177,-6.8134,-6.7755,-6.7091,-6.608,-6.5732,-6.5278,-6.4488,-6.4121,-6.3773,-6.3362,-6.3046,-6.2888,0.0,0.0,0.0,0.0,0.0,0.0,0.0,0.0,0.0,0.0,0.0,-6.004,-5.9939,-5.9787,-5.9686,-5.9686,-5.9686,-5.9839,-6.0209,-6.024,-6.0393,-6.0763,-6.0705,-6.0692,-6.0897,-6.1091,-6.1421,-6.2002,-6.2361,-6.266,-6.3019,-6.3137,-6.3137,-6.3137,-6.3137,-6.3137,-6.3137,-6.3137,-6.3137,-6.3137,-6.3137,-6.3137,-6.3079,-6.2963,-6.2847,-6.2789,-6.2556,-6.2322,-6.2322,-6.2234,-6.2028,-6.185,-6.1791,-6.1732,-6.1583,-6.1344,-6.0984,-6.0681,-6.0831,-6.0952,-8.3292,-8.3134,-8.1504,-8.071,-8.0299,-7.7558,-7.6081,-7.5533,-7.3556,-7.2512,-7.2297,-7.1612,-7.0822,-6.9997,-6.9413,-6.9135,-6.9105,-6.8551,-6.8612,-6.9166,-6.9751,-7.0028,-7.0059,-7.0644,-7.0613,-7.0028,-7.0028,-6.978,-6.9253,-6.9685,-6.9943,-7.0,-7.0539,-7.0789,-7.0757,-7.0157,-6.9809,-6.9841,-7.0473,-7.0789,-7.0757,-7.0157,-6.9525,-6.8829,-6.8103,-6.7407,-6.6744,-6.608,-6.5721,-6.5595,-6.4974,-6.4595,-6.45,-6.3963,-6.3615,0.0,-6.3046,0.0,0.0,0.0,0.0,0.0,0.0,0.0,0.0,-6.1308,-6.1052,-6.0794,-6.0794,-6.0794,-6.0794,-6.0794,-6.0794,-6.0794,-6.0886,-6.0917,-6.0948,-6.1027,-6.1109,-6.1116,-6.1765,-6.2178,-6.2241,-6.272,-6.3137,-6.3137,-6.3137,-6.3137,-6.3137,-6.3137,-6.3137,-6.3137,-6.3137,-6.3137,-6.3137,-6.3137,-6.3137,-6.3137,-6.3079,-6.3137,-6.3079,-6.2847,-6.2673,-6.2615,-6.2468,-6.2234,-6.2175,-6.2175,-6.2175,-6.2057,-6.2057,-6.188,-6.1404,-6.1313,-6.1404,-8.3819,-8.3505,-8.2638,-8.1621,-8.0517,-7.9404,-7.8228,-7.6995,-7.5538,-7.393,-7.2328,-7.1378,-7.0889,-7.0705,-7.0582,-7.0521,-7.0521,-7.0398,-7.0428,-7.0521,-7.0644,-7.0705,-7.0705,-7.0828,-7.0828,-7.0705,-7.0705,-7.0764,-7.0939,-7.0735,-7.0745,-7.0976,-7.0872,-7.0789,-7.0757,0.0,0.0,0.0,-7.0694,-7.0789,-7.0789,-7.0631,-7.022,-6.9525,-6.8829,0.0,-6.7439,-6.6775,-6.6143,-6.5606,-6.5448,0.0,0.0,0.0,0.0,0.0,0.0,0.0,0.0,0.0,0.0,0.0,-6.3505,-6.2778,-6.1381,-6.1052,-6.0845,-6.0794,-6.0794,-6.0794,-6.0794,-6.0794,-6.0794,-6.0824,-6.1286,-6.1625,-6.1625,-6.189,-6.2232,-6.2505,-6.2475,-6.2555,-6.2837,-6.3019,-6.3137,-6.3137,-6.3137,-6.3137,-6.3137,-6.3137,-6.3137,-6.3137,-6.3137,-6.3137,-6.3137,-6.3137,-6.3137,-6.3137,-6.3137,-6.3137,-6.3079,-6.3079,-6.3021,-6.3021,-6.2963,-6.2789,-6.2556,-6.2498,-6.241,-6.2175,-6.2116,-6.2057,-6.1939,-6.1939,-6.1939,-8.4696,0.0,-8.3097,-8.2302,0.0,-8.0175,-7.9195,-7.8374,-7.6586,-7.478,-7.317,-7.2645,-7.2244,-7.1906,-7.1567,-7.1444,-7.1413,-7.1075,-7.089,-7.0921,-7.1259,-7.1444,-7.1444,-7.1783,-7.1752,-7.1444,-7.1596,-7.1562,-7.1402,-7.1503,-7.1697,-7.1845,-7.1471,-7.1294,-7.1263,-7.0947,-7.0789,-7.0789,-7.0789,-7.0789,-7.0789,-7.0789,-7.0441,-6.9714,0.0,0.0,0.0,0.0,0.0,0.0,0.0,0.0,0.0,0.0,0.0,-6.5037,-6.4721,-6.4449,-6.4449,-6.4449,-6.4295,-6.3933,-6.3515,-6.292,-6.205,-6.1862,-6.1779,-6.1779,-6.1779,-6.1809,-6.1809,-6.1809,-6.1809,-6.1809,-6.2117,-6.2302,-6.231,-6.2649,-6.2951,-6.3122,-6.3178,-6.3316,-6.3535,-6.3367,-6.3309,-6.3309,-6.3194,-6.3137,-6.3137,-6.3137,-6.3137,-6.3137,-6.3137,-6.3137,-6.3137,-6.3137,-6.3137,-6.3137,-6.3137,-6.3137,-6.3137,-6.3137,-6.3137,-6.3137,-6.3137,-6.3021,-6.2905,-6.2847,-6.2789,-6.2643,-6.2585,-6.2585,-6.2585,-6.2351,-6.2175,-8.5407,-8.4668,-8.345,-8.2746,-8.2491,-8.055,-7.9568,-7.9094,0.0,0.0,0.0,-7.4061,-7.3691,-7.3106,-7.246,-7.2152,-7.2121,-7.1567,-7.129,-7.129,-7.1875,-7.2152,-7.2183,-7.2737,-7.2768,-7.2306,-7.2489,-7.2361,-7.1953,-7.2363,-7.2594,-7.2621,-7.2222,-7.1926,-7.18,-7.1263,-7.0915,-7.0789,-7.0789,-7.0789,-7.0789,-7.0789,-7.0504,-6.9928,-6.9746,-6.9146,-6.8008,-6.7723,-6.7344,-6.6807,-6.6649,-6.6586,-6.6586,-6.608,-6.5764,-6.5732,-6.5195,-6.4911,-6.4879,-6.4879,-6.4621,-6.4099,-6.3516,-6.3071,-6.2856,-6.2825,-6.2825,-6.2825,-6.2825,-6.2825,-6.2825,-6.2825,-6.2825,-6.2825,-6.2918,-6.301,-6.2987,-6.3377,-6.3642,-6.3617,-6.3822,-6.4049,-6.3993,-6.3766,-6.3565,-6.3451,-6.3309,-6.3137,-6.3137,-6.3137,-6.3137,-6.3137,-6.3137,-6.3137,-6.3137,-6.3137,-6.3137,-6.3137,-6.3137,-6.3137,-6.3137,-6.3137,-6.3137,-6.3137,-6.3137,-6.3079,-6.3137,-6.3079,-6.3137,-6.3137,-6.3137,-6.3137,-6.3079,-6.2643,-6.241,-8.5144,-8.4723,-8.3989,-8.3126,-8.2199,-8.0989,-7.9434,-7.776,-7.6796,-7.5861,-7.483,-7.4245,-7.3937,-7.3814,-7.3137,-7.2829,-7.2829,-7.2737,-7.2675,0.0,-7.2798,-7.286,-7.2829,-7.2952,-7.3139,-7.3293,-7.3354,-7.3598,-7.3894,-7.3481,-7.3376,-7.3548,-7.3001,-7.2369,-7.1863,-7.1705,-7.1389,-7.0789,-7.0789,-7.0789,-7.0789,-7.0789,-7.0757,-7.0599,-6.9999,-6.962,-6.9398,-6.8229,-6.7565,-6.7439,-6.6902,-6.6586,-6.6617,-6.6523,-6.6459,-6.6459,-6.6365,-6.6333,-6.6301,-6.6301,-6.6038,-6.5473,-6.4909,-6.4118,-6.2948,-6.2825,-6.2825,-6.2825,-6.2887,-6.2825,-6.2825,-6.2887,-6.2918,-6.2918,-6.3349,-6.3687,-6.3687,-6.4217,-6.4506,-6.4254,-6.432,-6.4244,-6.4106,-6.3993,-6.3823,-6.3595,-6.3424,-6.3367,-6.3137,-6.3137,-6.3137,-6.3137,-6.3137,-6.3137,-6.3137,-6.3137,-6.3137,-6.3137,-6.3137,-6.3137,-6.3137,-6.3137,-6.3137,-6.3137,-6.3137,-6.3137,-6.3137,-6.3137,-6.3137,-6.3137,-6.3137,-6.3137,-6.3137,-6.2963,-6.2933,-8.5296,-8.4719,-8.3854,-8.3116,-8.2342,-8.0717,-7.8975,-7.7277,-7.6938,-7.6314,-7.5538,-7.523,-7.4892,-7.4491,-7.3814,-7.3537,-7.3506,-7.3137,-7.2983,-7.2983,-7.2983,-7.2983,-7.2983,-7.2983,-7.3169,-7.3509,-7.3662,-7.3936,-7.4328,-7.4284,-7.4305,-7.4391,-7.3759,-7.3033,-7.2369,-7.199,-7.1674,-7.1358,-7.0978,-7.0789,-7.0789,-7.0789,-7.0789,-7.0789,-7.0441,-7.0094,-6.9683,-6.9051,-6.8577,-6.8197,-6.7913,-6.7723,-6.7723,-6.7376,-6.7155,-6.7123,-6.6807,-6.6722,-6.691,-6.6963,-6.6667,-6.6105,-6.5664,-6.5042,-6.4026,-6.3933,-6.3964,-6.3933,-6.3933,-6.3933,-6.3933,-6.3964,-6.3964,-6.3964,-6.4241,-6.4395,-6.4426,-6.4672,-6.4832,-6.4691,-6.4635,-6.461,-6.4499,-6.43,-6.4075,-6.3793,-6.3538,-6.3252,-6.3137,-6.3137,-6.3137,-6.3137,-6.3137,-6.3137,-6.3137,-6.3137,-6.3137,-6.3137,-6.3137,-6.3137,-6.3137,-6.3137,-6.3137,-6.3137,-6.3137,-6.3137,-6.3137,-6.3137,-6.3137,-6.3137,-6.3137,-6.3137,-6.3137,-6.3137,-6.3137,-8.5412,-8.4708,-8.3588,-8.2654,-8.1878,-8.0284,-7.8579,-7.7077,-7.7016,-7.6708,-7.6246,-7.6092,-7.5723,-7.5199,-7.4522,-7.4153,-7.3937,-7.3445,-7.3137,-7.2983,-7.2983,-7.2983,-7.2983,-7.2983,-7.3231,-7.3601,-7.3814,-7.4118,-7.4479,-7.4778,-7.4897,-7.4834,-7.4391,-7.3759,-7.3033,-7.2559,-7.2211,-7.2021,-7.1358,-7.0947,-7.0789,-7.0789,-7.0789,-7.0789,-7.0789,-7.0504,-6.9967,-6.9778,-6.943,-6.8956,-6.8766,-6.8703,-6.8671,-6.8166,-6.7818,-6.7787,-6.7322,-6.7067,-6.7277,-6.7312,-6.7094,-6.6542,-6.6288,-6.5903,-6.5442,-6.5349,-6.5195,-6.4949,-6.4826,-6.4857,-6.4826,-6.4857,-6.4888,-6.4888,-6.4888,-6.4857,-6.4888,-6.4888,-6.4888,-6.4888,-6.4888,-6.4888,-6.4832,-6.4691,-6.4356,-6.3993,-6.3538,-6.3194,-6.3137,-6.3137,-6.3137,-6.3137,-6.3137,-6.3137,-6.3137,-6.3137,-6.3137,-6.3137,-6.3137,-6.3137,-6.3137,-6.3137,-6.3137,-6.3137,-6.3137,-6.3137,-6.3137,-6.3137,-6.3137,-6.3137,-6.3137,-6.3137,-6.3137,-6.3137,-6.3137,-8.5127,-8.4604,-8.331,-8.1624,-7.9964,-7.9681,-7.8579,-7.7108,-7.7016,-7.6985,-7.6862,-7.6308,-7.6,-7.5846,-7.5199,-7.4615,-7.4091,-7.3937,-7.3568,-7.3045,-7.2983,-7.2983,-7.2983,-7.2983,-7.3324,-7.3783,-7.3905,-7.4207,-7.4838,-7.4897,-7.4897,-7.4897,-7.4834,-7.4455,-7.3854,-7.3728,-7.3349,-7.2717,-7.2053,-7.1421,-7.082,-7.0789,-7.0789,-7.0789,-7.0789,-7.0757,-7.0631,-7.003,-6.9651,-6.9556,-6.9051,-6.8703,-6.8703,-6.864,-6.8608,-6.8577,-6.8241,-6.7966,-6.7752,-6.748,-6.7285,-6.7193,-6.6966,-6.6796,-6.6673,-6.6673,-6.618,-6.5288,-6.4949,-6.5011,-6.4918,-6.498,-6.5042,-6.5072,-6.498,-6.4888,-6.4949,-6.4888,-6.4888,-6.4888,-6.4888,-6.4888,-6.4888,-6.4832,-6.461,-6.4049,-6.3652,-6.3367,-6.3137,-6.3137,-6.3137,-6.3137,-6.3137,-6.3137,-6.3137,-6.3137,-6.3137,-6.3137,-6.3137,-6.3137,-6.3137,-6.3137,-6.3137,-6.3137,-6.3137,-6.3137,-6.3137,-6.3137,-6.3137,-6.3137,-6.3137,-6.3137,-6.3137,-6.3137,-6.3137,-8.4667,-8.4028,-8.2916,-8.1294,-7.9712,-7.9383,-7.8411,-7.7077,-7.7016,-7.7016,-7.6985,-7.6739,-7.6615,-7.6554,-7.5907,-7.5446,-7.5138,-7.4368,-7.3845,-7.3537,-7.3168,-7.2983,-7.2983,-7.2983,-7.3324,-7.3844,-7.3905,-7.4299,-7.4778,-7.4897,-7.4897,-7.4897,-7.4897,-7.4771,-7.4455,-7.4107,-7.3728,-7.3443,-7.2369,-7.1674,-7.1389,-7.0978,-7.0789,-7.0789,-7.0789,-7.0789,-7.0757,-7.0473,-7.0346,-7.0315,-7.0062,-6.9904,-6.9936,-6.9525,-6.9217,-6.9028,-6.8551,-6.8214,-6.8101,-6.8188,-6.8077,-6.7707,-6.7562,-6.735,-6.695,-6.6919,-6.6642,-6.6242,-6.6088,-6.6088,-6.6088,-6.6088,-6.6088,-6.6027,-6.575,-6.5503,-6.5472,-6.5134,-6.4888,-6.4888,-6.4888,-6.4918,-6.4888,-6.4721,-6.4412,-6.4019,-6.3709,-6.3424,-6.3137,-6.3137,-6.3137,-6.3137,-6.3137,-6.3137,-6.3137,-6.3137,-6.3137,-6.3137,-6.3137,-6.3137,-6.3137,-6.3137,-6.3137,-6.3137,-6.3137,-6.3137,-6.3137,-6.3137,-6.3137,-6.3137,-6.3137,-6.3137,-6.3137,-6.3137,-6.3137,-8.3981,-8.3281,-8.213,-8.0803,-7.945,-7.8997,-7.8124,-7.7108,-7.7016,-7.7016,-7.7016,-7.7016,-7.7016,-7.6954,-7.6492,-7.6184,-7.5877,-7.4799,-7.4153,-7.3937,-7.3322,-7.2983,-7.2983,-7.2983,-7.3324,-7.3783,-7.3905,-7.4207,-7.4838,-7.4897,-7.4897,-7.4897,-7.4897,-7.4897,-7.4834,-7.4391,-7.417,-7.4075,-7.2969,-7.2274,-7.2021,-7.1421,-7.0978,-7.0789,-7.0789,-7.0789,-7.0789,-7.0789,-7.0789,-7.0789,-7.0789,-7.0789,-7.0757,-7.0196,-6.9689,-6.9358,-6.8873,-6.8586,-6.844,-6.8729,-6.8674,-6.8274,-6.8181,-6.7997,-6.7566,-6.7442,-6.7473,-6.7442,-6.7442,-6.735,-6.695,-6.6919,-6.6919,-6.6858,-6.6457,-6.618,-6.615,-6.5719,-6.5503,-6.5442,-6.538,-6.5072,-6.4949,-6.4721,-6.4468,-6.4049,-6.3823,-6.3481,-6.3194,-6.3137,-6.3137,-6.3137,-6.3137,-6.3137,-6.3137,-6.3137,-6.3137,-6.3137,-6.3137,-6.3137,-6.3137,-6.3137,-6.3137,-6.3137,-6.3137,-6.3137,-6.3137,-6.3137,-6.3137,-6.3137,-6.3137,-6.3137,-6.3137,-6.3137,-6.3137,-8.3027,-8.2503,-8.0884,-7.9823,-7.9016,-7.8401,-7.7693,-7.7016,-7.7016,-7.7016,-7.7016,-7.7016,-7.7016,-7.7016,-7.6923,-7.6615,-7.6,-7.5261,-7.4584,-7.403,-7.3322,-7.2983,-7.2983,-7.2983,-7.3324,-7.3844,-7.3905,-7.4207,-7.4838,-7.4897,-7.4897,-7.4897,-7.4897,-7.4897,-7.4897,-7.4834,-7.4834,-7.4676,-7.4044,-7.3443,-7.278,-7.2116,-7.1484,-7.0978,-7.0789,-7.0789,-7.0789,-7.0789,-7.0789,-7.0789,-7.0789,-7.0789,-7.0757,-7.0413,-6.9984,-6.9468,-6.9352,-6.9178,-6.8914,-6.8858,-6.8858,-6.8828,-6.8766,-6.8797,-6.8643,-6.8612,-6.8612,-6.8766,-6.8612,-6.8212,-6.7258,-6.7165,-6.7104,-6.7073,-6.695,-6.6858,-6.6888,-6.6735,-6.6827,-6.6642,-6.618,-6.5657,-6.5042,-6.4888,-6.4585,-6.4193,-6.3993,-6.3766,-6.3252,-6.3137,-6.3137,-6.3137,-6.3137,-6.3137,-6.3137,-6.3137,-6.3137,-6.3137,-6.3137,-6.3137,-6.3137,-6.3137,-6.3137,-6.3137,-6.3137,-6.3137,-6.3137,-6.3137,-6.3137,-6.3137,-6.3137,-6.3137,-6.3137,-6.3137,-6.3137,-8.2155,-8.1008,-8.0378,-7.9478,-7.8432,-7.8124,-7.7565,-7.7046,-7.7016,-7.7016,-7.7016,-7.7016,-7.7016,-7.7016,-7.7016,-7.6892,-7.6554,-7.5507,-7.4861,-7.4522,-7.3506,-7.2983,-7.2983,-7.2983,-7.3324,-7.3844,-7.3905,-7.4207,-7.4838,-7.4897,-7.4897,-7.4897,-7.4897,-7.4897,-7.4897,-7.4897,-7.4897,-7.4834,-7.4233,-7.3759,-7.3475,-7.2811,-7.2306,-7.2053,-7.1231,-7.0789,-7.0789,-7.0789,-7.0789,-7.0789,-7.0789,-7.0733,-7.0476,-7.0021,-6.9677,-6.9414,-6.9182,-6.9006,-6.8948,-6.8889,-6.8889,-6.8889,-6.8889,-6.8889,-6.8889,-6.8889,-6.8889,-6.8889,-6.8889,-6.8581,-6.8366,-6.8181,-6.8181,-6.812,-6.7812,-6.7566,-6.7473,-6.7196,-6.6919,-6.6888,-6.6673,-6.6304,-6.575,-6.5534,-6.5126,-6.4254,-6.3993,-6.3709,-6.3309,-6.3137,-6.3137,-6.3137,-6.3137,-6.3137,-6.3137,-6.3137,-6.3137,-6.3137,-6.3137,-6.3137,-6.3137,-6.3137,-6.3137,-6.3137,-6.3137,-6.3137,-6.3137,-6.3137,-6.3137,-6.3137,-6.3137,-6.3137,-6.3137,-6.3137,-6.3137,-8.1162,-8.0124,-7.9632,-7.8893,-7.8062,-7.7785,-7.7447,-7.7046,-7.7016,-7.7016,-7.7016,-7.7016,-7.7016,-7.7016,-7.7016,-7.7016,-7.6862,-7.563,-7.5015,-7.4892,-7.3599,-7.2983,-7.2983,-7.2983,-7.3262,-7.3753,-7.3997,-7.4328,-7.4838,-7.4897,-7.4897,-7.4897,-7.4897,-7.4897,-7.4897,-7.4897,-7.4897,-7.4802,-7.4455,-7.4139,-7.3886,-7.3412,-7.3033,-7.2717,-7.1895,-7.1421,-7.1421,-7.1452,-7.1421,-7.1452,-7.1307,-7.108,-7.0678,-7.0272,-6.9914,-6.9611,-6.9346,-6.9105,-6.892,-6.8889,-6.8889,-6.8889,-6.8889,-6.8889,-6.8889,-6.8889,-6.8889,-6.8889,-6.8889,-6.8889,-6.8889,-6.8858,-6.8889,-6.8858,-6.8489,-6.8243,-6.8212,-6.7843,-6.7504,-6.7319,-6.7258,-6.6919,-6.6365,-6.6027,-6.5407,-6.4471,-6.4145,-6.3766,-6.3252,-6.3137,-6.3137,-6.3137,-6.3137,-6.3137,-6.3137,-6.3137,-6.3137,-6.3137,-6.3137,-6.3137,-6.3137,-6.3137,-6.3137,-6.3137,-6.3137,-6.3137,-6.3137,-6.3137,-6.3137,-6.3137,-6.3137,-6.3137,-6.3137,-6.3137,-6.3137,-8.0094,-7.9817,-7.8616,-7.8093,-7.7877,-7.7354,-7.7046,-7.7016,-7.7016,-7.7016,-7.7016,-7.7016,-7.7016,-7.7016,-7.7016,-7.7016,-7.68,-7.563,-7.5015,-7.4861,-7.3599,-7.2983,-7.2983,-7.2983,-7.3169,-7.3539,-7.4149,-7.4539,-7.4838,-7.4897,-7.4897,-7.4897,-7.4897,-7.4897,-7.4897,-7.4897,-7.4897,-7.4866,-7.4802,-7.4549,-7.4012,-7.3917,-7.3633,-7.3033,-7.2843,-7.2811,-7.2811,-7.2717,-7.2622,-7.2596,-7.2396,-7.1964,-7.1425,-7.1216,-7.0851,-7.0116,-6.9905,-6.9566,-6.9043,-6.8982,-6.8982,-6.8889,-6.8889,-6.8889,-6.8889,-6.8889,-6.8889,-6.8889,-6.8889,-6.8889,-6.8889,-6.8889,-6.8889,-6.8889,-6.8797,-6.8766,-6.8797,-6.8828,-6.8612,-6.8089,-6.7935,-6.7627,-6.7012,-6.6519,-6.5893,-6.5071,-6.4505,-6.3884,-6.3339,-6.3137,-6.3137,-6.3137,-6.3137,-6.3137,-6.3137,-6.3137,-6.3137,-6.3137,-6.3137,-6.3137,-6.3137,-6.3137,-6.3137,-6.3137,-6.3137,-6.3137,-6.3137,-6.3137,-6.3137,-6.3137,-6.3137,-6.3137,-6.3137,-6.3137,-6.3137,-7.954,-7.8678,-7.8216,-7.7754,-7.7354,-7.7108,-7.7016,-7.7016,-7.7016,-7.7016,-7.7016,-7.7016,-7.7016,-7.7016,-7.7016,-7.7016,-7.6892,-7.5661,-7.5015,-7.4769,-7.3599,-7.2983,-7.2983,-7.2983,-7.3169,-7.3539,-7.4149,-7.4419,-7.4599,-7.4778,-7.4897,-7.4897,-7.4897,-7.4897,-7.4897,-7.4897,-7.4897,-7.4897,-7.4897,-7.4771,-7.4581,-7.4581,-7.4455,-7.4265,-7.4233,-7.4233,-7.4202,-7.3317,-7.2727,-7.2495,-7.2347,-7.1995,-7.1521,-7.1162,-7.0918,-7.0613,-7.0582,-7.0305,-6.969,-6.9536,-6.9351,-6.9012,-6.8889,-6.8889,-6.8889,-6.8889,-6.8889,-6.8889,-6.8889,-6.8889,-6.8889,-6.8889,-6.8889,-6.8889,-6.8889,-6.8889,-6.8889,-6.8889,-6.8797,-6.8643,-6.8581,-6.8304,-6.7781,-6.7319,-6.6686,-6.5578,-6.4984,-6.4398,-6.3632,-6.3344,-6.3137,-6.3137,-6.3137,-6.3226,-6.3286,-6.3226,-6.3137,-6.3137,-6.3137,-6.3137,-6.3137,-6.3137,-6.3137,-6.3137,-6.3137,-6.3137,-6.3137,-6.3137,-6.3137,-6.3137,-6.3137,-6.3137,-6.3137,-6.3137,-6.3137,-7.9078,-7.8031,-7.7754,-7.7416,-7.7046,-7.7016,-7.7016,-7.7016,-7.7016,-7.7016,-7.7016,-7.7016,-7.7016,-7.7016,-7.7016,-7.7016,-7.6862,-7.563,-7.5015,-7.4799,-7.3599,-7.3014,-7.2983,-7.2983,-7.3169,-7.3478,-7.3906,-7.4178,-7.4419,-7.4599,-7.4778,-7.4897,-7.4897,-7.4897,-7.4897,-7.4897,-7.4897,-7.4897,-7.4897,-7.4897,-7.4897,-7.4897,-7.4897,-7.4897,-7.4897,-7.4897,-7.4834,-7.3895,-7.3277,-7.3073,-7.2895,-7.2477,-7.2055,-7.1812,-7.1567,-7.1352,-7.1259,-7.0982,-7.0367,-6.9997,-6.9751,-6.932,-6.9043,-6.8889,-6.8889,-6.8889,-6.8889,-6.8889,-6.8889,-6.8889,-6.8889,-6.8889,-6.8889,-6.8889,-6.8889,-6.8889,-6.8889,-6.8889,-6.8889,-6.8858,-6.8858,-6.8674,-6.8397,-6.7908,-6.7512,-6.6365,-6.5711,-6.5152,-6.441,-6.4002,-6.3825,-6.3677,-6.3617,-6.3617,-6.3468,-6.3288,-6.3166,-6.3137,-6.3137,-6.3137,-6.3137,-6.3137,-6.3137,-6.3137,-6.3137,-6.3137,-6.3137,-6.3137,-6.3137,-6.3137,-6.3137,-6.3137,-6.3137,-6.3137,-6.3137,-7.8616,-7.7939,-7.7293,-7.7046,-7.7016,-7.7016,-7.7016,-7.7016,-7.7016,-7.7016,-7.7016,-7.7016,-7.7016,-7.7016,-7.7016,-7.7016,-7.6769,-7.563,-7.5015,-7.4645,-7.366,-7.2983,-7.2983,-7.2983,-7.3169,-7.3386,-7.3509,-7.3784,-7.4239,-7.4359,-7.4539,-7.4778,-7.4838,-7.4897,-7.4897,-7.4897,-7.4897,-7.4897,-7.4897,-7.4897,-7.4897,-7.4897,-7.4897,-7.4897,-7.4897,-7.4897,-7.4747,-7.4322,-7.4174,-7.4207,-7.3598,-7.3138,-7.2984,-7.2952,-7.2552,-7.206,-7.2029,-7.166,-7.1013,-7.0551,-7.0059,-6.9782,-6.932,-6.8889,-6.892,-6.8889,-6.8889,-6.8889,-6.8889,-6.8889,-6.8889,-6.8889,-6.8889,-6.8889,-6.8889,-6.8889,-6.8889,-6.8889,-6.8889,-6.8889,-6.8889,-6.8889,-6.8766,-6.8335,-6.7911,-6.7341,-6.6622,-6.588,-6.5404,-6.499,-6.4964,-6.4695,-6.4276,-6.3977,-6.3827,-6.3588,-6.3378,-6.3137,-6.3137,-6.3137,-6.3137,-6.3137,-6.3137,-6.3137,-6.3137,-6.3137,-6.3137,-6.3137,-6.3137,-6.3137,-6.3137,-6.3137,-6.3137,-6.3137,-6.3137,-7.7908,-7.7262,-7.7077,-7.7016,-7.7016,-7.7016,-7.7016,-7.7016,-7.7016,-7.7016,-7.7016,-7.7016,-7.7016,-7.7016,-7.7016,-7.7016,-7.6646,-7.56,-7.5015,-7.4769,-7.3599,-7.3045,-7.2983,-7.2983,-7.3045,-7.3169,-7.3355,-7.357,-7.3723,-7.3936,-7.4239,-7.4539,-7.4539,-7.4659,-7.4838,-7.4838,-7.4897,-7.4897,-7.4897,-7.4897,-7.4897,-7.4897,-7.4897,-7.4897,-7.4897,-7.4778,-7.4539,-7.4028,-7.3723,-7.3723,-7.3355,-7.3107,-7.2983,-7.2983,-7.2891,-7.2737,-7.2645,-7.2429,-7.1813,-7.1475,-7.0952,-6.9997,-6.972,-6.9413,-6.892,-6.8889,-6.8889,-6.8889,-6.8889,-6.8889,-6.8889,-6.8889,-6.8889,-6.8889,-6.8889,-6.8889,-6.8889,-6.8889,-6.8889,-6.8889,-6.8889,-6.8889,-6.8828,-6.8705,-6.8338,-6.7884,-6.7258,-6.6573,-6.6126,-6.562,-6.5413,-6.5114,-6.4755,-6.4425,-6.4156,-6.3917,-6.3617,-6.3256,-6.3137,-6.3137,-6.3137,-6.3137,-6.3137,-6.3137,-6.3137,-6.3137,-6.3137,-6.3137,-6.3137,-6.3137,-6.3137,-6.3137,-6.3137,-6.3137,-6.3137,-7.7631,-7.7016,-7.7016,-7.7016,-7.7016,-7.7016,-7.7016,-7.7016,-7.7016,-7.7016,-7.7016,-7.7016,-7.7016,-7.7016,-7.7016,-7.6831,-7.6461,-7.5476,-7.4861,-7.4399,-7.3476,-7.3014,-7.2983,-7.2983,-7.2983,-7.2983,-7.3169,-7.3355,-7.3509,-7.3662,-7.3875,-7.4118,-7.4178,-7.4268,-7.4388,-7.4448,-7.4599,-7.4659,-7.4719,-7.4719,-7.4897,-7.4778,-7.4719,-7.4659,-7.4599,-7.4359,-7.4028,-7.3662,-7.3509,-7.3447,-7.3169,-7.2983,-7.2983,-7.2983,-7.2983,-7.2983,-7.2983,-7.2798,-7.246,-7.2152,-7.1444,-7.0521,-7.012,-6.9566,-6.9074,-6.8889,-6.8889,-6.8889,-6.8889,-6.8889,-6.8889,-6.8889,-6.8889,-6.8889,-6.8889,-6.8889,-6.8889,-6.8889,-6.8889,-6.8889,-6.8889,-6.8889,-6.8889,-6.8889,-6.8705,-6.84,-6.7956,-6.7448,-6.6998,-6.6341,-6.5892,-6.5682,-6.5413,-6.5114,-6.4605,-6.4276,-6.3707,-6.3258,-6.3137,-6.3137,-6.3137,-6.3137,-6.3137,-6.3137,-6.3137,-6.3137,-6.3137,-6.3137,-6.3137,-6.3137,-6.3137,-6.3137,-6.3137,-6.3137,-6.3137,-7.757,-7.7016,-7.7016,-7.7016,-7.7016,-7.7016,-7.7016,-7.7016,-7.7016,-7.7016,-7.7016,-7.7016,-7.6923,-7.6923,-7.6769,-7.6523,-7.5877,-7.5138,-7.4461,-7.3876,-7.326,-7.2983,-7.2983,-7.2983,-7.2983,-7.2983,-7.2983,-7.3169,-7.3293,-7.3416,-7.3601,-7.3814,-7.3875,-7.3905,-7.4026,-7.3966,-7.4087,-7.4299,-7.4359,-7.4479,-7.4599,-7.4479,-7.4359,-7.4299,-7.4057,-7.3814,-7.3601,-7.3447,-7.3447,-7.3447,-7.3169,-7.2983,-7.2983,-7.2983,-7.2983,-7.2983,-7.2983,-7.2952,-7.2891,-7.2398,-7.1721,-7.0952,-7.0305,-6.9659,-6.9105,-6.8889,-6.8889,-6.8889,-6.8889,-6.8889,-6.8889,-6.8889,-6.8889,-6.8889,-6.8889,-6.8889,-6.8889,-6.8889,-6.8889,-6.8889,-6.8889,-6.8889,-6.8889,-6.8889,-6.8858,-6.8705,-6.8321,-6.7934,-6.7574,-6.7095,-6.6763,-6.661,-6.6251,-6.5832,-6.5233,-6.4605,-6.3887,-6.3288,-6.3196,-6.3137,-6.3137,-6.3137,-6.3137,-6.3137,-6.3137,-6.3137,-6.3137,-6.3137,-6.3137,-6.3137,-6.3137,-6.3137,-6.3137,-6.3137,-6.3137,-7.7139,-7.7016,-7.7016,-7.7016,-7.7016,-7.7016,-7.7016,-7.7016,-7.6985,-7.6892,-7.6985,-7.6985,-7.6677,-7.6215,-7.6184,-7.5846,-7.5169,-7.4522,-7.3845,-7.3229,-7.3106,-7.2983,-7.2983,-7.2983,-7.2983,-7.2983,-7.2983,-7.3045,-7.3107,-7.3169,-7.3293,-7.3539,-7.3601,-7.3692,-7.3844,-7.3844,-7.3905,-7.3966,-7.4026,-7.4026,-7.4147,-7.4087,-7.3966,-7.3966,-7.3692,-7.3601,-7.3416,-7.3231,-7.3107,-7.3107,-7.3045,-7.2983,-7.2983,-7.2983,-7.2983,-7.2983,-7.2983,-7.2983,-7.2952,-7.2768,-7.2214,-7.1105,-7.0736,-7.0182,-6.9012,-6.8889,-6.8889,-6.8889,-6.8889,-6.8889,-6.8889,-6.8889,-6.8889,-6.8889,-6.8889,-6.8889,-6.8889,-6.8889,-6.8889,-6.8889,-6.8889,-6.8889,-6.8889,-6.8889,-6.8889,-6.8889,-6.8654,-6.8298,-6.7999,-6.7759,-6.7457,-6.7152,-6.6789,-6.6281,-6.5592,-6.4844,-6.3947,-6.3348,-6.3139,-6.3137,-6.3137,-6.3137,-6.3137,-6.3137,-6.3137,-6.3137,-6.3137,-6.3137,-6.3137,-6.3137,-6.3137,-6.3137,-6.3137,-6.3137,-6.3137,-7.7016,-7.7016,-7.7016,-7.7016,-7.6954,-7.6677,-7.6554,-7.6492,-7.6184,-7.6061,-7.6061,-7.6061,-7.5877,-7.5538,-7.5507,-7.5169,-7.4491,-7.3845,-7.3353,-7.3045,-7.2983,-7.2983,-7.2983,-7.2983,-7.2983,-7.2983,-7.2983,-7.2983,-7.2983,-7.2983,-7.3107,-7.3231,-7.3293,-7.3293,-7.3447,-7.3508,-7.357,-7.3692,-7.3692,-7.3753,-7.3844,-7.3753,-7.3631,-7.3508,-7.3355,-7.3262,-7.3231,-7.3107,-7.2983,-7.2983,-7.2983,-7.2983,-7.2983,-7.2983,-7.2983,-7.2983,-7.2983,-7.2983,-7.2983,-7.2922,-7.2521,-7.1475,-7.1105,-7.0367,-6.9536,-6.9105,-6.8889,-6.8889,-6.8889,-6.8889,-6.8889,-6.8889,-6.8889,-6.8889,-6.8889,-6.8889,-6.8889,-6.8889,-6.8889,-6.8889,-6.8889,-6.8889,-6.8889,-6.8889,-6.8889,-6.8889,-6.8889,-6.8595,-6.8238,-6.7999,-6.7669,-6.7365,-6.7121,-6.664,-6.5951,-6.5054,-6.4006,-6.3468,-6.3166,-6.3137,-6.3137,-6.3137,-6.3137,-6.3137,-6.3137,-6.3137,-6.3137,-6.3137,-6.3137,-6.3137,-6.3137,-6.3137,-6.3137,-6.3137,-6.3137,-7.7016,-7.7016,-7.6923,-7.6862,-7.6739,-7.6154,-7.5846,-7.5784,-7.5261,-7.5169,-7.5015,-7.5015,-7.5107,-7.4861,-7.4861,-7.4461,-7.3845,-7.3383,-7.3014,-7.3014,-7.2983,-7.2983,-7.2983,-7.2983,-7.2983,-7.2983,-7.2983,-7.2983,-7.2983,-7.2983,-7.3045,-7.2983,-7.2983,-7.3045,-7.3045,-7.3045,-7.3169,-7.3355,-7.3416,-7.3478,-7.3631,-7.3508,-7.3293,-7.3107,-7.3045,-7.3045,-7.3045,-7.2983,-7.2983,-7.2983,-7.2983,-7.2983,-7.2983,-7.2983,-7.2983,-7.2983,-7.2983,-7.2983,-7.2983,-7.2922,-7.2614,-7.1937,-7.129,-7.0521,-6.9782,-6.9197,-6.8951,-6.8889,-6.8889,-6.8889,-6.8889,-6.8889,-6.8889,-6.8889,-6.8889,-6.8889,-6.8889,-6.8889,-6.8889,-6.8889,-6.8889,-6.8889,-6.8889,-6.8889,-6.8889,-6.8889,-6.8889,-6.883,-6.8476,-6.8179,-6.7879,-6.7608,-6.7304,-6.6491,-6.5712,-6.5323,-6.4246,-6.3438,-6.3137,-6.3137,-6.3137,-6.3137,-6.3137,-6.3137,-6.3137,-6.3137,-6.3137,-6.3137,-6.3137,-6.3137,-6.3137,-6.3137,-6.3137,-6.3137,-6.3107,-7.7016,-7.6985,-7.64,-7.6184,-7.6061,-7.5446,-7.5169,-7.5169,-7.4984,-7.4984,-7.4953,-7.4984,-7.4584,-7.4276,-7.4153,-7.3783,-7.3291,-7.3045,-7.2983,-7.2983,-7.2983,-7.2983,-7.2983,-7.2983,-7.2983,-7.2983,-7.2983,-7.2983,-7.2983,-7.2983,-7.2983,-7.2983,-7.2983,-7.2983,-7.2983,-7.2983,-7.3045,-7.3107,-7.3107,-7.3169,-7.3231,-7.3169,-7.3107,-7.2983,-7.2983,-7.2983,-7.2983,-7.2983,-7.2983,-7.2983,-7.2983,-7.2983,-7.2983,-7.2983,-7.2983,-7.2983,-7.2983,-7.2983,-7.2983,-7.2983,-7.2306,-7.1444,-7.0982,-7.0305,-6.9474,-6.8982,-6.892,-6.8889,-6.8889,-6.8889,-6.8889,-6.8889,-6.8889,-6.8889,-6.8889,-6.8889,-6.8889,-6.8889,-6.8889,-6.8889,-6.8889,-6.8889,-6.8889,-6.8889,-6.8889,-6.8889,-6.8889,-6.883,-6.8595,-6.8358,-6.8119,-6.7759,-6.7487,-6.6463,-6.5413,-6.5144,-6.4545,-6.3498,-6.3137,-6.3137,-6.3137,-6.3137,-6.3137,-6.3137,-6.3137,-6.3137,-6.3137,-6.3137,-6.3137,-6.3137,-6.3137,-6.3137,-6.2929,-6.281,-6.281,-7.68,-7.6461,-7.6154,-7.5815,-7.5415,-7.4769,-7.4491,-7.443,-7.4122,-7.3968,-7.3937,-7.3937,-7.3783,-7.3537,-7.3476,-7.326,-7.3076,-7.2983,-7.2983,-7.2983,-7.2983,-7.2983,-7.2983,-7.2983,-7.2983,-7.2983,-7.2983,-7.2983,-7.2983,-7.2983,-7.2983,-7.2983,-7.2983,-7.2983,-7.2983,-7.2983,-7.2983,-7.2983,-7.2983,-7.2983,-7.2983,-7.2983,-7.2983,-7.2983,-7.2983,-7.2983,-7.2983,-7.2983,-7.2983,-7.2983,-7.2983,-7.2983,-7.2983,-7.2983,-7.2983,-7.2983,-7.2983,-7.2983,-7.2983,-7.2952,-7.2491,-7.1629,-7.1136,-7.0459,-6.9628,-6.9166,-6.892,-6.8889,-6.8889,-6.8889,-6.8889,-6.8889,-6.8889,-6.8889,-6.8889,-6.8889,-6.8889,-6.8889,-6.8889,-6.8889,-6.8889,-6.8889,-6.8889,-6.8889,-6.8889,-6.8889,-6.8889,-6.8772,-6.8654,-6.8476,-6.8298,-6.7999,-6.7578,-6.6523,-6.5473,-6.5054,-6.4545,-6.3588,-6.3137,-6.3137,-6.3137,-6.3137,-6.3137,-6.3137,-6.3137,-6.3137,-6.3137,-6.3137,-6.3137,-6.3137,-6.3137,-6.3047,-6.269,-6.254,-6.26,-7.6492,-7.6,-7.5723,-7.5292,-7.4738,-7.4061,-7.3783,-7.366,-7.326,-7.3076,-7.2983,-7.3014,-7.3045,-7.3014,-7.3014,-7.2983,-7.2983,-7.2983,-7.2983,-7.2983,-7.2983,-7.2983,-7.2983,-7.2983,-7.2983,-7.2983,-7.2983,-7.2983,-7.2983,-7.2983,-7.2983,-7.2983,-7.2983,-7.2983,-7.2983,-7.2983,-7.2983,-7.2983,-7.2983,-7.2983,-7.2983,-7.2983,-7.2983,-7.2983,-7.2983,-7.2983,-7.2983,-7.2983,-7.2983,-7.2983,-7.2983,-7.2983,-7.2983,-7.2983,-7.2983,-7.2983,-7.2983,-7.2983,-7.2983,-7.2983,-7.2583,-7.1598,-7.1198,-7.0521,-6.9751,-6.9105,-6.8889,-6.8889,-6.8889,-6.8889,-6.8889,-6.8889,-6.8889,-6.8889,-6.8889,-6.8889,-6.8889,-6.8889,-6.8889,-6.8889,-6.8889,-6.8889,-6.8889,-6.8889,-6.8889,-6.8889,-6.8889,-6.8889,-6.8772,-6.8654,-6.8476,-6.8179,-6.7607,-6.6583,-6.5712,-6.5114,-6.4395,-6.3378,-6.3166,-6.3137,-6.3137,-6.3137,-6.3137,-6.3137,-6.3137,-6.3137,-6.3137,-6.3137,-6.3137,-6.3137,-6.3137,-6.2989,-6.281,-6.266,-6.266,-7.6092,-7.5877,-7.4707,-7.4184,-7.403,-7.3414,-7.3137,-7.3137,-7.3045,-7.2983,-7.2983,-7.2983,-7.2983,-7.2983,-7.2983,-7.2983,-7.2983,-7.2983,-7.2983,-7.2983,-7.2983,-7.2983,-7.2983,-7.2983,-7.2983,-7.2983,-7.2983,-7.2983,-7.2983,-7.2983,-7.2983,-7.2983,-7.2983,-7.2983,-7.2983,-7.2983,-7.2983,-7.2983,-7.2983,-7.2983,-7.2983,-7.2983,-7.2983,-7.2983,-7.2983,-7.2983,-7.2983,-7.2983,-7.2983,-7.2983,-7.2983,-7.2983,-7.2983,-7.2983,-7.2983,-7.2983,-7.2983,-7.2983,-7.2983,-7.2983,-7.2398,-7.1475,-7.0952,-7.0213,-6.9474,-6.9043,-6.8889,-6.8889,-6.8889,-6.8889,-6.8889,-6.8889,-6.8889,-6.8889,-6.8889,-6.8889,-6.8889,-6.8889,-6.8889,-6.8889,-6.8889,-6.8889,-6.8889,-6.8889,-6.8889,-6.8889,-6.8889,-6.8889,-6.8889,-6.8772,-6.8595,-6.8298,-6.7605,-6.6642,-6.5622,-6.5053,-6.4246,-6.3228,-6.3166,-6.3137,-6.3137,-6.3137,-6.3137,-6.3137,-6.3137,-6.3137,-6.3137,-6.3137,-6.3137,-6.3137,-6.3137,-6.3079,-6.3049,-6.2899,-6.263,-7.4412,-7.4574,-7.4182,-7.3753,-7.3414,-7.3106,-7.2983,-7.2983,-7.2983,-7.2983,-7.2983,-7.2983,-7.2983,-7.2983,-7.2983,-7.2983,-7.2983,-7.2983,-7.2983,-7.2983,-7.2983,-7.2983,-7.2983,-7.2983,-7.2983,-7.2983,-7.2983,-7.2983,-7.2983,-7.2983,-7.2983,-7.2983,-7.2983,-7.2983,-7.2983,-7.2983,-7.2983,-7.2983,-7.2983,-7.2983,-7.2983,-7.2983,-7.2983,-7.2983,-7.2983,-7.2983,-7.2983,-7.2983,-7.2983,-7.2983,-7.2983,-7.2983,-7.2983,-7.2983,-7.2983,-7.2983,-7.2983,-7.2983,-7.2983,-7.2983,-7.2183,-7.129,-7.0798,-7.0274,-6.9259,-6.8889,-6.8889,-6.8889,-6.8889,-6.8889,-6.8889,-6.8889,-6.8889,-6.8889,-6.8889,-6.8889,-6.8889,-6.8889,-6.8889,-6.8889,-6.8889,-6.8889,-6.8889,-6.8889,-6.8889,-6.8889,-6.8889,-6.8889,-6.8889,-6.8889,-6.8654,-6.8358,-6.7544,-6.67,-6.571,-6.4872,-6.4066,-6.3288,-6.3166,-6.3137,-6.3137,-6.3137,-6.3137,-6.3137,-6.3137,-6.3137,-6.3137,-6.3137,-6.3137,-6.3137,-6.3137,-6.2989,-6.2899,-6.257,-6.2391,-7.2922,-7.3026,-7.3374,-7.3257,-7.2859,-7.2859,-7.2921,-7.2983,-7.2983,-7.2983,-7.2983,-7.2983,-7.2983,-7.2983,-7.2983,-7.2983,-7.2983,-7.2983,-7.2983,-7.2983,-7.2983,-7.2983,-7.2983,-7.2983,-7.2983,-7.2983,-7.2983,-7.2983,-7.2983,-7.2983,-7.2983,-7.2983,-7.2983,-7.2983,-7.2983,-7.2983,-7.2983,-7.2983,-7.2983,-7.2983,-7.2983,-7.2983,-7.2983,-7.2983,-7.2983,-7.2983,-7.2983,-7.2983,-7.2983,-7.2983,-7.2983,-7.2983,-7.2983,-7.2983,-7.2983,-7.2983,-7.2983,-7.2983,-7.2922,-7.2737,-7.206,-7.1259,-7.0428,-6.9813,-6.9166,-6.8889,-6.8889,-6.8889,-6.8889,-6.8889,-6.8889,-6.8889,-6.8889,-6.8889,-6.8889,-6.8889,-6.8889,-6.8889,-6.8889,-6.8889,-6.8889,-6.8889,-6.8889,-6.8889,-6.8889,-6.8889,-6.8889,-6.8889,-6.8889,-6.8889,-6.8529,-6.8172,-6.751,-6.6518,-6.5377,-6.448,-6.3794,-6.3348,-6.3169,-6.3137,-6.3137,-6.3137,-6.3137,-6.3137,-6.3137,-6.3137,-6.3137,-6.3137,-6.3137,-6.3137,-6.3107,-6.2839,-6.266,-6.2391,-6.2361,-7.2103,-7.156,-7.2004,-7.2355,-7.2546,-7.2546,-7.2734,-7.2983,-7.2983,-7.2983,-7.2983,-7.2983,-7.2983,-7.2983,-7.2983,-7.2983,-7.2983,-7.2983,-7.2983,-7.2983,-7.2983,-7.2983,-7.2983,-7.2983,-7.2983,-7.2983,-7.2983,-7.2983,-7.2983,-7.2983,-7.2983,-7.2983,-7.2983,-7.2983,-7.2983,-7.2983,-7.2983,-7.2983,-7.2983,-7.2983,-7.2983,-7.2983,-7.2983,-7.2983,-7.2983,-7.2983,-7.2983,-7.2983,-7.2983,-7.2983,-7.2983,-7.2983,-7.2983,-7.2983,-7.2983,-7.2983,-7.2983,-7.2983,-7.2922,-7.246,-7.169,-7.0798,-6.9936,-6.9228,-6.8951,-6.8889,-6.8889,-6.8889,-6.8889,-6.8889,-6.8889,-6.8889,-6.8889,-6.8889,-6.8889,-6.8889,-6.8889,-6.8889,-6.8889,-6.8889,-6.8889,-6.8889,-6.8889,-6.8889,-6.8889,-6.8889,-6.8889,-6.8889,-6.8889,-6.8858,-6.8341,-6.7834,-6.7326,-6.6304,-6.4953,-6.4118,-6.3556,-6.3288,-6.3166,-6.3137,-6.3137,-6.3137,-6.3137,-6.3137,-6.3137,-6.3137,-6.3137,-6.3137,-6.3137,-6.3137,-6.3077,-6.2899,-6.2869,-6.278,-6.278,-7.1323,-7.1113,-7.15,-7.1947,-7.2546,-7.2734,-7.2859,-7.2983,-7.2983,-7.2983,-7.2983,-7.2983,-7.2983,-7.2983,-7.2983,-7.2983,-7.2983,-7.2983,-7.2983,-7.2983,-7.2983,-7.2983,-7.2983,-7.2983,-7.2983,-7.2983,-7.2983,-7.2983,-7.2983,-7.2983,-7.2983,-7.2983,-7.2983,-7.2983,-7.2983,-7.2983,-7.2983,-7.2983,-7.2983,-7.2983,-7.2983,-7.2983,-7.2983,-7.2983,-7.2983,-7.2983,-7.2983,-7.2983,-7.2983,-7.2983,-7.2983,-7.2983,-7.2983,-7.2983,-7.2983,-7.2983,-7.2983,-7.2983,-7.286,-7.2306,-7.1475,-7.0336,-6.9474,-6.8889,-6.8889,-6.8889,-6.8889,-6.8889,-6.8889,-6.8889,-6.8889,-6.8889,-6.8889,-6.8889,-6.8889,-6.8889,-6.8889,-6.8889,-6.8889,-6.8889,-6.8889,-6.8889,-6.8889,-6.8889,-6.8889,-6.8889,-6.8889,-6.8889,-6.8889,-6.8705,-6.8188,-6.7433,-6.6866,-6.6088,-6.4767,-6.4056,-6.3436,-6.3228,-6.3137,-6.3137,-6.3137,-6.3137,-6.3137,-6.3137,-6.3137,-6.3137,-6.3137,-6.3137,-6.3137,-6.3137,-6.3137,-6.3107,-6.3107,-6.3137,-6.3137,-7.0919,-7.0984,-7.1371,-7.1913,-7.2357,-7.2734,-7.2921,-7.2983,-7.2983,-7.2983,-7.2983,-7.2983,-7.2983,-7.2983,-7.2983,-7.2983,-7.2983,-7.2983,-7.2983,-7.2983,-7.2983,-7.2983,-7.2983,-7.2983,-7.2983,-7.2983,-7.2983,-7.2983,-7.2983,-7.2983,-7.2983,-7.2983,-7.2983,-7.2983,-7.2983,-7.2983,-7.2983,-7.2983,-7.2983,-7.2983,-7.2983,-7.2983,-7.2983,-7.2983,-7.2983,-7.2983,-7.2983,-7.2983,-7.2983,-7.2983,-7.2983,-7.2983,-7.2983,-7.2983,-7.2983,-7.2983,-7.2983,-7.2983,-7.2798,-7.206,-7.1044,-6.9751,-6.9259,-6.892,-6.8889,-6.8889,-6.8889,-6.8889,-6.8889,-6.8889,-6.8889,-6.8889,-6.8889,-6.8889,-6.8889,-6.8889,-6.8889,-6.8889,-6.8889,-6.8889,-6.8889,-6.8889,-6.8889,-6.8889,-6.8889,-6.8889,-6.8889,-6.8858,-6.8828,-6.8551,-6.7973,-6.7157,-6.6318,-6.5478,-6.461,-6.3875,-6.3228,-6.3199,-6.3137,-6.3137,-6.3137,-6.3137,-6.3137,-6.3137,-6.3137,-6.3137,-6.3137,-6.3137,-6.3137,-6.3137,-6.3137,-6.3137,-6.3137,-6.3137,-6.3137,-7.0919,-7.0954,-7.1628,-7.1947,-7.198,-7.2357,-7.2734,-7.2952,-7.2922,-7.286,-7.2768,-7.2798,-7.2798,-7.2798,-7.2737,-7.2798,-7.286,-7.2922,-7.2983,-7.2983,-7.2983,-7.2983,-7.2983,-7.2983,-7.2983,-7.2983,-7.2983,-7.2983,-7.2983,-7.2983,-7.2983,-7.2983,-7.2983,-7.2983,-7.2983,-7.2983,-7.2983,-7.2983,-7.2983,-7.2983,-7.2983,-7.2983,-7.2983,-7.2983,-7.2983,-7.2983,-7.2983,-7.2983,-7.2983,-7.2983,-7.2983,-7.2983,-7.2983,-7.2983,-7.2983,-7.2983,-7.2983,-7.2952,-7.2829,-7.1629,-7.0459,-6.932,-6.8951,-6.892,-6.8889,-6.8889,-6.8889,-6.8889,-6.8889,-6.8889,-6.8889,-6.8889,-6.8889,-6.8889,-6.8889,-6.8889,-6.8889,-6.8889,-6.8889,-6.8889,-6.8889,-6.8889,-6.8889,-6.8889,-6.8889,-6.8889,-6.8889,-6.8858,-6.8828,-6.8369,-6.7819,-6.6943,-6.5982,-6.5055,-6.4223,-6.3607,-6.3166,-6.3137,-6.3137,-6.3137,-6.3137,-6.3137,-6.3137,-6.3137,-6.3137,-6.3137,-6.3137,-6.3137,-6.3137,-6.3137,-6.3137,-6.3137,-6.3137,-6.3137,-6.3137,-7.0919,-7.0924,-7.1174,-7.1309,-7.1433,-7.2425,-7.2921,-7.2891,-7.2521,-7.206,-7.166,-7.1598,-7.1598,-7.1721,-7.2121,-7.2306,-7.2368,-7.2891,-7.2983,-7.2952,-7.2983,-7.2983,-7.2983,-7.2983,-7.2983,-7.2983,-7.2983,-7.2983,-7.2983,-7.2983,-7.2983,-7.2983,-7.2983,-7.2983,-7.2983,-7.2983,-7.2983,-7.2983,-7.2983,-7.2983,-7.2983,-7.2983,-7.2983,-7.2983,-7.2983,-7.2983,-7.2983,-7.2983,-7.2983,-7.2983,-7.2983,-7.2983,-7.2983,-7.2983,-7.2983,-7.2983,-7.2952,-7.2491,-7.1906,-7.0952,-7.0305,-6.9382,-6.8889,-6.8889,-6.8889,-6.8889,-6.8889,-6.8889,-6.8889,-6.8889,-6.8889,-6.8889,-6.8889,-6.8889,-6.8889,-6.8889,-6.8889,-6.8889,-6.8889,-6.8889,-6.8889,-6.8889,-6.8889,-6.8889,-6.8889,-6.8889,-6.8889,-6.8889,-6.8858,-6.8246,-6.7635,-6.6671,-6.5711,-6.4668,-6.3837,-6.3342,-6.3137,-6.3137,-6.3137,-6.3137,-6.3137,-6.3137,-6.3137,-6.3137,-6.3137,-6.3137,-6.3137,-6.3137,-6.3137,-6.3137,-6.3137,-6.3137,-6.3137,-6.3137,-6.3137,-7.047,-7.0265,-7.0353,-7.0486,-7.0734,-7.1752,-7.2275,-7.2183,-7.1783,-7.1321,-7.1013,-7.0921,-7.0952,-7.1075,-7.1352,-7.1598,-7.169,-7.2306,-7.2614,-7.2675,-7.2922,-7.2952,-7.2983,-7.2983,-7.2983,-7.2983,-7.2983,-7.2983,-7.2983,-7.2983,-7.2983,-7.2983,-7.2983,-7.2983,-7.2983,-7.2983,-7.2983,-7.2983,-7.2983,-7.2983,-7.2983,-7.2983,-7.2983,-7.2983,-7.2983,-7.2983,-7.2983,-7.2983,-7.2983,-7.2983,-7.2983,-7.2983,-7.2983,-7.2983,-7.2983,-7.2983,-7.2891,-7.2275,-7.1352,-7.0952,-7.0213,-6.9074,-6.892,-6.8889,-6.8889,-6.8889,-6.8889,-6.8889,-6.8889,-6.8889,-6.8889,-6.8889,-6.8889,-6.8889,-6.8889,-6.8889,-6.8889,-6.8889,-6.8889,-6.8889,-6.8889,-6.8889,-6.8889,-6.8889,-6.8889,-6.8889,-6.8889,-6.8889,-6.8797,-6.8031,-6.7362,-6.6433,-6.5383,-6.4338,-6.3689,-6.3312,-6.3137,-6.3137,-6.3137,-6.3137,-6.3137,-6.3137,-6.3137,-6.3137,-6.3137,-6.3137,-6.3137,-6.3137,-6.3137,-6.3137,-6.3137,-6.3137,-6.3137,-6.3137,-6.3137,-6.9572,-6.9097,-6.9321,-6.9665,-7.0066,-7.0587,-7.0799,-7.089,-7.089,-7.0828,-7.0798,-7.0675,-7.0582,-7.0736,-7.0828,-7.089,-7.1013,-7.1629,-7.1875,-7.2152,-7.2491,-7.2706,-7.2891,-7.2922,-7.2983,-7.2983,-7.2983,-7.2983,-7.2983,-7.2983,-7.2983,-7.2983,-7.2983,-7.2983,-7.2983,-7.2983,-7.2983,-7.2983,-7.2983,-7.2983,-7.2983,-7.2983,-7.2983,-7.2983,-7.2983,-7.2983,-7.2983,-7.2983,-7.2983,-7.2983,-7.2983,-7.2983,-7.2983,-7.2983,-7.2983,-7.2983,-7.2983,-7.2183,-7.1198,-7.0921,-7.0182,-6.9135,-6.892,-6.8889,-6.8889,-6.8889,-6.8889,-6.8889,-6.8889,-6.8889,-6.8889,-6.8889,-6.8889,-6.8889,-6.8889,-6.8889,-6.8889,-6.8889,-6.8889,-6.8889,-6.8889,-6.8889,-6.8889,-6.8889,-6.8889,-6.8889,-6.8889,-6.8889,-6.8612,-6.7658,-6.6936,-6.6199,-6.5119,-6.3981,-6.3481,-6.3194,-6.3137,-6.3137,-6.3137,-6.3137,-6.3137,-6.3137,-6.3137,-6.3137,-6.3137,-6.3137,-6.3137,-6.3137,-6.3137,-6.3137,-6.3137,-6.3137,-6.3137,-6.3137,-6.3137,-6.9183,-6.9007,-6.884,-6.8876,-6.8939,-6.9061,-6.9482,-7.0151,-7.0182,-6.9967,-6.9474,-6.9474,-6.9597,-6.9505,-6.9936,-7.0151,-7.0459,-7.0798,-7.1105,-7.1475,-7.1937,-7.2152,-7.2429,-7.2675,-7.2891,-7.2952,-7.2952,-7.2983,-7.2983,-7.2983,-7.2983,-7.2983,-7.2983,-7.2983,-7.2983,-7.2983,-7.2983,-7.2983,-7.2983,-7.2983,-7.2983,-7.2983,-7.2983,-7.2983,-7.2983,-7.2983,-7.2983,-7.2983,-7.2983,-7.2983,-7.2983,-7.2983,-7.2983,-7.2983,-7.2983,-7.2983,-7.286,-7.2398,-7.1229,-7.089,-7.0305,-6.9228,-6.892,-6.8889,-6.8889,-6.8889,-6.8889,-6.8889,-6.8889,-6.8889,-6.8889,-6.8889,-6.8889,-6.8889,-6.8889,-6.8889,-6.8889,-6.8889,-6.8889,-6.8889,-6.8889,-6.8889,-6.8889,-6.8889,-6.8889,-6.8889,-6.8889,-6.8889,-6.852,-6.7566,-6.6725,-6.6019,-6.4998,-6.3887,-6.3424,-6.3137,-6.3137,-6.3137,-6.3137,-6.3137,-6.3137,-6.3137,-6.3137,-6.3137,-6.3137,-6.3137,-6.3137,-6.3137,-6.3137,-6.3137,-6.3137,-6.3137,-6.3137,-6.3137,-6.3137,-6.8435,-6.8166,-6.8024,-6.7967,-6.8121,-6.8182,-6.8632,-6.9117,-6.9386,-6.9228,-6.892,-6.892,-6.8889,-6.9012,-6.9351,-6.9505,-6.9566,-7.0151,-7.0521,-7.0675,-7.1229,-7.1444,-7.1783,-7.2214,-7.246,-7.2645,-7.286,-7.2983,-7.2983,-7.2983,-7.2983,-7.2983,-7.2983,-7.2983,-7.2983,-7.2983,-7.2983,-7.2983,-7.2983,-7.2983,-7.2983,-7.2983,-7.2983,-7.2983,-7.2983,-7.2983,-7.2983,-7.2983,-7.2983,-7.2983,-7.2983,-7.2983,-7.2983,-7.2983,-7.2983,-7.2983,-7.2952,-7.2244,-7.1198,-7.089,-7.012,-6.932,-6.8889,-6.8889,-6.8889,-6.8889,-6.8889,-6.8889,-6.8889,-6.8889,-6.8889,-6.8889,-6.8889,-6.8889,-6.8889,-6.8889,-6.8889,-6.8889,-6.8889,-6.8889,-6.8889,-6.8889,-6.8889,-6.8889,-6.8889,-6.8889,-6.8889,-6.8889,-6.8458,-6.7627,-6.679,-6.6022,-6.4907,-6.3823,-6.3424,-6.3137,-6.3137,-6.3137,-6.3137,-6.3137,-6.3137,-6.3137,-6.3137,-6.3137,-6.3137,-6.3137,-6.3137,-6.3137,-6.3137,-6.3137,-6.3137,-6.3137,-6.3137,-6.3137,-6.3137,-6.7537,-6.7059,-6.6999,-6.7212,-6.7487,-6.7789,-6.8,-6.803,-6.8597,-6.883,-6.883,-6.8889,-6.8889,-6.892,-6.9043,-6.9043,-6.9166,-6.9597,-6.9813,-6.9874,-7.0521,-7.0828,-7.1044,-7.1506,-7.1937,-7.2183,-7.246,-7.2798,-7.2952,-7.2983,-7.2983,-7.2983,-7.2983,-7.2983,-7.2983,-7.2983,-7.2983,-7.2983,-7.2983,-7.2983,-7.2983,-7.2983,-7.2983,-7.2983,-7.2983,-7.2983,-7.2983,-7.2983,-7.2983,-7.2983,-7.2983,-7.2983,-7.2983,-7.2983,-7.2983,-7.2891,-7.2829,-7.206,-7.1198,-7.0767,-7.0028,-6.9351,-6.8889,-6.8889,-6.8889,-6.8889,-6.8889,-6.8889,-6.8889,-6.8889,-6.8889,-6.8889,-6.8889,-6.8889,-6.8889,-6.8889,-6.8889,-6.8889,-6.8889,-6.8889,-6.8889,-6.8889,-6.8889,-6.8889,-6.8889,-6.8889,-6.8889,-6.8889,-6.8246,-6.7508,-6.6732,-6.5933,-6.4759,-6.374,-6.3367,-6.3137,-6.3137,-6.3137,-6.3137,-6.3137,-6.3137,-6.3137,-6.3137,-6.3137,-6.3137,-6.3137,-6.3137,-6.3137,-6.3137,-6.3137,-6.3137,-6.3137,-6.3137,-6.3137,-6.3137,-6.7148,-6.6999,-6.6999,-6.706,-6.7182,-6.7487,-6.7608,-6.7669,-6.803,-6.8358,-6.8505,-6.8772,-6.8889,-6.8889,-6.8889,-6.8889,-6.8982,-6.9105,-6.9105,-6.9382,-6.9874,-7.012,-7.0274,-7.0828,-7.1352,-7.1875,-7.2214,-7.2521,-7.2891,-7.2983,-7.2983,-7.2983,-7.2983,-7.2983,-7.2983,-7.2983,-7.2983,-7.2983,-7.2983,-7.2983,-7.2983,-7.2983,-7.2983,-7.2983,-7.2983,-7.2983,-7.2983,-7.2983,-7.2983,-7.2983,-7.2983,-7.2983,-7.2983,-7.2983,-7.2983,-7.2922,-7.2552,-7.1813,-7.1105,-7.049,-6.9751,-6.9259,-6.8889,-6.8889,-6.8889,-6.8889,-6.8889,-6.8889,-6.8889,-6.8889,-6.8889,-6.8889,-6.8889,-6.8889,-6.8889,-6.8889,-6.8889,-6.8889,-6.8889,-6.8889,-6.8889,-6.8889,-6.8889,-6.8889,-6.8889,-6.8889,-6.8889,-6.8735,-6.7942,-6.7151,-6.6433,-6.5572,-6.4435,-6.3541,-6.3282,-6.3137,-6.3137,-6.3137,-6.3137,-6.3137,-6.3137,-6.3137,-6.3137,-6.3137,-6.3137,-6.3137,-6.3137,-6.3137,-6.3137,-6.3137,-6.3137,-6.3137,-6.3137,-6.3137,-6.3137,-6.6999,-6.6999,-6.6999,-6.6999,-6.706,-6.7182,-6.7274,-6.7365,-6.7669,-6.7819,-6.8059,-6.8476,-6.8713,-6.8713,-6.883,-6.8889,-6.8889,-6.8889,-6.8951,-6.9074,-6.9228,-6.9382,-6.972,-7.0151,-7.049,-7.1044,-7.1813,-7.2306,-7.2829,-7.2983,-7.2983,-7.2983,-7.2983,-7.2983,-7.2983,-7.2983,-7.2983,-7.2983,-7.2983,-7.2983,-7.2983,-7.2983,-7.2983,-7.2983,-7.2983,-7.2983,-7.2983,-7.2983,-7.2983,-7.2983,-7.2983,-7.2983,-7.2983,-7.2983,-7.2983,-7.2798,-7.2368,-7.166,-7.0921,-7.0213,-6.9566,-6.9105,-6.8889,-6.8889,-6.8889,-6.8889,-6.8889,-6.8889,-6.8889,-6.8889,-6.8889,-6.8889,-6.8889,-6.8889,-6.8889,-6.8889,-6.8889,-6.8889,-6.8889,-6.8889,-6.8889,-6.8889,-6.8889,-6.8889,-6.8889,-6.8797,-6.8797,-6.8372,-6.7611,-6.6702,-6.6016,-6.5213,-6.4136,-6.3514,-6.3224,-6.3137,-6.3137,-6.3137,-6.3137,-6.3137,-6.3137,-6.3137,-6.3137,-6.3137,-6.3137,-6.3137,-6.3137,-6.3137,-6.3137,-6.3137,-6.3137,-6.3137,-6.3137,-6.3137,-6.3137,-6.6999,-6.6999,-6.6999,-6.6999,-6.6999,-6.6999,-6.6999,-6.706,-6.7304,-6.7426,-6.7548,-6.8059,-6.8268,-6.8476,-6.8654,-6.8772,-6.8889,-6.8889,-6.8889,-6.8889,-6.892,-6.9043,-6.9228,-6.9474,-6.9874,-7.0521,-7.1383,-7.2091,-7.2706,-7.286,-7.2983,-7.2983,-7.2983,-7.2983,-7.2983,-7.2983,-7.2983,-7.2983,-7.2983,-7.2983,-7.2983,-7.2983,-7.2983,-7.2983,-7.2983,-7.2983,-7.2983,-7.2983,-7.2983,-7.2983,-7.2983,-7.2983,-7.2983,-7.2983,-7.2829,-7.2614,-7.206,-7.1383,-7.0736,-6.9997,-6.9443,-6.9043,-6.8951,-6.8889,-6.8889,-6.8889,-6.8889,-6.8889,-6.8889,-6.8889,-6.8889,-6.8889,-6.8889,-6.8889,-6.8889,-6.8889,-6.8889,-6.8889,-6.8889,-6.8889,-6.8889,-6.8889,-6.8889,-6.8889,-6.8828,-6.8735,-6.84,-6.7856,-6.7249,-6.6165,-6.5326,-6.4674,-6.3812,-6.3369,-6.3137,-6.3137,-6.3137,-6.3137,-6.3137,-6.3137,-6.3137,-6.3137,-6.3137,-6.3137,-6.3137,-6.3137,-6.3137,-6.3137,-6.3137,-6.3137,-6.3137,-6.3137,-6.3137,-6.3137,-6.3137,-6.6999,-6.6999,-6.6999,-6.6999,-6.6999,-6.6999,-6.6999,-6.6999,-6.706,-6.7121,-6.7243,-6.7487,-6.7789,-6.809,-6.8358,-6.8535,-6.8535,-6.8713,-6.8889,-6.8889,-6.883,-6.8889,-6.8951,-6.9135,-6.9443,-7.0182,-7.1075,-7.1875,-7.2183,-7.2614,-7.2922,-7.2829,-7.286,-7.2891,-7.2922,-7.286,-7.2768,-7.2737,-7.2829,-7.2829,-7.286,-7.2891,-7.2983,-7.2983,-7.2983,-7.2983,-7.2983,-7.2983,-7.2983,-7.2983,-7.2983,-7.2983,-7.2952,-7.2891,-7.2645,-7.2214,-7.1629,-7.0921,-7.0244,-6.9628,-6.9074,-6.8982,-6.8889,-6.8889,-6.8889,-6.8889,-6.8889,-6.8889,-6.8889,-6.8889,-6.8889,-6.8889,-6.8889,-6.8889,-6.8889,-6.8889,-6.8889,-6.8889,-6.8889,-6.8889,-6.8889,-6.8889,-6.8889,-6.8889,-6.8889,-6.8674,-6.8212,-6.7638,-6.6766,-6.5715,-6.4637,-6.4048,-6.3429,-6.3312,-6.3137,-6.3137,-6.3137,-6.3137,-6.3137,-6.3137,-6.3137,-6.3137,-6.3137,-6.3137,-6.3137,-6.3137,-6.3137,-6.3137,-6.3137,-6.3137,-6.3137,-6.3137,-6.3137,-6.3137,-6.3137]},{"header":{"parameterUnit":"m.s-1","parameterCategory":1,"la1":31.0,"la2":29.5877,"lo1":-88.7671,"lo2":-86.6584,"dy":0.0162,"dx":0.0185,"nx":115,"ny":88,"refTime":"2023-06-12T12:00:00:Z","depth":0,"parameterNumber":3,"parameterNumberName":"V-component_of_WINDS"},"data":[0.0,0.0,0.0,0.0,0.0,0.0,0.0,0.0,0.0,0.0,0.0,0.0,0.0,0.0,0.0,0.0,0.0,0.0,0.0,0.0,0.0,0.0,0.0,0.0,0.0,0.0,0.0,0.0,0.0,0.0,0.0,0.0,0.0,0.0,0.0,0.0,0.0,0.0,0.0,0.0,0.0,0.0,0.0,0.0,0.0,0.0,0.0,0.0,0.0,0.0,0.0,0.0,0.0,0.0,0.0,0.0,0.0,0.0,0.0,0.0,0.0,0.0,0.0,0.0,0.0,0.0,0.0,0.0,0.0,0.0,0.0,0.0,0.0,0.0,0.0,0.0,0.0,0.0,0.0,0.0,0.0,0.0,0.0,0.0,0.0,0.0,0.0,0.0,0.0,0.0,0.0,0.0,0.0,0.0,0.0,0.0,0.0,0.0,0.0,0.0,0.0,0.0,0.0,0.0,0.0,0.0,0.0,0.0,0.0,0.0,0.0,0.0,0.0,0.0,0.0,0.0,0.0,0.0,0.0,0.0,0.0,0.0,0.0,0.0,0.0,0.0,0.0,0.0,0.0,0.0,0.0,0.0,0.0,0.0,0.0,0.0,0.0,0.0,0.0,0.0,0.0,0.0,0.0,0.0,0.0,0.0,0.0,0.0,0.0,0.0,0.0,0.0,0.0,0.0,0.0,0.0,0.0,0.0,0.0,0.0,0.0,0.0,0.0,0.0,0.0,0.0,0.0,0.0,0.0,0.0,0.0,0.0,0.0,0.0,0.0,0.0,0.0,0.0,0.0,0.0,0.0,0.0,0.0,0.0,0.0,0.0,0.0,0.0,0.0,0.0,0.0,0.0,0.0,0.0,0.0,0.0,0.0,0.0,0.0,0.0,0.0,0.0,0.0,0.0,0.0,0.0,0.0,0.0,0.0,0.0,0.0,0.0,0.0,0.0,0.0,0.0,0.0,0.0,0.0,0.0,0.0,0.0,0.0,0.0,0.0,0.0,0.0,0.0,0.0,0.0,0.0,0.0,0.0,0.0,0.0,0.0,0.0,0.0,0.0,0.0,0.0,0.0,0.0,0.0,0.0,0.0,0.0,0.0,0.0,0.0,0.0,0.0,0.0,0.0,0.0,0.0,0.0,0.0,0.0,0.0,0.0,0.0,0.0,0.0,0.0,0.0,0.0,0.0,0.0,0.0,0.0,0.0,0.0,0.0,0.0,0.0,0.0,0.0,0.0,0.0,0.0,0.0,0.0,0.0,0.0,0.0,0.0,0.0,0.0,0.0,0.0,0.0,0.0,0.0,0.0,0.0,0.0,0.0,0.0,0.0,0.0,0.0,0.0,0.0,0.0,0.0,0.0,0.0,0.0,0.0,0.0,0.0,0.0,0.0,0.0,0.0,0.0,0.0,0.0,0.0,0.0,0.0,0.0,0.0,0.0,0.0,0.0,0.0,0.0,0.0,0.0,0.0,0.0,0.0,0.0,0.0,0.0,0.0,0.0,0.0,0.0,0.0,0.0,0.0,0.0,0.0,0.0,0.0,0.0,0.0,0.0,0.0,0.0,0.0,0.0,0.0,0.0,0.0,0.0,0.0,0.0,0.0,0.0,0.0,0.0,0.0,0.0,0.0,0.0,0.0,0.0,0.0,0.0,0.0,0.0,0.0,0.0,0.0,0.0,0.0,0.0,0.0,0.0,0.0,0.0,0.0,0.0,0.0,0.0,0.0,0.0,0.0,0.0,0.0,0.0,0.0,0.0,0.0,0.0,0.0,0.0,0.0,0.0,0.0,0.0,0.0,0.0,0.0,0.0,0.0,0.0,0.0,0.0,0.0,0.0,0.0,0.0,0.0,0.0,0.0,0.0,0.0,0.0,0.0,0.0,0.0,0.0,0.0,0.0,0.0,0.0,0.0,0.0,0.0,0.0,0.0,0.0,0.0,0.0,0.0,0.0,0.0,0.0,0.0,0.0,0.0,0.0,0.0,0.0,0.0,0.0,0.0,0.0,0.0,0.0,0.0,0.0,0.0,0.0,0.0,0.0,0.0,0.0,0.0,0.0,0.0,0.0,0.0,0.0,0.0,0.0,0.0,0.0,0.0,0.0,0.0,0.0,0.0,0.0,0.0,0.0,0.0,0.0,0.0,0.0,0.0,0.0,0.0,0.0,0.0,0.0,0.0,0.0,0.0,0.0,0.0,0.0,0.0,0.0,0.0,0.0,0.0,0.0,0.0,0.0,0.0,0.0,0.0,0.0,0.0,0.0,0.0,0.0,0.0,0.0,0.0,0.0,0.0,0.0,0.0,0.0,0.0,0.0,0.0,0.0,0.0,0.0,0.0,0.0,0.0,0.0,0.0,0.0,0.0,0.0,0.0,0.0,0.0,0.0,0.0,0.0,0.0,0.0,0.0,0.0,0.0,0.0,0.0,0.0,0.0,0.0,0.0,0.0,0.0,0.0,0.0,0.0,0.0,0.0,0.0,0.0,0.0,0.0,0.0,0.0,0.0,0.0,0.0,0.0,0.0,0.0,0.0,0.0,0.0,0.0,0.0,0.0,0.0,0.0,0.0,0.0,0.0,0.0,0.0,0.0,0.0,0.0,0.0,0.0,0.0,0.0,0.0,0.0,0.0,0.0,0.0,0.0,0.0,0.0,0.0,0.0,0.0,0.0,0.0,0.0,0.0,0.0,0.0,0.0,0.0,0.0,0.0,0.0,0.0,0.0,0.0,0.0,0.0,0.0,0.0,0.0,0.0,0.0,0.0,0.0,0.0,0.0,0.0,0.0,0.0,0.0,0.0,0.0,0.0,0.0,0.0,0.0,0.0,0.0,0.0,0.0,0.0,0.0,0.0,0.0,0.0,0.0,0.0,0.0,0.0,0.0,0.0,0.0,0.0,0.0,0.0,0.0,0.0,0.0,0.0,0.0,0.0,0.0,0.0,0.0,0.0,0.0,0.0,0.0,0.0,0.0,0.0,0.0,0.0,0.0,0.0,0.0,0.0,0.0,0.0,0.0,0.0,0.0,0.0,0.0,0.0,0.0,0.0,0.0,0.0,0.0,0.0,0.0,0.0,0.0,0.0,0.0,0.0,0.0,0.0,0.0,0.0,0.0,0.0,0.0,0.0,0.0,0.0,0.0,0.0,0.0,0.0,0.0,0.0,0.0,0.0,0.0,0.0,0.0,0.0,0.0,0.0,0.0,0.0,0.0,0.0,0.0,0.0,0.0,0.0,0.0,0.0,0.0,0.0,0.0,0.0,0.0,0.0,0.0,0.0,0.0,0.0,0.0,0.0,0.0,0.0,0.0,0.0,0.0,0.0,0.0,0.0,0.0,0.0,0.0,0.0,0.0,0.0,0.0,0.0,0.0,0.0,0.0,0.0,0.0,0.0,0.0,0.0,0.0,0.0,0.0,0.0,0.0,0.0,0.0,0.0,0.0,0.0,0.0,0.0,0.0,0.0,0.0,0.0,0.0,0.0,0.0,0.0,0.0,0.0,0.0,0.0,0.0,0.0,0.0,0.0,0.0,0.0,0.0,0.0,0.0,0.0,0.0,0.0,0.0,0.0,0.0,0.0,0.0,0.0,0.0,0.0,0.0,0.0,0.0,0.0,0.0,0.0,0.0,0.0,0.0,0.0,0.0,0.0,0.0,0.0,0.0,0.0,0.0,0.0,0.0,0.0,0.0,0.0,0.0,0.0,0.0,0.0,0.0,0.0,0.0,0.0,0.0,0.0,0.0,0.0,0.0,0.0,0.0,0.0,0.0,0.0,0.0,0.0,0.0,0.0,0.0,0.0,0.0,0.0,0.0,0.0,0.0,0.0,0.0,0.0,0.0,0.0,0.0,0.0,0.0,0.0,0.0,0.0,0.0,0.0,0.0,0.0,0.0,0.0,0.0,0.0,0.0,0.0,0.0,0.0,0.0,0.0,0.0,0.0,0.0,0.0,0.0,0.0,0.0,0.0,0.0,0.0,0.0,0.0,0.0,0.0,0.0,0.0,0.0,0.0,0.0,0.0,0.0,0.0,0.0,0.0,0.0,0.0,0.0,0.0,0.0,0.0,0.0,0.0,0.0,0.0,0.0,0.0,0.0,0.0,0.0,0.0,0.0,0.0,0.0,0.0,0.0,0.0,0.0,0.0,0.0,0.0,0.0,0.0,0.0,0.0,0.0,0.0,0.0,0.0,0.0,0.0,0.0,0.0,0.0,0.0,0.0,0.0,0.0,0.0,0.0,0.0,0.0,0.0,0.0,0.0,0.0,0.0,0.0,0.0,-2.6591,0.0,0.0,0.0,0.0,0.0,0.0,0.0,0.0,0.0,0.0,0.0,0.0,0.0,0.0,0.0,0.0,0.0,0.0,0.0,0.0,0.0,0.0,0.0,0.0,0.0,0.0,0.0,0.0,0.0,0.0,0.0,0.0,0.0,0.0,0.0,0.0,0.0,0.0,0.0,0.0,0.0,0.0,0.0,0.0,0.0,0.0,0.0,0.0,0.0,0.0,0.0,0.0,0.0,0.0,0.0,0.0,0.0,0.0,0.0,0.0,0.0,0.0,0.0,0.0,0.0,0.0,0.0,0.0,0.0,0.0,0.0,0.0,0.0,0.0,0.0,0.0,0.0,0.0,0.0,0.0,0.0,0.0,0.0,0.0,0.0,0.0,0.0,0.0,0.0,0.0,0.0,0.0,0.0,0.0,0.0,0.0,0.0,0.0,0.0,0.0,0.0,0.0,0.0,0.0,0.0,0.0,0.0,0.0,0.0,0.0,-2.6811,-2.6591,-2.6591,-2.6627,-2.6845,0.0,0.0,0.0,0.0,0.0,0.0,0.0,0.0,0.0,0.0,0.0,0.0,0.0,0.0,0.0,0.0,0.0,0.0,0.0,0.0,0.0,0.0,0.0,0.0,0.0,0.0,0.0,0.0,0.0,0.0,0.0,0.0,0.0,0.0,0.0,0.0,0.0,0.0,0.0,0.0,0.0,0.0,0.0,0.0,0.0,0.0,0.0,0.0,0.0,0.0,0.0,0.0,0.0,0.0,0.0,0.0,0.0,0.0,0.0,0.0,0.0,0.0,0.0,0.0,0.0,0.0,0.0,0.0,0.0,0.0,0.0,0.0,0.0,0.0,0.0,0.0,0.0,0.0,0.0,0.0,0.0,0.0,0.0,0.0,0.0,0.0,0.0,0.0,0.0,0.0,0.0,0.0,0.0,0.0,0.0,0.0,0.0,0.0,0.0,0.0,0.0,0.0,0.0,0.0,0.0,0.0,0.0,0.0,0.0,0.0,0.0,0.0,-2.6846,-2.6899,-2.7098,0.0,0.0,0.0,0.0,0.0,0.0,0.0,0.0,0.0,0.0,0.0,0.0,0.0,0.0,0.0,0.0,0.0,0.0,0.0,0.0,0.0,0.0,0.0,0.0,0.0,0.0,0.0,0.0,0.0,0.0,0.0,0.0,0.0,0.0,0.0,0.0,0.0,0.0,0.0,0.0,0.0,0.0,0.0,0.0,0.0,0.0,0.0,0.0,0.0,0.0,0.0,0.0,0.0,0.0,0.0,0.0,0.0,0.0,0.0,0.0,0.0,0.0,0.0,0.0,0.0,0.0,0.0,0.0,0.0,0.0,0.0,0.0,0.0,0.0,0.0,0.0,0.0,0.0,0.0,0.0,0.0,0.0,0.0,0.0,0.0,0.0,0.0,0.0,0.0,0.0,0.0,0.0,0.0,0.0,0.0,0.0,0.0,0.0,0.0,0.0,0.0,0.0,0.0,0.0,0.0,0.0,0.0,0.0,0.0,0.0,-2.7992,-2.7954,-2.7576,0.0,-2.7368,0.0,0.0,0.0,0.0,0.0,0.0,0.0,0.0,0.0,0.0,0.0,0.0,0.0,0.0,0.0,0.0,0.0,0.0,0.0,0.0,0.0,0.0,0.0,0.0,0.0,0.0,0.0,0.0,0.0,0.0,0.0,0.0,0.0,0.0,0.0,0.0,0.0,0.0,0.0,0.0,0.0,0.0,0.0,0.0,0.0,0.0,0.0,0.0,0.0,0.0,0.0,0.0,0.0,0.0,0.0,0.0,0.0,0.0,0.0,0.0,0.0,0.0,0.0,0.0,0.0,0.0,0.0,0.0,0.0,0.0,0.0,0.0,0.0,0.0,0.0,0.0,0.0,0.0,0.0,0.0,0.0,0.0,0.0,0.0,0.0,0.0,0.0,0.0,0.0,0.0,0.0,0.0,0.0,0.0,0.0,0.0,0.0,0.0,0.0,0.0,0.0,0.0,0.0,0.0,0.0,0.0,0.0,0.0,0.0,0.0,-2.8595,-2.8121,-2.7812,-2.7691,0.0,0.0,0.0,0.0,0.0,0.0,0.0,0.0,0.0,0.0,0.0,0.0,0.0,0.0,0.0,0.0,0.0,0.0,0.0,0.0,0.0,0.0,0.0,0.0,0.0,0.0,0.0,0.0,0.0,0.0,0.0,0.0,0.0,0.0,0.0,0.0,0.0,0.0,0.0,0.0,0.0,0.0,0.0,0.0,0.0,0.0,0.0,0.0,0.0,0.0,0.0,0.0,0.0,0.0,0.0,0.0,0.0,0.0,0.0,0.0,0.0,0.0,0.0,0.0,0.0,0.0,0.0,0.0,0.0,0.0,0.0,0.0,0.0,0.0,0.0,0.0,0.0,0.0,0.0,0.0,0.0,0.0,0.0,0.0,0.0,0.0,0.0,0.0,0.0,0.0,0.0,0.0,0.0,0.0,0.0,0.0,0.0,0.0,0.0,0.0,0.0,0.0,0.0,0.0,0.0,0.0,0.0,0.0,0.0,0.0,-2.9757,-2.9183,-2.8361,-2.8253,-2.813,-2.8014,0.0,0.0,0.0,0.0,0.0,0.0,0.0,0.0,0.0,0.0,0.0,0.0,0.0,0.0,0.0,0.0,0.0,0.0,0.0,0.0,0.0,0.0,0.0,0.0,0.0,0.0,0.0,0.0,0.0,0.0,0.0,0.0,0.0,0.0,0.0,0.0,0.0,0.0,0.0,0.0,0.0,0.0,0.0,0.0,0.0,0.0,0.0,0.0,0.0,0.0,0.0,0.0,0.0,0.0,0.0,0.0,0.0,0.0,0.0,0.0,0.0,0.0,0.0,0.0,0.0,0.0,0.0,0.0,0.0,0.0,0.0,0.0,0.0,0.0,0.0,0.0,0.0,0.0,0.0,0.0,0.0,0.0,0.0,0.0,0.0,0.0,0.0,0.0,0.0,0.0,0.0,0.0,0.0,0.0,0.0,0.0,0.0,0.0,0.0,0.0,0.0,0.0,0.0,0.0,0.0,0.0,0.0,0.0,-3.084,-3.0372,-2.9729,-2.893,-2.8852,-2.8657,0.0,0.0,0.0,0.0,0.0,0.0,0.0,0.0,0.0,0.0,0.0,0.0,0.0,0.0,0.0,0.0,0.0,0.0,0.0,0.0,0.0,0.0,0.0,0.0,0.0,0.0,0.0,0.0,0.0,0.0,0.0,0.0,0.0,0.0,0.0,0.0,0.0,0.0,0.0,0.0,0.0,0.0,0.0,0.0,0.0,0.0,0.0,0.0,0.0,0.0,0.0,0.0,0.0,0.0,0.0,0.0,0.0,0.0,0.0,0.0,0.0,0.0,0.0,0.0,0.0,0.0,0.0,0.0,0.0,0.0,0.0,0.0,0.0,0.0,0.0,0.0,0.0,0.0,0.0,0.0,0.0,0.0,0.0,0.0,0.0,0.0,0.0,0.0,0.0,0.0,0.0,0.0,0.0,0.0,0.0,0.0,0.0,0.0,0.0,0.0,0.0,0.0,0.0,0.0,0.0,0.0,0.0,0.0,0.0,-3.0879,-3.043,-3.0059,-2.9746,-2.9473,-2.9141,0.0,0.0,0.0,0.0,0.0,0.0,0.0,0.0,0.0,0.0,0.0,0.0,0.0,0.0,0.0,0.0,0.0,0.0,0.0,0.0,0.0,0.0,0.0,0.0,0.0,0.0,0.0,0.0,0.0,0.0,0.0,0.0,0.0,0.0,0.0,0.0,0.0,0.0,0.0,0.0,0.0,0.0,0.0,0.0,0.0,0.0,0.0,0.0,0.0,0.0,0.0,0.0,0.0,0.0,0.0,0.0,0.0,0.0,0.0,0.0,0.0,0.0,0.0,0.0,0.0,0.0,0.0,0.0,0.0,0.0,0.0,0.0,0.0,0.0,0.0,0.0,0.0,0.0,0.0,0.0,0.0,0.0,0.0,0.0,0.0,0.0,0.0,0.0,0.0,0.0,0.0,0.0,0.0,0.0,0.0,0.0,0.0,0.0,0.0,0.0,0.0,0.0,0.0,0.0,0.0,0.0,0.0,0.0,0.0,-3.0879,0.0,-3.0351,-3.0195,-2.9922,-2.957,0.0,0.0,0.0,0.0,0.0,0.0,0.0,0.0,0.0,0.0,0.0,0.0,0.0,0.0,0.0,0.0,0.0,0.0,0.0,0.0,0.0,0.0,0.0,0.0,0.0,0.0,0.0,0.0,0.0,0.0,0.0,0.0,0.0,0.0,0.0,0.0,0.0,0.0,0.0,0.0,0.0,0.0,0.0,0.0,0.0,0.0,0.0,0.0,0.0,0.0,0.0,0.0,0.0,0.0,0.0,0.0,0.0,0.0,0.0,0.0,0.0,0.0,0.0,0.0,0.0,0.0,0.0,0.0,0.0,0.0,0.0,0.0,0.0,0.0,0.0,0.0,0.0,0.0,0.0,0.0,0.0,0.0,0.0,0.0,0.0,0.0,0.0,0.0,0.0,0.0,0.0,0.0,0.0,0.0,0.0,0.0,0.0,0.0,0.0,0.0,0.0,0.0,0.0,0.0,0.0,0.0,0.0,0.0,-3.117,-3.0957,-3.0937,-3.0722,-3.0234,-3.0272,-3.0057,0.0,0.0,0.0,0.0,0.0,0.0,0.0,0.0,0.0,0.0,0.0,0.0,0.0,0.0,0.0,0.0,0.0,0.0,0.0,0.0,0.0,0.0,0.0,0.0,0.0,0.0,0.0,0.0,0.0,0.0,0.0,0.0,0.0,0.0,0.0,0.0,0.0,0.0,0.0,0.0,0.0,0.0,0.0,0.0,0.0,0.0,0.0,0.0,0.0,0.0,0.0,0.0,0.0,0.0,0.0,0.0,0.0,0.0,0.0,0.0,0.0,0.0,0.0,0.0,0.0,0.0,0.0,0.0,0.0,0.0,0.0,0.0,0.0,0.0,0.0,0.0,0.0,0.0,0.0,0.0,0.0,0.0,0.0,0.0,0.0,0.0,0.0,0.0,0.0,0.0,0.0,0.0,0.0,0.0,0.0,0.0,0.0,0.0,0.0,0.0,0.0,0.0,0.0,0.0,0.0,0.0,0.0,0.0,0.0,-3.1518,-3.1518,-3.1439,-3.1299,-3.1279,-3.108,0.0,0.0,0.0,0.0,0.0,0.0,0.0,0.0,0.0,0.0,0.0,0.0,0.0,0.0,0.0,0.0,0.0,0.0,0.0,0.0,0.0,0.0,0.0,0.0,0.0,0.0,0.0,0.0,0.0,0.0,0.0,0.0,0.0,0.0,0.0,0.0,0.0,0.0,0.0,0.0,0.0,0.0,0.0,0.0,0.0,0.0,0.0,0.0,0.0,0.0,0.0,0.0,0.0,0.0,0.0,0.0,0.0,0.0,0.0,0.0,0.0,0.0,0.0,0.0,0.0,0.0,0.0,0.0,0.0,0.0,0.0,0.0,0.0,0.0,0.0,0.0,0.0,0.0,0.0,0.0,0.0,0.0,0.0,0.0,0.0,0.0,0.0,0.0,0.0,0.0,0.0,0.0,0.0,0.0,0.0,0.0,0.0,0.0,0.0,0.0,0.0,0.0,0.0,0.0,0.0,0.0,0.0,0.0,0.0,-3.2641,-3.2466,-3.229,-3.2349,-3.2129,-3.1908,-3.1626,0.0,0.0,0.0,0.0,0.0,0.0,0.0,0.0,0.0,0.0,0.0,0.0,0.0,0.0,0.0,0.0,0.0,0.0,0.0,0.0,0.0,0.0,0.0,0.0,0.0,0.0,0.0,0.0,0.0,0.0,0.0,0.0,0.0,0.0,0.0,0.0,0.0,0.0,0.0,0.0,0.0,0.0,0.0,0.0,0.0,0.0,0.0,0.0,0.0,0.0,0.0,0.0,0.0,0.0,0.0,0.0,0.0,0.0,0.0,0.0,0.0,0.0,0.0,0.0,0.0,0.0,0.0,0.0,0.0,0.0,0.0,0.0,0.0,0.0,0.0,0.0,0.0,0.0,0.0,0.0,0.0,0.0,0.0,0.0,0.0,0.0,0.0,0.0,0.0,0.0,0.0,0.0,0.0,0.0,0.0,0.0,0.0,0.0,0.0,0.0,0.0,0.0,0.0,0.0,0.0,0.0,0.0,0.0,-3.4235,-3.3678,-3.3357,-3.3235,-3.2832,-3.2551,0.0,0.0,0.0,0.0,0.0,0.0,0.0,0.0,0.0,0.0,0.0,0.0,0.0,0.0,0.0,0.0,0.0,0.0,0.0,0.0,0.0,0.0,0.0,0.0,0.0,0.0,0.0,0.0,0.0,0.0,0.0,0.0,0.0,0.0,0.0,0.0,0.0,0.0,0.0,0.0,0.0,0.0,0.0,0.0,0.0,0.0,0.0,0.0,0.0,0.0,0.0,0.0,0.0,0.0,0.0,0.0,0.0,0.0,0.0,0.0,0.0,0.0,0.0,0.0,0.0,0.0,0.0,0.0,0.0,0.0,0.0,0.0,0.0,0.0,0.0,0.0,0.0,0.0,0.0,0.0,0.0,0.0,0.0,0.0,0.0,0.0,0.0,0.0,0.0,0.0,0.0,0.0,0.0,0.0,0.0,0.0,0.0,0.0,0.0,0.0,0.0,0.0,0.0,0.0,0.0,0.0,0.0,0.0,0.0,-3.5562,-3.5789,-3.5211,-3.3895,-3.377,-3.3649,0.0,0.0,0.0,0.0,0.0,0.0,0.0,0.0,0.0,0.0,0.0,0.0,0.0,0.0,0.0,0.0,0.0,0.0,0.0,0.0,0.0,0.0,0.0,0.0,0.0,0.0,0.0,0.0,0.0,0.0,0.0,0.0,0.0,0.0,0.0,0.0,0.0,0.0,0.0,0.0,0.0,0.0,0.0,0.0,0.0,0.0,0.0,0.0,0.0,0.0,0.0,0.0,0.0,0.0,0.0,0.0,0.0,0.0,0.0,0.0,0.0,0.0,0.0,0.0,0.0,0.0,0.0,0.0,0.0,0.0,0.0,0.0,0.0,0.0,0.0,0.0,0.0,0.0,0.0,0.0,0.0,0.0,0.0,0.0,0.0,0.0,0.0,0.0,0.0,0.0,0.0,0.0,0.0,0.0,0.0,0.0,0.0,0.0,0.0,0.0,0.0,0.0,0.0,0.0,0.0,0.0,0.0,0.0,-3.5935,-3.639,-3.666,-3.6287,-3.5231,-3.4838,-3.4631,0.0,0.0,0.0,0.0,0.0,0.0,0.0,0.0,0.0,0.0,0.0,0.0,0.0,0.0,0.0,0.0,0.0,0.0,0.0,0.0,0.0,0.0,0.0,0.0,0.0,0.0,0.0,0.0,0.0,0.0,0.0,0.0,0.0,0.0,0.0,0.0,0.0,0.0,0.0,0.0,0.0,0.0,0.0,0.0,0.0,0.0,0.0,0.0,0.0,0.0,0.0,0.0,0.0,0.0,0.0,0.0,0.0,0.0,0.0,0.0,0.0,0.0,0.0,0.0,0.0,0.0,0.0,0.0,0.0,0.0,0.0,0.0,0.0,0.0,0.0,0.0,0.0,0.0,0.0,0.0,0.0,0.0,0.0,0.0,0.0,0.0,0.0,0.0,0.0,0.0,0.0,0.0,0.0,0.0,0.0,0.0,0.0,0.0,0.0,0.0,0.0,0.0,0.0,0.0,0.0,0.0,0.0,0.0,-3.6494,-3.6929,-3.6991,-3.7011,-3.6991,-3.608,-3.5542,0.0,0.0,0.0,0.0,0.0,0.0,0.0,0.0,0.0,0.0,0.0,0.0,0.0,0.0,0.0,0.0,0.0,0.0,0.0,0.0,0.0,0.0,0.0,0.0,0.0,0.0,0.0,0.0,0.0,0.0,0.0,0.0,0.0,0.0,0.0,0.0,0.0,0.0,0.0,0.0,0.0,0.0,0.0,0.0,0.0,0.0,0.0,0.0,0.0,0.0,0.0,0.0,0.0,0.0,0.0,0.0,0.0,0.0,0.0,0.0,0.0,0.0,0.0,0.0,0.0,0.0,0.0,0.0,0.0,0.0,0.0,0.0,0.0,0.0,0.0,0.0,0.0,0.0,0.0,0.0,0.0,0.0,0.0,0.0,0.0,0.0,0.0,0.0,0.0,0.0,0.0,0.0,0.0,0.0,0.0,0.0,0.0,0.0,0.0,0.0,0.0,0.0,0.0,0.0,0.0,0.0,0.0,0.0,-3.7425,-3.7881,-3.8233,-3.8352,-3.8331,-3.7177,-3.6349,0.0,0.0,0.0,0.0,0.0,0.0,0.0,0.0,0.0,0.0,0.0,0.0,0.0,0.0,0.0,0.0,0.0,0.0,0.0,0.0,0.0,0.0,0.0,0.0,0.0,0.0,0.0,0.0,0.0,0.0,0.0,0.0,0.0,0.0,0.0,0.0,0.0,0.0,0.0,0.0,0.0,0.0,0.0,0.0,0.0,0.0,0.0,0.0,-4.1196,0.0,0.0,0.0,0.0,0.0,0.0,0.0,0.0,0.0,0.0,0.0,0.0,0.0,0.0,0.0,0.0,0.0,0.0,0.0,0.0,0.0,0.0,0.0,0.0,0.0,0.0,0.0,0.0,0.0,0.0,0.0,0.0,0.0,0.0,0.0,0.0,0.0,0.0,0.0,0.0,0.0,0.0,0.0,0.0,0.0,0.0,0.0,0.0,0.0,0.0,0.0,0.0,0.0,0.0,0.0,0.0,0.0,0.0,0.0,-3.8046,-3.8481,-3.8869,-3.9164,-3.9075,-3.8253,-3.7343,0.0,0.0,0.0,0.0,0.0,0.0,0.0,0.0,0.0,0.0,0.0,0.0,0.0,0.0,0.0,0.0,0.0,0.0,0.0,0.0,0.0,0.0,0.0,0.0,0.0,0.0,0.0,0.0,0.0,0.0,0.0,0.0,0.0,0.0,0.0,0.0,0.0,0.0,0.0,0.0,0.0,0.0,0.0,0.0,0.0,0.0,0.0,0.0,0.0,0.0,0.0,0.0,0.0,0.0,0.0,0.0,0.0,0.0,0.0,0.0,0.0,0.0,0.0,0.0,0.0,0.0,0.0,0.0,0.0,0.0,0.0,0.0,0.0,0.0,0.0,0.0,0.0,0.0,0.0,0.0,0.0,0.0,0.0,0.0,0.0,0.0,0.0,0.0,0.0,0.0,0.0,0.0,0.0,0.0,0.0,0.0,0.0,0.0,0.0,0.0,0.0,0.0,0.0,0.0,0.0,0.0,0.0,-3.786,-3.8543,-3.8972,-3.9385,-3.9571,-3.964,-3.9185,-3.8403,-3.7118,0.0,0.0,0.0,0.0,0.0,0.0,0.0,0.0,0.0,0.0,0.0,0.0,0.0,0.0,0.0,0.0,0.0,0.0,0.0,0.0,0.0,0.0,0.0,0.0,0.0,0.0,0.0,0.0,0.0,0.0,0.0,0.0,0.0,0.0,0.0,0.0,0.0,0.0,-4.2073,-4.2554,0.0,0.0,0.0,0.0,0.0,0.0,0.0,0.0,-4.3093,0.0,0.0,0.0,0.0,0.0,0.0,0.0,0.0,0.0,0.0,0.0,0.0,0.0,0.0,0.0,0.0,0.0,0.0,0.0,0.0,0.0,0.0,0.0,0.0,0.0,0.0,0.0,0.0,0.0,0.0,0.0,0.0,0.0,0.0,0.0,0.0,0.0,0.0,0.0,0.0,0.0,0.0,0.0,0.0,0.0,0.0,0.0,0.0,0.0,0.0,0.0,0.0,0.0,0.0,0.0,0.0,-3.7943,-3.8481,-3.9075,-3.9992,-4.0005,-4.0046,-4.0096,-3.9938,-3.9432,-3.8426,0.0,0.0,0.0,0.0,0.0,0.0,0.0,0.0,0.0,0.0,0.0,0.0,0.0,0.0,0.0,0.0,0.0,0.0,0.0,0.0,0.0,0.0,0.0,0.0,0.0,0.0,0.0,0.0,0.0,0.0,0.0,0.0,0.0,0.0,0.0,0.0,0.0,0.0,0.0,-4.2771,-4.2819,0.0,0.0,0.0,0.0,0.0,0.0,0.0,0.0,-4.3865,0.0,0.0,0.0,0.0,0.0,0.0,0.0,0.0,0.0,0.0,0.0,0.0,0.0,0.0,0.0,0.0,0.0,0.0,0.0,0.0,0.0,0.0,0.0,0.0,0.0,0.0,0.0,0.0,0.0,0.0,0.0,0.0,0.0,0.0,0.0,0.0,0.0,0.0,0.0,0.0,0.0,0.0,0.0,0.0,0.0,0.0,0.0,0.0,0.0,0.0,0.0,0.0,0.0,0.0,0.0,-3.8769,-3.926,-3.986,-4.0738,-4.1011,-4.1137,-4.1116,-4.0884,-4.0383,0.0,0.0,0.0,0.0,0.0,0.0,0.0,0.0,0.0,0.0,0.0,0.0,0.0,0.0,0.0,0.0,0.0,0.0,0.0,0.0,0.0,0.0,0.0,0.0,0.0,0.0,0.0,0.0,0.0,0.0,0.0,0.0,0.0,0.0,0.0,0.0,0.0,0.0,0.0,0.0,-4.3385,-4.3577,-4.3577,0.0,0.0,0.0,0.0,0.0,0.0,-4.4579,-4.4977,0.0,0.0,0.0,0.0,0.0,0.0,0.0,0.0,0.0,0.0,0.0,0.0,0.0,0.0,0.0,0.0,0.0,0.0,0.0,0.0,0.0,0.0,0.0,0.0,0.0,0.0,0.0,0.0,0.0,0.0,0.0,0.0,0.0,0.0,0.0,0.0,0.0,0.0,0.0,0.0,0.0,0.0,0.0,0.0,0.0,0.0,0.0,0.0,0.0,0.0,0.0,0.0,0.0,0.0,0.0,-3.9529,-4.0066,-4.0763,-4.1571,-4.1954,-4.2146,-4.2146,-4.1769,-4.1327,0.0,0.0,0.0,0.0,0.0,0.0,0.0,0.0,0.0,0.0,0.0,0.0,0.0,0.0,0.0,0.0,0.0,0.0,0.0,0.0,0.0,0.0,0.0,0.0,0.0,0.0,0.0,0.0,0.0,0.0,0.0,0.0,0.0,0.0,0.0,0.0,0.0,0.0,0.0,0.0,0.0,-4.4515,-4.4577,-4.4898,0.0,0.0,0.0,0.0,-4.5773,-4.6005,0.0,0.0,0.0,0.0,0.0,0.0,0.0,0.0,0.0,0.0,0.0,0.0,0.0,0.0,0.0,0.0,0.0,0.0,0.0,0.0,0.0,0.0,0.0,0.0,0.0,0.0,0.0,0.0,0.0,0.0,0.0,0.0,0.0,0.0,0.0,0.0,0.0,0.0,0.0,0.0,0.0,0.0,0.0,0.0,0.0,0.0,0.0,0.0,0.0,0.0,0.0,0.0,0.0,0.0,0.0,0.0,-4.0465,-4.0907,-4.1586,-4.2507,-4.2614,-4.2635,-4.2635,-4.252,-4.1994,0.0,0.0,0.0,0.0,0.0,0.0,0.0,0.0,0.0,0.0,0.0,0.0,0.0,0.0,0.0,0.0,0.0,0.0,0.0,0.0,0.0,0.0,0.0,0.0,0.0,0.0,0.0,0.0,0.0,0.0,0.0,0.0,0.0,0.0,0.0,0.0,0.0,0.0,0.0,0.0,0.0,-4.517,-4.5483,-4.5935,-4.6378,0.0,0.0,-4.7259,-4.7259,-4.733,0.0,0.0,0.0,0.0,0.0,0.0,0.0,0.0,0.0,0.0,0.0,0.0,0.0,0.0,0.0,0.0,0.0,0.0,0.0,0.0,0.0,0.0,0.0,0.0,0.0,0.0,0.0,0.0,0.0,0.0,0.0,0.0,0.0,0.0,0.0,0.0,0.0,0.0,0.0,0.0,0.0,0.0,0.0,0.0,0.0,0.0,0.0,0.0,0.0,0.0,0.0,0.0,0.0,0.0,0.0,-4.0423,-4.1226,-4.1753,-4.2603,-4.3698,-4.3981,-4.4074,-4.3981,-4.3995,-4.3492,0.0,0.0,0.0,0.0,0.0,0.0,0.0,0.0,0.0,0.0,0.0,0.0,0.0,0.0,0.0,0.0,0.0,0.0,0.0,0.0,0.0,0.0,0.0,0.0,0.0,0.0,0.0,0.0,0.0,0.0,0.0,0.0,0.0,0.0,0.0,0.0,0.0,0.0,0.0,0.0,0.0,0.0,-4.5969,-4.6402,0.0,0.0,0.0,-4.7808,-4.8082,0.0,0.0,0.0,0.0,0.0,0.0,0.0,0.0,0.0,0.0,0.0,0.0,0.0,0.0,0.0,0.0,0.0,0.0,0.0,0.0,0.0,0.0,0.0,0.0,0.0,0.0,0.0,0.0,0.0,0.0,0.0,0.0,0.0,0.0,0.0,0.0,0.0,0.0,0.0,0.0,0.0,0.0,0.0,0.0,0.0,0.0,0.0,0.0,0.0,0.0,0.0,0.0,0.0,0.0,0.0,0.0,0.0,-4.2144,-4.2813,-4.3697,-4.4746,-4.5306,-4.5444,-4.5371,-4.5214,0.0,0.0,0.0,0.0,0.0,0.0,0.0,0.0,0.0,0.0,0.0,0.0,0.0,0.0,0.0,0.0,0.0,0.0,0.0,0.0,0.0,0.0,0.0,0.0,0.0,0.0,0.0,-3.969,0.0,0.0,0.0,0.0,0.0,0.0,0.0,0.0,0.0,0.0,0.0,0.0,0.0,0.0,-4.5797,-4.6631,-4.7057,-4.7474,0.0,0.0,-4.846,-4.8861,-4.8884,-4.903,0.0,0.0,0.0,0.0,0.0,0.0,0.0,0.0,0.0,0.0,0.0,0.0,0.0,0.0,0.0,0.0,0.0,0.0,0.0,0.0,0.0,0.0,0.0,0.0,0.0,0.0,0.0,0.0,0.0,0.0,0.0,0.0,0.0,0.0,0.0,0.0,0.0,0.0,0.0,0.0,0.0,0.0,0.0,0.0,0.0,0.0,0.0,0.0,0.0,0.0,0.0,0.0,0.0,0.0,0.0,-4.3398,-4.4338,-4.5076,-4.5591,-4.6155,-4.6379,-4.6406,-4.5908,-4.5214,0.0,0.0,0.0,0.0,0.0,0.0,0.0,0.0,0.0,0.0,0.0,0.0,0.0,0.0,0.0,0.0,0.0,0.0,0.0,0.0,0.0,0.0,0.0,0.0,0.0,0.0,0.0,0.0,0.0,0.0,0.0,0.0,0.0,0.0,0.0,0.0,0.0,0.0,0.0,0.0,0.0,-4.6867,-4.7626,-4.8133,-4.8713,0.0,0.0,-4.9618,-4.9938,-4.9824,-4.9805,-5.0152,0.0,0.0,0.0,0.0,0.0,0.0,0.0,0.0,0.0,0.0,0.0,0.0,0.0,0.0,0.0,0.0,0.0,0.0,0.0,0.0,0.0,0.0,0.0,0.0,0.0,0.0,0.0,0.0,0.0,0.0,0.0,0.0,0.0,0.0,0.0,0.0,0.0,0.0,0.0,0.0,0.0,0.0,0.0,0.0,0.0,0.0,0.0,0.0,0.0,0.0,0.0,0.0,0.0,-4.3466,-4.3959,-4.4945,-4.5827,-4.6514,-4.701,-4.7291,-4.719,-4.6712,-4.612,0.0,0.0,0.0,0.0,0.0,0.0,0.0,0.0,0.0,0.0,0.0,0.0,0.0,0.0,0.0,0.0,0.0,0.0,0.0,0.0,0.0,0.0,0.0,0.0,0.0,0.0,0.0,0.0,-4.1052,-4.1317,-4.1687,0.0,0.0,0.0,0.0,0.0,0.0,0.0,0.0,0.0,0.0,-4.7467,-4.8649,-4.9117,0.0,0.0,-5.0645,-5.0691,-5.0856,-5.0819,-5.0881,-5.1085,-5.1038,0.0,0.0,0.0,0.0,0.0,0.0,0.0,0.0,0.0,0.0,0.0,0.0,0.0,0.0,0.0,0.0,0.0,0.0,0.0,0.0,0.0,0.0,0.0,0.0,0.0,0.0,0.0,0.0,0.0,0.0,0.0,0.0,0.0,0.0,0.0,0.0,0.0,0.0,0.0,0.0,0.0,0.0,0.0,0.0,0.0,0.0,0.0,0.0,0.0,0.0,0.0,0.0,-4.4165,-4.4843,-4.5656,-4.6476,-4.7261,-4.7763,-4.7927,-4.7872,-4.7229,-4.6701,0.0,0.0,0.0,0.0,0.0,0.0,0.0,0.0,0.0,0.0,0.0,0.0,0.0,0.0,0.0,0.0,0.0,0.0,0.0,0.0,0.0,0.0,0.0,0.0,0.0,0.0,0.0,0.0,-4.1653,-4.1846,-4.2375,0.0,0.0,0.0,0.0,0.0,0.0,0.0,0.0,0.0,0.0,-4.8109,-4.9239,-4.9818,-5.0398,-5.1155,-5.1272,-5.1346,-5.1507,-5.1651,-5.1704,-5.171,0.0,0.0,0.0,0.0,0.0,0.0,0.0,0.0,0.0,0.0,0.0,0.0,0.0,0.0,0.0,0.0,0.0,0.0,0.0,0.0,0.0,0.0,0.0,0.0,0.0,0.0,0.0,0.0,0.0,0.0,-4.0025,0.0,0.0,0.0,0.0,0.0,0.0,0.0,0.0,0.0,0.0,0.0,0.0,0.0,0.0,0.0,0.0,0.0,0.0,0.0,0.0,0.0,0.0,-4.5049,-4.6035,-4.6562,-4.7138,-4.7571,-4.8125,-4.8377,-4.8331,-4.7413,-4.6885,-4.6816,0.0,0.0,0.0,0.0,0.0,0.0,0.0,0.0,0.0,0.0,0.0,0.0,0.0,0.0,0.0,0.0,0.0,0.0,0.0,0.0,0.0,0.0,0.0,0.0,0.0,0.0,-4.2747,-4.2795,-4.2904,0.0,0.0,0.0,0.0,0.0,0.0,0.0,0.0,0.0,0.0,-4.7949,-4.8962,-4.9387,-5.0139,-5.0846,-5.1231,-5.1322,-5.1405,-5.1778,-5.2108,-5.2257,0.0,0.0,0.0,0.0,0.0,0.0,0.0,0.0,0.0,0.0,0.0,0.0,0.0,0.0,0.0,0.0,0.0,0.0,0.0,0.0,0.0,0.0,0.0,0.0,0.0,0.0,0.0,-4.0863,-4.0314,0.0,0.0,0.0,0.0,0.0,0.0,0.0,0.0,0.0,0.0,0.0,-4.4686,-4.5028,0.0,0.0,0.0,0.0,0.0,0.0,0.0,0.0,0.0,0.0,0.0,0.0,-4.5944,-4.6609,-4.7115,-4.762,-4.8125,-4.8308,-4.8377,-4.8377,-4.7734,-4.6908,-4.5898,0.0,0.0,0.0,0.0,0.0,0.0,0.0,0.0,0.0,0.0,0.0,0.0,0.0,0.0,0.0,0.0,0.0,0.0,0.0,0.0,0.0,0.0,0.0,0.0,0.0,-4.2819,0.0,0.0,0.0,0.0,0.0,0.0,0.0,0.0,0.0,0.0,0.0,-4.6721,-4.7513,-4.8523,-4.9633,-5.0684,-5.1295,-5.1815,0.0,0.0,0.0,0.0,0.0,0.0,0.0,0.0,0.0,0.0,0.0,0.0,0.0,0.0,-5.2314,-5.1877,-5.1567,-5.1476,-5.1769,0.0,0.0,0.0,0.0,0.0,0.0,0.0,0.0,0.0,0.0,0.0,0.0,0.0,0.0,-4.2238,0.0,-4.1631,0.0,0.0,0.0,0.0,0.0,0.0,0.0,0.0,-4.4754,-4.5255,-4.6031,-4.631,-4.6564,0.0,-4.6932,-4.6196,0.0,0.0,0.0,0.0,0.0,0.0,0.0,0.0,-4.6632,-4.7115,-4.7482,-4.7872,-4.8354,-4.8377,-4.8377,-4.8377,-4.7734,-4.6816,-4.5668,-4.4979,-4.4451,0.0,0.0,0.0,0.0,0.0,0.0,0.0,0.0,0.0,0.0,0.0,0.0,0.0,0.0,0.0,0.0,0.0,0.0,0.0,0.0,0.0,0.0,0.0,-4.3313,0.0,0.0,0.0,0.0,0.0,0.0,0.0,0.0,0.0,-4.5845,-4.6633,-4.7537,-4.8467,-4.9461,-5.0535,-5.1458,0.0,0.0,0.0,0.0,0.0,0.0,0.0,-5.3187,-5.2954,-5.327,-5.3505,-5.3426,-5.34,-5.3464,-5.3503,0.0,0.0,-5.2754,-5.2379,-5.2215,-5.2393,-5.2452,-5.2452,-5.2452,-5.2425,-5.2452,0.0,0.0,0.0,0.0,0.0,0.0,0.0,0.0,-4.3611,-4.3641,0.0,-4.3415,0.0,0.0,0.0,0.0,0.0,-4.5037,0.0,0.0,-4.6323,-4.651,-4.6955,-4.7001,-4.7001,-4.6978,-4.7047,-4.7024,-4.6955,-4.6978,0.0,0.0,0.0,0.0,0.0,0.0,-4.7138,-4.762,-4.7617,-4.7941,-4.84,-4.8423,-4.84,-4.8377,-4.7436,-4.6678,-4.615,-4.5209,-4.4658,-4.4612,-4.413,0.0,0.0,0.0,0.0,0.0,0.0,0.0,0.0,0.0,0.0,0.0,0.0,0.0,0.0,0.0,0.0,0.0,0.0,0.0,0.0,-4.4075,0.0,0.0,0.0,0.0,0.0,0.0,0.0,0.0,0.0,0.0,-4.7272,-4.7824,-4.8467,-4.9288,0.0,0.0,0.0,0.0,-5.2861,-5.2861,-5.2861,-5.2861,-5.2929,-5.3273,-5.3411,-5.3145,0.0,0.0,-5.3492,-5.3452,-5.3608,-5.3787,-5.3851,-5.3768,-5.3528,-5.3562,-5.3612,-5.3646,-5.3646,-5.3646,-5.3646,-5.3646,-5.3585,-4.8771,0.0,0.0,0.0,0.0,-4.5965,-4.6085,-4.6261,-4.5888,-4.5684,-4.5622,-4.5229,0.0,0.0,0.0,0.0,0.0,0.0,-4.6654,-4.7073,-4.7073,-4.7468,-4.8287,-4.8637,-4.8801,-4.8801,-4.9151,-4.9008,-4.8418,-4.8395,-4.7882,-4.6955,0.0,0.0,0.0,0.0,-4.7505,-4.7594,-4.8259,-4.8745,-4.8905,-4.8905,-4.8745,-4.84,-4.7757,-4.7183,-4.6678,-4.6035,-4.5507,-4.5163,-4.4658,0.0,0.0,0.0,0.0,0.0,0.0,0.0,0.0,0.0,0.0,0.0,0.0,0.0,0.0,0.0,0.0,0.0,0.0,0.0,-4.4137,-4.4223,-4.4429,0.0,0.0,0.0,0.0,0.0,0.0,0.0,0.0,0.0,-4.8977,-4.9084,-4.9338,0.0,0.0,-5.1843,-5.2423,-5.276,-5.2861,-5.2861,0.0,0.0,0.0,-5.3204,-5.3495,-5.3385,-5.3875,-5.4293,-5.4204,-5.4403,-5.4602,-5.4708,-5.459,-5.4443,-5.4387,-5.4457,-5.4521,-5.4556,-5.4708,-5.4894,-5.4894,-5.4681,-5.4556,-5.0948,-4.948,-4.8742,-4.8186,-4.8005,-4.7769,-4.7751,-4.7901,-4.7542,-4.7388,-4.7371,-4.7191,-4.7132,-4.7182,-4.7059,0.0,0.0,0.0,-4.826,-4.8869,-4.8846,-4.9176,-4.9697,-5.0002,-5.0143,-5.0143,-5.0449,-5.0376,-4.9803,-4.9657,-4.9186,-4.8344,0.0,0.0,-4.7482,-4.7964,-4.8167,-4.8263,-4.902,-4.9434,-4.9434,-4.9227,-4.8974,-4.8676,-4.801,-4.7482,-4.7183,-4.6495,-4.5989,-4.5668,-4.5186,-4.491,0.0,0.0,0.0,0.0,0.0,0.0,0.0,0.0,0.0,0.0,0.0,-4.2977,0.0,0.0,0.0,0.0,-4.4444,-4.4697,-4.4909,-4.4909,0.0,0.0,0.0,0.0,0.0,0.0,0.0,-4.745,-4.8223,-4.9059,-4.9777,-5.0223,-5.0663,-5.1213,-5.1736,-5.2348,-5.281,0.0,-5.2861,-5.2861,-5.2861,-5.2861,-5.2861,-5.3136,-5.3341,-5.3478,-5.3929,-5.4309,-5.4309,-5.4604,-5.4872,-5.482,-5.4851,-5.484,-5.484,-5.5046,-5.5072,-5.4707,-5.4817,-5.4943,-5.4943,-5.479,-5.4664,-5.3058,-5.2512,-5.0677,-4.9847,-4.9672,-4.9204,-4.8963,-4.9019,-4.8915,-4.8897,-4.8981,-4.9256,-4.9398,-4.9306,-4.9105,0.0,-4.9745,-4.9745,-5.0239,-5.1158,-5.1158,-5.1181,-5.1181,-5.1205,-5.1205,-5.1158,-5.1205,-5.1205,-5.1158,-5.069,-5.0565,-5.0467,-4.9195,-4.8515,-4.8538,-4.8951,-4.9181,-4.9158,-4.9686,-4.9962,-4.9962,-4.9479,-4.9181,-4.9089,-4.824,-4.7734,-4.7548,-4.6747,-4.6196,-4.6104,-4.5668,-4.5393,-4.5438,0.0,0.0,0.0,0.0,0.0,0.0,0.0,0.0,0.0,0.0,0.0,0.0,0.0,0.0,0.0,-4.5741,0.0,-4.5934,-4.5934,0.0,0.0,0.0,-4.6199,-4.6728,-4.7037,-4.7515,-4.8026,0.0,0.0,-5.0083,0.0,-5.2126,-5.2176,-5.2603,-5.2861,-5.2861,-5.2861,-5.2861,-5.2861,-5.2861,-5.2861,-5.2861,-5.2929,-5.3067,-5.3341,-5.3725,-5.3929,-5.3997,-5.4241,-5.4443,-5.4443,-5.4738,-5.5006,-5.5032,-5.522,-5.5261,-5.4527,-5.4469,-5.4506,-5.456,-5.4586,-5.4522,-5.4237,-5.4041,-5.2861,-5.1747,-5.0759,-5.0572,-5.0628,-5.096,-5.0883,-5.0999,-5.1148,-5.0914,-5.0774,-5.0674,-5.0587,-5.0613,-5.0731,-5.0731,-5.1069,-5.1526,-5.16,-5.1747,-5.1991,-5.2471,-5.2447,-5.2014,-5.2397,-5.2225,-5.1526,-5.1158,-5.0787,-5.0467,-4.9887,-4.9548,-4.9548,-4.9663,-4.9709,-4.9732,-5.0191,-5.0444,-5.0444,-5.0329,-4.9916,-4.9135,-4.8882,-4.84,-4.7666,-4.7413,-4.6931,-4.6173,-4.6012,-4.576,-4.5461,-4.5438,0.0,0.0,0.0,0.0,0.0,0.0,0.0,0.0,0.0,-4.4291,-4.4421,0.0,-4.5225,0.0,-4.5653,-4.5934,-4.5934,-4.5934,0.0,0.0,-4.6535,-4.6728,-4.7257,-4.7634,-4.8116,-4.8959,-4.9554,-5.0348,-5.1464,-5.1858,-5.2277,-5.2653,-5.2829,-5.2861,-5.2861,-5.2861,-5.2861,-5.2861,-5.2861,-5.2861,-5.2861,-5.2861,-5.2929,-5.2998,-5.3341,-5.3614,-5.3614,-5.3929,-5.4132,-5.4106,-5.42,-5.4335,-5.4578,-5.4712,-5.4835,-5.4931,-5.5313,-5.5679,-5.564,-5.5483,-5.5313,-5.5308,-5.522,-5.4522,-5.373,-5.3001,-5.221,-5.2212,-5.2552,-5.2468,-5.2562,-5.2752,-5.2781,-5.2764,-5.2645,-5.2383,-5.2288,-5.2288,-5.2051,-5.2223,-5.266,-5.2899,-5.307,-5.3341,-5.3846,-5.3822,-5.3341,-5.3606,-5.3411,-5.2684,-5.2065,-5.1615,-5.1465,-5.0862,-5.0582,-5.0582,-5.0352,-5.0237,-5.0237,-5.0719,-5.0972,-5.0972,-5.0742,-5.026,-4.9502,-4.9227,-4.8745,-4.801,-4.7757,-4.7319,-4.6746,-4.6586,-4.6334,-4.6035,-4.5806,-4.5691,0.0,0.0,0.0,0.0,0.0,0.0,0.0,0.0,0.0,0.0,0.0,-4.6174,-4.6305,-4.6501,-4.6631,-4.6631,-4.6631,-4.6752,-4.704,-4.7064,-4.7185,-4.7473,-4.8179,-4.882,-4.9313,-5.0248,-5.1197,-5.2026,-5.2327,-5.2578,-5.2879,-5.2861,-5.2861,-5.2861,-5.2861,-5.2861,-5.2861,-5.2861,-5.2861,-5.2861,-5.2861,-5.2861,-5.2929,-5.3067,-5.3204,-5.3273,-5.3546,-5.3819,-5.3819,-5.3861,-5.4039,-5.4241,-5.4309,-5.4376,-5.4604,-5.4872,-5.5272,-5.5604,-5.5498,-5.5365,-5.6181,-5.6206,-5.5755,-5.56,-5.5576,-5.4181,-5.3769,-5.4001,-5.3934,-5.3901,-5.3864,-5.4578,-5.4836,-5.4688,-5.4231,-5.4015,-5.3991,-5.3558,-5.3606,-5.4039,-5.4496,-5.4712,-5.4736,-5.5193,-5.5169,-5.4712,-5.4712,-5.4395,-5.3864,-5.311,-5.2706,-5.2629,-5.184,-5.1431,-5.1408,-5.0972,-5.0719,-5.0742,-5.1201,-5.1431,-5.1408,-5.0972,-5.0513,-5.0008,-4.9479,-4.8974,-4.8492,-4.801,-4.764,-4.7548,-4.7206,-4.6931,-4.6862,-4.6472,-4.6219,0.0,-4.5806,0.0,0.0,0.0,0.0,0.0,0.0,0.0,0.0,-4.6831,-4.7165,-4.7497,-4.7497,-4.7497,-4.7497,-4.7497,-4.7497,-4.7497,-4.7569,-4.7593,-4.7617,-4.8652,-4.9485,-4.9601,-5.1028,-5.2058,-5.2226,-5.2628,-5.2861,-5.2861,-5.2861,-5.2861,-5.2861,-5.2861,-5.2861,-5.2861,-5.2861,-5.2861,-5.2861,-5.2861,-5.2861,-5.2861,-5.2929,-5.2861,-5.2929,-5.3204,-5.341,-5.3478,-5.3589,-5.3861,-5.3929,-5.3929,-5.3929,-5.4064,-5.4064,-5.4267,-5.4805,-5.4965,-5.4805,-5.6936,-5.7257,-5.6795,-5.6755,-5.7036,-5.6377,-5.5671,-5.5047,-5.526,-5.5332,-5.5249,-5.5267,-5.526,-5.5241,-5.5145,-5.5097,-5.5097,-5.5001,-5.5025,-5.5097,-5.5193,-5.5241,-5.5241,-5.5337,-5.5337,-5.5241,-5.5241,-5.5039,-5.4557,-5.3666,-5.3069,-5.2759,-5.1847,-5.1431,-5.1408,0.0,0.0,0.0,-5.1362,-5.1431,-5.1431,-5.1316,-5.1018,-5.0513,-5.0008,0.0,-4.8997,-4.8515,-4.8056,-4.7666,-4.7551,0.0,0.0,0.0,0.0,0.0,0.0,0.0,0.0,0.0,0.0,0.0,-4.7422,-4.7414,-4.6993,-4.7165,-4.7431,-4.7497,-4.7497,-4.7497,-4.7497,-4.7497,-4.7497,-4.7521,-4.7882,-4.8147,-4.8147,-4.901,-4.9835,-5.0616,-5.1272,-5.1911,-5.261,-5.2879,-5.2861,-5.2861,-5.2861,-5.2861,-5.2861,-5.2861,-5.2861,-5.2861,-5.2861,-5.2861,-5.2861,-5.2861,-5.2861,-5.2861,-5.2861,-5.2861,-5.2929,-5.2929,-5.2998,-5.2998,-5.3067,-5.3273,-5.3546,-5.3614,-5.3657,-5.3929,-5.3997,-5.4064,-5.42,-5.42,-5.42,-5.7938,0.0,-5.7916,-5.803,0.0,-5.7984,-5.7539,-5.7073,-5.6671,-5.6607,-5.6654,-5.6629,-5.6444,-5.6179,-5.5914,-5.5818,-5.5794,-5.553,-5.5385,-5.5409,-5.5674,-5.5818,-5.5818,-5.6083,-5.6059,-5.5818,-5.556,-5.5284,-5.4788,-5.3881,-5.3295,-5.3162,-5.2285,-5.1798,-5.1775,-5.1546,-5.1431,-5.1431,-5.1431,-5.1431,-5.1431,-5.1431,-5.1179,-5.065,0.0,0.0,0.0,0.0,0.0,0.0,0.0,0.0,0.0,0.0,0.0,-4.7252,-4.7023,-4.6932,-4.6932,-4.6932,-4.7143,-4.7633,-4.8189,-4.8389,-4.8045,-4.8223,-4.8267,-4.8267,-4.8267,-4.8291,-4.8291,-4.8291,-4.8291,-4.8291,-4.8531,-4.8676,-4.8792,-4.9499,-5.0186,-5.0661,-5.1275,-5.1847,-5.2258,-5.2585,-5.2654,-5.2654,-5.2792,-5.2861,-5.2861,-5.2861,-5.2861,-5.2861,-5.2861,-5.2861,-5.2861,-5.2861,-5.2861,-5.2861,-5.2861,-5.2861,-5.2861,-5.2861,-5.2861,-5.2861,-5.2861,-5.2998,-5.3136,-5.3204,-5.3273,-5.3384,-5.3452,-5.3452,-5.3452,-5.3725,-5.3929,-5.8973,-5.8736,-5.8977,-5.9159,-5.9112,-5.9062,-5.9011,-5.8928,0.0,0.0,0.0,-5.7862,-5.7574,-5.7117,-5.6612,-5.6371,-5.6347,-5.5914,-5.5698,-5.5698,-5.6155,-5.6371,-5.6395,-5.6828,-5.6725,-5.6238,-5.5874,-5.5399,-5.4839,-5.4036,-5.3594,-5.3492,-5.2714,-5.2258,-5.2166,-5.1775,-5.1523,-5.1431,-5.1431,-5.1431,-5.1431,-5.1431,-5.1224,-5.0689,-5.0673,-5.0237,-4.9411,-4.9204,-4.8928,-4.8538,-4.8423,-4.8377,-4.8377,-4.801,-4.778,-4.7757,-4.7367,-4.716,-4.7138,-4.7138,-4.7491,-4.8193,-4.8958,-4.9277,-4.9109,-4.9084,-4.9084,-4.9084,-4.9084,-4.9084,-4.9084,-4.9084,-4.9084,-4.9084,-4.9157,-4.9229,-4.9322,-4.9963,-5.051,-5.0604,-5.1223,-5.1751,-5.182,-5.2099,-5.2283,-5.2421,-5.2654,-5.2861,-5.2861,-5.2861,-5.2861,-5.2861,-5.2861,-5.2861,-5.2861,-5.2861,-5.2861,-5.2861,-5.2861,-5.2861,-5.2861,-5.2861,-5.2861,-5.2861,-5.2861,-5.2929,-5.2861,-5.2929,-5.2861,-5.2861,-5.2861,-5.2861,-5.2929,-5.3384,-5.3657,-5.9896,-6.0154,-5.9771,-5.9567,-5.9584,-5.9519,-5.9452,-5.9399,-5.8795,-5.8473,-5.8464,-5.8007,-5.7766,-5.767,-5.7141,-5.69,-5.69,-5.6828,-5.678,0.0,-5.6876,-5.6925,-5.69,-5.6997,-5.6758,-5.6367,-5.6287,-5.5838,-5.5054,-5.4497,-5.4048,-5.3681,-5.3038,-5.2579,-5.2212,-5.2097,-5.1867,-5.1431,-5.1431,-5.1431,-5.1431,-5.1431,-5.1408,-5.1293,-5.0857,-5.0582,-5.0421,-4.9571,-4.9089,-4.8997,-4.8607,-4.8377,-4.84,-4.8331,-4.8286,-4.8286,-4.8217,-4.8194,-4.8171,-4.8171,-4.8532,-4.9226,-5.0032,-5.0095,-4.9181,-4.9084,-4.9084,-4.9084,-4.9133,-4.9084,-4.9084,-4.9133,-4.9157,-4.9157,-4.9493,-4.9758,-4.9758,-5.0285,-5.0739,-5.0995,-5.1163,-5.1446,-5.1681,-5.182,-5.203,-5.2308,-5.2515,-5.2585,-5.2861,-5.2861,-5.2861,-5.2861,-5.2861,-5.2861,-5.2861,-5.2861,-5.2861,-5.2861,-5.2861,-5.2861,-5.2861,-5.2861,-5.2861,-5.2861,-5.2861,-5.2861,-5.2861,-5.2861,-5.2861,-5.2861,-5.2861,-5.2861,-5.2861,-5.3067,-5.3042,-6.0561,-6.0429,-6.0228,-6.0249,-6.0514,-6.0411,-6.019,-5.9835,-5.9571,-5.9355,-5.9017,-5.8776,-5.8512,-5.8199,-5.767,-5.7454,-5.743,-5.7141,-5.7021,-5.7021,-5.7021,-5.7021,-5.7021,-5.7021,-5.6782,-5.6405,-5.6141,-5.5715,-5.5125,-5.4592,-5.4234,-5.4049,-5.3589,-5.3061,-5.2579,-5.2304,-5.2074,-5.1844,-5.1569,-5.1431,-5.1431,-5.1431,-5.1431,-5.1431,-5.1179,-5.0926,-5.0627,-5.0168,-4.9824,-4.9548,-4.9342,-4.9204,-4.9204,-4.8951,-4.8791,-4.8768,-4.8538,-4.8588,-4.906,-4.9777,-5.0237,-5.0268,-5.0843,-5.0816,-5.0022,-4.995,-4.9974,-4.995,-4.995,-4.995,-4.995,-4.9974,-4.9974,-4.9974,-5.0191,-5.0311,-5.0335,-5.0527,-5.0767,-5.0884,-5.0954,-5.1049,-5.119,-5.1376,-5.1656,-5.2005,-5.2377,-5.2723,-5.2861,-5.2861,-5.2861,-5.2861,-5.2861,-5.2861,-5.2861,-5.2861,-5.2861,-5.2861,-5.2861,-5.2861,-5.2861,-5.2861,-5.2861,-5.2861,-5.2861,-5.2861,-5.2861,-5.2861,-5.2861,-5.2861,-5.2861,-5.2861,-5.2861,-5.2861,-5.2861,-6.1206,-6.0981,-6.073,-6.0882,-6.1141,-6.1049,-6.0705,-6.0219,-6.0171,-5.9931,-5.957,-5.945,-5.9161,-5.8752,-5.8223,-5.7935,-5.7766,-5.7381,-5.7141,-5.7021,-5.7021,-5.7021,-5.7021,-5.7021,-5.6702,-5.6221,-5.5876,-5.5473,-5.4986,-5.4579,-5.4416,-5.437,-5.4049,-5.3589,-5.3061,-5.2717,-5.2464,-5.2327,-5.1844,-5.1546,-5.1431,-5.1431,-5.1431,-5.1431,-5.1431,-5.1224,-5.0834,-5.0696,-5.0444,-5.0099,-4.9962,-4.9916,-4.9893,-4.9525,-4.9273,-4.925,-4.9025,-4.9176,-5.001,-5.1069,-5.1483,-5.1175,-5.1441,-5.1489,-5.1129,-5.1056,-5.0936,-5.0744,-5.0648,-5.0672,-5.0648,-5.0672,-5.0696,-5.0696,-5.0696,-5.0672,-5.0696,-5.0696,-5.0696,-5.0696,-5.0696,-5.0696,-5.0767,-5.0884,-5.1306,-5.182,-5.2377,-5.2792,-5.2861,-5.2861,-5.2861,-5.2861,-5.2861,-5.2861,-5.2861,-5.2861,-5.2861,-5.2861,-5.2861,-5.2861,-5.2861,-5.2861,-5.2861,-5.2861,-5.2861,-5.2861,-5.2861,-5.2861,-5.2861,-5.2861,-5.2861,-5.2861,-5.2861,-5.2861,-5.2861,-6.2133,-6.2318,-6.1506,-6.109,-6.1082,-6.1003,-6.0705,-6.0243,-6.0171,-6.0147,-6.0051,-5.9618,-5.9378,-5.9257,-5.8752,-5.8295,-5.7886,-5.7766,-5.7478,-5.7069,-5.7021,-5.7021,-5.7021,-5.7021,-5.6518,-5.5852,-5.5691,-5.5287,-5.4498,-5.4416,-5.4416,-5.4416,-5.437,-5.4094,-5.3658,-5.3566,-5.3291,-5.2832,-5.235,-5.189,-5.1454,-5.1431,-5.1431,-5.1431,-5.1431,-5.1408,-5.1316,-5.088,-5.0605,-5.0536,-5.0168,-4.9916,-4.9916,-4.987,-4.9847,-4.9824,-5.0151,-5.0522,-5.0939,-5.1429,-5.1747,-5.1675,-5.1968,-5.2187,-5.2091,-5.2091,-5.1706,-5.1008,-5.0744,-5.0792,-5.072,-5.0768,-5.0816,-5.084,-5.0768,-5.0696,-5.0744,-5.0696,-5.0696,-5.0696,-5.0696,-5.0696,-5.0696,-5.0767,-5.1049,-5.1751,-5.2238,-5.2585,-5.2861,-5.2861,-5.2861,-5.2861,-5.2861,-5.2861,-5.2861,-5.2861,-5.2861,-5.2861,-5.2861,-5.2861,-5.2861,-5.2861,-5.2861,-5.2861,-5.2861,-5.2861,-5.2861,-5.2861,-5.2861,-5.2861,-5.2861,-5.2861,-5.2861,-5.2861,-5.2861,-6.2365,-6.2177,-6.1775,-6.1398,-6.1027,-6.1326,-6.0986,-6.0219,-6.0171,-6.0171,-6.0147,-5.9955,-5.9859,-5.981,-5.9305,-5.8945,-5.8704,-5.8103,-5.7694,-5.7454,-5.7165,-5.7021,-5.7021,-5.7021,-5.6518,-5.5772,-5.5691,-5.523,-5.4579,-5.4416,-5.4416,-5.4416,-5.4416,-5.4324,-5.4094,-5.3842,-5.3566,-5.336,-5.2579,-5.2074,-5.1867,-5.1569,-5.1431,-5.1431,-5.1431,-5.1431,-5.1408,-5.1201,-5.111,-5.1087,-5.0903,-5.0788,-5.0811,-5.0513,-5.0405,-5.0729,-5.1306,-5.1754,-5.1902,-5.2559,-5.283,-5.2543,-5.2666,-5.262,-5.2307,-5.2283,-5.2067,-5.1754,-5.1634,-5.1634,-5.1634,-5.1634,-5.1634,-5.1586,-5.1369,-5.1177,-5.1153,-5.0888,-5.0696,-5.0696,-5.0696,-5.072,-5.0696,-5.0908,-5.1236,-5.1726,-5.2169,-5.2515,-5.2861,-5.2861,-5.2861,-5.2861,-5.2861,-5.2861,-5.2861,-5.2861,-5.2861,-5.2861,-5.2861,-5.2861,-5.2861,-5.2861,-5.2861,-5.2861,-5.2861,-5.2861,-5.2861,-5.2861,-5.2861,-5.2861,-5.2861,-5.2861,-5.2861,-5.2861,-5.2861,-6.2569,-6.2331,-6.2171,-6.1722,-6.124,-6.1442,-6.1037,-6.0243,-6.0171,-6.0171,-6.0171,-6.0171,-6.0171,-6.0123,-5.9762,-5.9522,-5.9281,-5.844,-5.7935,-5.7766,-5.7285,-5.7021,-5.7021,-5.7021,-5.6518,-5.5852,-5.5691,-5.5287,-5.4498,-5.4416,-5.4416,-5.4416,-5.4416,-5.4416,-5.437,-5.4049,-5.3888,-5.3819,-5.3015,-5.251,-5.2327,-5.189,-5.1569,-5.1431,-5.1431,-5.1431,-5.1431,-5.1431,-5.1431,-5.1431,-5.1431,-5.1431,-5.1408,-5.1117,-5.1215,-5.1792,-5.2372,-5.2747,-5.2872,-5.3456,-5.3654,-5.3341,-5.3269,-5.3125,-5.2788,-5.2692,-5.2716,-5.2692,-5.2692,-5.262,-5.2307,-5.2283,-5.2283,-5.2235,-5.1922,-5.1706,-5.1682,-5.1345,-5.1177,-5.1129,-5.1081,-5.084,-5.0744,-5.0908,-5.1165,-5.1751,-5.203,-5.2446,-5.2792,-5.2861,-5.2861,-5.2861,-5.2861,-5.2861,-5.2861,-5.2861,-5.2861,-5.2861,-5.2861,-5.2861,-5.2861,-5.2861,-5.2861,-5.2861,-5.2861,-5.2861,-5.2861,-5.2861,-5.2861,-5.2861,-5.2861,-5.2861,-5.2861,-5.2861,-5.2861,-6.2992,-6.3164,-6.2769,-6.2224,-6.1734,-6.1253,-6.07,-6.0171,-6.0171,-6.0171,-6.0171,-6.0171,-6.0171,-6.0171,-6.0099,-5.9859,-5.9378,-5.88,-5.8271,-5.7838,-5.7285,-5.7021,-5.7021,-5.7021,-5.6518,-5.5772,-5.5691,-5.5287,-5.4498,-5.4416,-5.4416,-5.4416,-5.4416,-5.4416,-5.4416,-5.437,-5.437,-5.4255,-5.3796,-5.336,-5.2878,-5.2395,-5.1936,-5.1569,-5.1431,-5.1431,-5.1431,-5.1431,-5.1431,-5.1431,-5.1431,-5.1431,-5.1408,-5.1747,-5.226,-5.2944,-5.3096,-5.3322,-5.36,-5.3798,-5.3798,-5.3774,-5.3726,-5.375,-5.363,-5.3606,-5.3606,-5.3726,-5.3606,-5.3293,-5.2548,-5.2475,-5.2427,-5.2403,-5.2307,-5.2235,-5.2259,-5.2139,-5.2211,-5.2067,-5.1706,-5.1297,-5.0816,-5.0696,-5.1144,-5.1635,-5.182,-5.2099,-5.2723,-5.2861,-5.2861,-5.2861,-5.2861,-5.2861,-5.2861,-5.2861,-5.2861,-5.2861,-5.2861,-5.2861,-5.2861,-5.2861,-5.2861,-5.2861,-5.2861,-5.2861,-5.2861,-5.2861,-5.2861,-5.2861,-5.2861,-5.2861,-5.2861,-5.2861,-5.2861,-6.304,-6.2864,-6.2657,-6.2095,-6.1277,-6.1037,-6.0737,-6.0195,-6.0171,-6.0171,-6.0171,-6.0171,-6.0171,-6.0171,-6.0171,-6.0075,-5.981,-5.8993,-5.8488,-5.8223,-5.743,-5.7021,-5.7021,-5.7021,-5.6518,-5.5772,-5.5691,-5.5287,-5.4498,-5.4416,-5.4416,-5.4416,-5.4416,-5.4416,-5.4416,-5.4416,-5.4416,-5.437,-5.3934,-5.3589,-5.3383,-5.2901,-5.2533,-5.235,-5.1753,-5.1431,-5.1431,-5.1431,-5.1431,-5.1431,-5.1431,-5.1508,-5.1793,-5.2406,-5.2863,-5.3143,-5.3446,-5.3672,-5.3747,-5.3822,-5.3822,-5.3822,-5.3822,-5.3822,-5.3822,-5.3822,-5.3822,-5.3822,-5.3822,-5.3582,-5.3413,-5.3269,-5.3269,-5.3221,-5.298,-5.2788,-5.2716,-5.2499,-5.2283,-5.2259,-5.2091,-5.1802,-5.1369,-5.1201,-5.1341,-5.1684,-5.182,-5.2169,-5.2654,-5.2861,-5.2861,-5.2861,-5.2861,-5.2861,-5.2861,-5.2861,-5.2861,-5.2861,-5.2861,-5.2861,-5.2861,-5.2861,-5.2861,-5.2861,-5.2861,-5.2861,-5.2861,-5.2861,-5.2861,-5.2861,-5.2861,-5.2861,-5.2861,-5.2861,-5.2861,-6.2984,-6.26,-6.2215,-6.1638,-6.0989,-6.0772,-6.0508,-6.0195,-6.0171,-6.0171,-6.0171,-6.0171,-6.0171,-6.0171,-6.0171,-6.0171,-6.0051,-5.9089,-5.8608,-5.8512,-5.7502,-5.7021,-5.7021,-5.7021,-5.6598,-5.5956,-5.5634,-5.5125,-5.4498,-5.4416,-5.4416,-5.4416,-5.4416,-5.4416,-5.4416,-5.4416,-5.4416,-5.4347,-5.4094,-5.3865,-5.3681,-5.3337,-5.3061,-5.2832,-5.2235,-5.189,-5.189,-5.1913,-5.189,-5.1913,-5.2046,-5.2357,-5.2898,-5.3436,-5.3647,-5.3656,-5.3936,-5.3991,-5.3846,-5.3822,-5.3822,-5.3822,-5.3822,-5.3822,-5.3822,-5.3822,-5.3822,-5.3822,-5.3822,-5.3822,-5.3822,-5.3798,-5.3822,-5.3798,-5.351,-5.3317,-5.3293,-5.3004,-5.274,-5.2596,-5.2548,-5.2283,-5.185,-5.1586,-5.1679,-5.1975,-5.1943,-5.2099,-5.2723,-5.2861,-5.2861,-5.2861,-5.2861,-5.2861,-5.2861,-5.2861,-5.2861,-5.2861,-5.2861,-5.2861,-5.2861,-5.2861,-5.2861,-5.2861,-5.2861,-5.2861,-5.2861,-5.2861,-5.2861,-5.2861,-5.2861,-5.2861,-5.2861,-5.2861,-5.2861,-6.2576,-6.236,-6.1422,-6.1013,-6.0845,-6.0436,-6.0195,-6.0171,-6.0171,-6.0171,-6.0171,-6.0171,-6.0171,-6.0171,-6.0171,-6.0171,-6.0003,-5.9089,-5.8608,-5.8488,-5.7502,-5.7021,-5.7021,-5.7021,-5.6782,-5.6301,-5.5496,-5.4905,-5.4498,-5.4416,-5.4416,-5.4416,-5.4416,-5.4416,-5.4416,-5.4416,-5.4416,-5.4393,-5.4347,-5.4163,-5.3773,-5.3704,-5.3498,-5.3061,-5.2924,-5.2901,-5.2901,-5.2832,-5.2763,-5.2865,-5.3204,-5.3983,-5.4436,-5.4646,-5.4735,-5.4535,-5.4616,-5.4351,-5.3942,-5.3894,-5.3894,-5.3822,-5.3822,-5.3822,-5.3822,-5.3822,-5.3822,-5.3822,-5.3822,-5.3822,-5.3822,-5.3822,-5.3822,-5.3822,-5.375,-5.3726,-5.375,-5.3774,-5.3606,-5.3197,-5.3077,-5.2836,-5.2355,-5.197,-5.1946,-5.2225,-5.2119,-5.2079,-5.2679,-5.2861,-5.2861,-5.2861,-5.2861,-5.2861,-5.2861,-5.2861,-5.2861,-5.2861,-5.2861,-5.2861,-5.2861,-5.2861,-5.2861,-5.2861,-5.2861,-5.2861,-5.2861,-5.2861,-5.2861,-5.2861,-5.2861,-5.2861,-5.2861,-5.2861,-5.2861,-6.2143,-6.147,-6.1109,-6.0748,-6.0436,-6.0243,-6.0171,-6.0171,-6.0171,-6.0171,-6.0171,-6.0171,-6.0171,-6.0171,-6.0171,-6.0171,-6.0075,-5.9113,-5.8608,-5.8416,-5.7502,-5.7021,-5.7021,-5.7021,-5.6782,-5.6301,-5.5496,-5.5067,-5.4824,-5.4579,-5.4416,-5.4416,-5.4416,-5.4416,-5.4416,-5.4416,-5.4416,-5.4416,-5.4416,-5.4324,-5.4186,-5.4186,-5.4094,-5.3957,-5.3934,-5.3934,-5.3911,-5.3268,-5.3082,-5.3399,-5.3534,-5.4006,-5.4632,-5.5099,-5.5159,-5.5169,-5.5145,-5.4928,-5.4447,-5.4327,-5.4183,-5.3918,-5.3822,-5.3822,-5.3822,-5.3822,-5.3822,-5.3822,-5.3822,-5.3822,-5.3822,-5.3822,-5.3822,-5.3822,-5.3822,-5.3822,-5.3822,-5.3822,-5.375,-5.363,-5.3582,-5.3365,-5.2956,-5.2596,-5.2453,-5.228,-5.2272,-5.2499,-5.2571,-5.2917,-5.2861,-5.2861,-5.2861,-5.2936,-5.2986,-5.2936,-5.2861,-5.2861,-5.2861,-5.2861,-5.2861,-5.2861,-5.2861,-5.2861,-5.2861,-5.2861,-5.2861,-5.2861,-5.2861,-5.2861,-5.2861,-5.2861,-5.2861,-5.2861,-5.2861,-6.1782,-6.0965,-6.0748,-6.0484,-6.0195,-6.0171,-6.0171,-6.0171,-6.0171,-6.0171,-6.0171,-6.0171,-6.0171,-6.0171,-6.0171,-6.0171,-6.0051,-5.9089,-5.8608,-5.844,-5.7502,-5.7045,-5.7021,-5.7021,-5.6782,-5.6382,-5.5819,-5.5392,-5.5067,-5.4824,-5.4579,-5.4416,-5.4416,-5.4416,-5.4416,-5.4416,-5.4416,-5.4416,-5.4416,-5.4416,-5.4416,-5.4416,-5.4416,-5.4416,-5.4416,-5.4416,-5.437,-5.3934,-5.3852,-5.4195,-5.4433,-5.4988,-5.554,-5.5854,-5.5914,-5.5746,-5.5674,-5.5458,-5.4977,-5.4688,-5.4496,-5.4159,-5.3942,-5.3822,-5.3822,-5.3822,-5.3822,-5.3822,-5.3822,-5.3822,-5.3822,-5.3822,-5.3822,-5.3822,-5.3822,-5.3822,-5.3822,-5.3822,-5.3822,-5.3798,-5.3798,-5.3654,-5.3437,-5.3175,-5.2984,-5.2671,-5.2739,-5.2995,-5.2978,-5.3348,-5.3437,-5.3432,-5.3381,-5.3381,-5.3256,-5.3105,-5.2886,-5.2861,-5.2861,-5.2861,-5.2861,-5.2861,-5.2861,-5.2861,-5.2861,-5.2861,-5.2861,-5.2861,-5.2861,-5.2861,-5.2861,-5.2861,-5.2861,-5.2861,-5.2861,-6.1422,-6.0893,-6.0388,-6.0195,-6.0171,-6.0171,-6.0171,-6.0171,-6.0171,-6.0171,-6.0171,-6.0171,-6.0171,-6.0171,-6.0171,-6.0171,-5.9979,-5.9089,-5.8608,-5.8319,-5.755,-5.7021,-5.7021,-5.7021,-5.6782,-5.6566,-5.6405,-5.598,-5.5311,-5.5149,-5.4905,-5.4579,-5.4498,-5.4416,-5.4416,-5.4416,-5.4416,-5.4416,-5.4416,-5.4416,-5.4416,-5.4416,-5.4416,-5.4416,-5.4416,-5.4416,-5.4556,-5.487,-5.5136,-5.5287,-5.5838,-5.6375,-5.6893,-5.6997,-5.6684,-5.6299,-5.6275,-5.5987,-5.5482,-5.5121,-5.4736,-5.452,-5.4159,-5.3822,-5.3846,-5.3822,-5.3822,-5.3822,-5.3822,-5.3822,-5.3822,-5.3822,-5.3822,-5.3822,-5.3822,-5.3822,-5.3822,-5.3822,-5.3822,-5.3822,-5.3822,-5.3822,-5.3726,-5.3389,-5.3297,-5.3326,-5.3351,-5.3587,-5.3675,-5.3932,-5.439,-5.4285,-5.3934,-5.3683,-5.3557,-5.3356,-5.3181,-5.2861,-5.2861,-5.2861,-5.2861,-5.2861,-5.2861,-5.2861,-5.2861,-5.2861,-5.2861,-5.2861,-5.2861,-5.2861,-5.2861,-5.2861,-5.2861,-5.2861,-5.2861,-6.0869,-6.0364,-6.0219,-6.0171,-6.0171,-6.0171,-6.0171,-6.0171,-6.0171,-6.0171,-6.0171,-6.0171,-6.0171,-6.0171,-6.0171,-6.0171,-5.9883,-5.9065,-5.8608,-5.8416,-5.7502,-5.7069,-5.7021,-5.7021,-5.6941,-5.6782,-5.6542,-5.6325,-5.606,-5.5715,-5.5311,-5.4905,-5.4905,-5.4742,-5.4498,-5.4498,-5.4416,-5.4416,-5.4416,-5.4416,-5.4416,-5.4416,-5.4416,-5.4416,-5.4416,-5.4579,-5.4905,-5.5658,-5.606,-5.606,-5.6542,-5.6861,-5.7021,-5.7021,-5.6949,-5.6828,-5.6756,-5.6588,-5.6107,-5.5842,-5.5433,-5.4688,-5.4471,-5.4231,-5.3846,-5.3822,-5.3822,-5.3822,-5.3822,-5.3822,-5.3822,-5.3822,-5.3822,-5.3822,-5.3822,-5.3822,-5.3822,-5.3822,-5.3822,-5.3822,-5.3822,-5.3822,-5.3774,-5.3678,-5.3512,-5.3395,-5.3619,-5.391,-5.4027,-5.4334,-5.4766,-5.4637,-5.4336,-5.4059,-5.3833,-5.3632,-5.3381,-5.2961,-5.2861,-5.2861,-5.2861,-5.2861,-5.2861,-5.2861,-5.2861,-5.2861,-5.2861,-5.2861,-5.2861,-5.2861,-5.2861,-5.2861,-5.2861,-5.2861,-5.2861,-6.0652,-6.0171,-6.0171,-6.0171,-6.0171,-6.0171,-6.0171,-6.0171,-6.0171,-6.0171,-6.0171,-6.0171,-6.0171,-6.0171,-6.0171,-6.0027,-5.9738,-5.8969,-5.8488,-5.8127,-5.7405,-5.7045,-5.7021,-5.7021,-5.7021,-5.7021,-5.6782,-5.6542,-5.6405,-5.6141,-5.5795,-5.5473,-5.5392,-5.5206,-5.5044,-5.4963,-5.4824,-5.4742,-5.4661,-5.4661,-5.4416,-5.4579,-5.4661,-5.4742,-5.4824,-5.5149,-5.5658,-5.6141,-5.6405,-5.6486,-5.6782,-5.7021,-5.7021,-5.7021,-5.7021,-5.7021,-5.7021,-5.6876,-5.6612,-5.6371,-5.5818,-5.5097,-5.4784,-5.4351,-5.3966,-5.3822,-5.3822,-5.3822,-5.3822,-5.3822,-5.3822,-5.3822,-5.3822,-5.3822,-5.3822,-5.3822,-5.3822,-5.3822,-5.3822,-5.3822,-5.3822,-5.3822,-5.3822,-5.3822,-5.3678,-5.356,-5.3934,-5.4132,-5.4254,-5.4688,-5.5046,-5.5114,-5.4888,-5.4637,-5.421,-5.3934,-5.3457,-5.308,-5.2861,-5.2861,-5.2861,-5.2861,-5.2861,-5.2861,-5.2861,-5.2861,-5.2861,-5.2861,-5.2861,-5.2861,-5.2861,-5.2861,-5.2861,-5.2861,-5.2861,-6.0604,-6.0171,-6.0171,-6.0171,-6.0171,-6.0171,-6.0171,-6.0171,-6.0171,-6.0171,-6.0171,-6.0171,-6.0099,-6.0099,-5.9979,-5.9786,-5.9281,-5.8704,-5.8175,-5.7718,-5.7237,-5.7021,-5.7021,-5.7021,-5.7021,-5.7021,-5.7021,-5.6782,-5.6622,-5.6462,-5.6221,-5.5876,-5.5795,-5.5691,-5.553,-5.5611,-5.5449,-5.523,-5.5149,-5.4986,-5.4824,-5.4986,-5.5149,-5.523,-5.5553,-5.5876,-5.6221,-5.6486,-5.6486,-5.6486,-5.6782,-5.7021,-5.7021,-5.7021,-5.7021,-5.7021,-5.7021,-5.6997,-5.6949,-5.6564,-5.6035,-5.5433,-5.4928,-5.4423,-5.3991,-5.3822,-5.3822,-5.3822,-5.3822,-5.3822,-5.3822,-5.3822,-5.3822,-5.3822,-5.3822,-5.3822,-5.3822,-5.3822,-5.3822,-5.3822,-5.3822,-5.3822,-5.3822,-5.3822,-5.3798,-5.3678,-5.4102,-5.4401,-5.4598,-5.5063,-5.5526,-5.5892,-5.5591,-5.5239,-5.4737,-5.421,-5.3607,-5.3105,-5.2911,-5.2861,-5.2861,-5.2861,-5.2861,-5.2861,-5.2861,-5.2861,-5.2861,-5.2861,-5.2861,-5.2861,-5.2861,-5.2861,-5.2861,-5.2861,-5.2861,-6.0267,-6.0171,-6.0171,-6.0171,-6.0171,-6.0171,-6.0171,-6.0171,-6.0147,-6.0075,-6.0147,-6.0147,-5.9907,-5.9546,-5.9522,-5.9257,-5.8728,-5.8223,-5.7694,-5.7213,-5.7117,-5.7021,-5.7021,-5.7021,-5.7021,-5.7021,-5.7021,-5.6941,-5.6861,-5.6782,-5.6622,-5.6301,-5.6221,-5.6037,-5.5772,-5.5772,-5.5691,-5.5611,-5.553,-5.553,-5.5368,-5.5449,-5.5611,-5.5611,-5.6037,-5.6221,-5.6462,-5.6702,-5.6861,-5.6861,-5.6941,-5.7021,-5.7021,-5.7021,-5.7021,-5.7021,-5.7021,-5.7021,-5.6997,-5.6852,-5.6419,-5.5554,-5.5265,-5.4832,-5.3918,-5.3822,-5.3822,-5.3822,-5.3822,-5.3822,-5.3822,-5.3822,-5.3822,-5.3822,-5.3822,-5.3822,-5.3822,-5.3822,-5.3822,-5.3822,-5.3822,-5.3822,-5.3822,-5.3822,-5.3822,-5.3822,-5.4122,-5.457,-5.4942,-5.5238,-5.5607,-5.5974,-5.6043,-5.5616,-5.5039,-5.4411,-5.3658,-5.3155,-5.298,-5.2861,-5.2861,-5.2861,-5.2861,-5.2861,-5.2861,-5.2861,-5.2861,-5.2861,-5.2861,-5.2861,-5.2861,-5.2861,-5.2861,-5.2861,-5.2861,-6.0171,-6.0171,-6.0171,-6.0171,-6.0123,-5.9907,-5.981,-5.9762,-5.9522,-5.9426,-5.9426,-5.9426,-5.9281,-5.9017,-5.8993,-5.8728,-5.8199,-5.7694,-5.7309,-5.7069,-5.7021,-5.7021,-5.7021,-5.7021,-5.7021,-5.7021,-5.7021,-5.7021,-5.7021,-5.7021,-5.6861,-5.6702,-5.6622,-5.6622,-5.6358,-5.6278,-5.6197,-5.6037,-5.6037,-5.5956,-5.5772,-5.5956,-5.6117,-5.6278,-5.6542,-5.6726,-5.6702,-5.6861,-5.7021,-5.7021,-5.7021,-5.7021,-5.7021,-5.7021,-5.7021,-5.7021,-5.7021,-5.7021,-5.7021,-5.6973,-5.666,-5.5842,-5.5554,-5.4977,-5.4327,-5.3991,-5.3822,-5.3822,-5.3822,-5.3822,-5.3822,-5.3822,-5.3822,-5.3822,-5.3822,-5.3822,-5.3822,-5.3822,-5.3822,-5.3822,-5.3822,-5.3822,-5.3822,-5.3822,-5.3822,-5.3822,-5.3822,-5.4197,-5.4645,-5.4942,-5.5411,-5.5779,-5.6072,-5.5917,-5.534,-5.4587,-5.3708,-5.3256,-5.2886,-5.2861,-5.2861,-5.2861,-5.2861,-5.2861,-5.2861,-5.2861,-5.2861,-5.2861,-5.2861,-5.2861,-5.2861,-5.2861,-5.2861,-5.2861,-5.2861,-6.0171,-6.0171,-6.0099,-6.0051,-5.9955,-5.9498,-5.9257,-5.9209,-5.88,-5.8728,-5.8608,-5.8608,-5.868,-5.8488,-5.8488,-5.8175,-5.7694,-5.7333,-5.7045,-5.7045,-5.7021,-5.7021,-5.7021,-5.7021,-5.7021,-5.7021,-5.7021,-5.7021,-5.7021,-5.7021,-5.6941,-5.7021,-5.7021,-5.6941,-5.6941,-5.6941,-5.6782,-5.6542,-5.6462,-5.6382,-5.6117,-5.6278,-5.6622,-5.6861,-5.6941,-5.6941,-5.6941,-5.7021,-5.7021,-5.7021,-5.7021,-5.7021,-5.7021,-5.7021,-5.7021,-5.7021,-5.7021,-5.7021,-5.7021,-5.6973,-5.6732,-5.6203,-5.5698,-5.5097,-5.452,-5.4063,-5.387,-5.3822,-5.3822,-5.3822,-5.3822,-5.3822,-5.3822,-5.3822,-5.3822,-5.3822,-5.3822,-5.3822,-5.3822,-5.3822,-5.3822,-5.3822,-5.3822,-5.3822,-5.3822,-5.3822,-5.3822,-5.3897,-5.4347,-5.4719,-5.509,-5.5485,-5.5852,-5.5669,-5.5139,-5.4813,-5.3909,-5.3231,-5.2861,-5.2861,-5.2861,-5.2861,-5.2861,-5.2861,-5.2861,-5.2861,-5.2861,-5.2861,-5.2861,-5.2861,-5.2861,-5.2861,-5.2861,-5.2861,-5.2836,-6.0171,-6.0147,-5.969,-5.9522,-5.9426,-5.8945,-5.8728,-5.8728,-5.8584,-5.8584,-5.856,-5.8584,-5.8271,-5.8031,-5.7935,-5.7646,-5.7261,-5.7069,-5.7021,-5.7021,-5.7021,-5.7021,-5.7021,-5.7021,-5.7021,-5.7021,-5.7021,-5.7021,-5.7021,-5.7021,-5.7021,-5.7021,-5.7021,-5.7021,-5.7021,-5.7021,-5.6941,-5.6861,-5.6861,-5.6782,-5.6702,-5.6782,-5.6861,-5.7021,-5.7021,-5.7021,-5.7021,-5.7021,-5.7021,-5.7021,-5.7021,-5.7021,-5.7021,-5.7021,-5.7021,-5.7021,-5.7021,-5.7021,-5.7021,-5.7021,-5.6492,-5.5818,-5.5458,-5.4928,-5.4279,-5.3894,-5.3846,-5.3822,-5.3822,-5.3822,-5.3822,-5.3822,-5.3822,-5.3822,-5.3822,-5.3822,-5.3822,-5.3822,-5.3822,-5.3822,-5.3822,-5.3822,-5.3822,-5.3822,-5.3822,-5.3822,-5.3822,-5.3897,-5.4197,-5.4496,-5.4794,-5.5238,-5.5632,-5.5276,-5.4766,-5.4662,-5.416,-5.3281,-5.2861,-5.2861,-5.2861,-5.2861,-5.2861,-5.2861,-5.2861,-5.2861,-5.2861,-5.2861,-5.2861,-5.2861,-5.2861,-5.2861,-5.2804,-5.2703,-5.2703,-6.0003,-5.9738,-5.9498,-5.9233,-5.8921,-5.8416,-5.8199,-5.8151,-5.7911,-5.779,-5.7766,-5.7766,-5.7646,-5.7454,-5.7405,-5.7237,-5.7093,-5.7021,-5.7021,-5.7021,-5.7021,-5.7021,-5.7021,-5.7021,-5.7021,-5.7021,-5.7021,-5.7021,-5.7021,-5.7021,-5.7021,-5.7021,-5.7021,-5.7021,-5.7021,-5.7021,-5.7021,-5.7021,-5.7021,-5.7021,-5.7021,-5.7021,-5.7021,-5.7021,-5.7021,-5.7021,-5.7021,-5.7021,-5.7021,-5.7021,-5.7021,-5.7021,-5.7021,-5.7021,-5.7021,-5.7021,-5.7021,-5.7021,-5.7021,-5.6997,-5.6636,-5.5963,-5.5578,-5.5049,-5.4399,-5.4039,-5.3846,-5.3822,-5.3822,-5.3822,-5.3822,-5.3822,-5.3822,-5.3822,-5.3822,-5.3822,-5.3822,-5.3822,-5.3822,-5.3822,-5.3822,-5.3822,-5.3822,-5.3822,-5.3822,-5.3822,-5.3822,-5.3972,-5.4122,-5.4347,-5.457,-5.4942,-5.5336,-5.5204,-5.4817,-5.4587,-5.416,-5.3356,-5.2861,-5.2861,-5.2861,-5.2861,-5.2861,-5.2861,-5.2861,-5.2861,-5.2861,-5.2861,-5.2861,-5.2861,-5.2861,-5.2785,-5.2603,-5.2477,-5.2528,-5.9762,-5.9378,-5.9161,-5.8824,-5.8392,-5.7862,-5.7646,-5.755,-5.7237,-5.7093,-5.7021,-5.7045,-5.7069,-5.7045,-5.7045,-5.7021,-5.7021,-5.7021,-5.7021,-5.7021,-5.7021,-5.7021,-5.7021,-5.7021,-5.7021,-5.7021,-5.7021,-5.7021,-5.7021,-5.7021,-5.7021,-5.7021,-5.7021,-5.7021,-5.7021,-5.7021,-5.7021,-5.7021,-5.7021,-5.7021,-5.7021,-5.7021,-5.7021,-5.7021,-5.7021,-5.7021,-5.7021,-5.7021,-5.7021,-5.7021,-5.7021,-5.7021,-5.7021,-5.7021,-5.7021,-5.7021,-5.7021,-5.7021,-5.7021,-5.7021,-5.6708,-5.5938,-5.5626,-5.5097,-5.4496,-5.3991,-5.3822,-5.3822,-5.3822,-5.3822,-5.3822,-5.3822,-5.3822,-5.3822,-5.3822,-5.3822,-5.3822,-5.3822,-5.3822,-5.3822,-5.3822,-5.3822,-5.3822,-5.3822,-5.3822,-5.3822,-5.3822,-5.3822,-5.3972,-5.4122,-5.4347,-5.4719,-5.4992,-5.5131,-5.4895,-5.4637,-5.4034,-5.3181,-5.2886,-5.2861,-5.2861,-5.2861,-5.2861,-5.2861,-5.2861,-5.2861,-5.2861,-5.2861,-5.2861,-5.2861,-5.2861,-5.2854,-5.2703,-5.2578,-5.2578,-5.945,-5.9281,-5.8367,-5.7959,-5.7838,-5.7357,-5.7141,-5.7141,-5.7069,-5.7021,-5.7021,-5.7021,-5.7021,-5.7021,-5.7021,-5.7021,-5.7021,-5.7021,-5.7021,-5.7021,-5.7021,-5.7021,-5.7021,-5.7021,-5.7021,-5.7021,-5.7021,-5.7021,-5.7021,-5.7021,-5.7021,-5.7021,-5.7021,-5.7021,-5.7021,-5.7021,-5.7021,-5.7021,-5.7021,-5.7021,-5.7021,-5.7021,-5.7021,-5.7021,-5.7021,-5.7021,-5.7021,-5.7021,-5.7021,-5.7021,-5.7021,-5.7021,-5.7021,-5.7021,-5.7021,-5.7021,-5.7021,-5.7021,-5.7021,-5.7021,-5.6564,-5.5842,-5.5433,-5.4856,-5.4279,-5.3942,-5.3822,-5.3822,-5.3822,-5.3822,-5.3822,-5.3822,-5.3822,-5.3822,-5.3822,-5.3822,-5.3822,-5.3822,-5.3822,-5.3822,-5.3822,-5.3822,-5.3822,-5.3822,-5.3822,-5.3822,-5.3822,-5.3822,-5.3822,-5.3972,-5.4197,-5.457,-5.4746,-5.4814,-5.4699,-5.4465,-5.3909,-5.3055,-5.2886,-5.2861,-5.2861,-5.2861,-5.2861,-5.2861,-5.2861,-5.2861,-5.2861,-5.2861,-5.2861,-5.2861,-5.2861,-5.2929,-5.2904,-5.2779,-5.2553,-5.9058,-5.879,-5.8088,-5.7622,-5.7357,-5.7117,-5.7021,-5.7021,-5.7021,-5.7021,-5.7021,-5.7021,-5.7021,-5.7021,-5.7021,-5.7021,-5.7021,-5.7021,-5.7021,-5.7021,-5.7021,-5.7021,-5.7021,-5.7021,-5.7021,-5.7021,-5.7021,-5.7021,-5.7021,-5.7021,-5.7021,-5.7021,-5.7021,-5.7021,-5.7021,-5.7021,-5.7021,-5.7021,-5.7021,-5.7021,-5.7021,-5.7021,-5.7021,-5.7021,-5.7021,-5.7021,-5.7021,-5.7021,-5.7021,-5.7021,-5.7021,-5.7021,-5.7021,-5.7021,-5.7021,-5.7021,-5.7021,-5.7021,-5.7021,-5.7021,-5.6395,-5.5698,-5.5313,-5.4904,-5.4111,-5.3822,-5.3822,-5.3822,-5.3822,-5.3822,-5.3822,-5.3822,-5.3822,-5.3822,-5.3822,-5.3822,-5.3822,-5.3822,-5.3822,-5.3822,-5.3822,-5.3822,-5.3822,-5.3822,-5.3822,-5.3822,-5.3822,-5.3822,-5.3822,-5.3822,-5.4122,-5.4496,-5.4574,-5.4497,-5.4287,-5.4073,-5.3758,-5.3105,-5.2886,-5.2861,-5.2861,-5.2861,-5.2861,-5.2861,-5.2861,-5.2861,-5.2861,-5.2861,-5.2861,-5.2861,-5.2861,-5.2854,-5.2779,-5.2503,-5.2352,-5.8919,-5.8478,-5.8103,-5.7621,-5.718,-5.718,-5.71,-5.7021,-5.7021,-5.7021,-5.7021,-5.7021,-5.7021,-5.7021,-5.7021,-5.7021,-5.7021,-5.7021,-5.7021,-5.7021,-5.7021,-5.7021,-5.7021,-5.7021,-5.7021,-5.7021,-5.7021,-5.7021,-5.7021,-5.7021,-5.7021,-5.7021,-5.7021,-5.7021,-5.7021,-5.7021,-5.7021,-5.7021,-5.7021,-5.7021,-5.7021,-5.7021,-5.7021,-5.7021,-5.7021,-5.7021,-5.7021,-5.7021,-5.7021,-5.7021,-5.7021,-5.7021,-5.7021,-5.7021,-5.7021,-5.7021,-5.7021,-5.7021,-5.6973,-5.6828,-5.6299,-5.5674,-5.5025,-5.4544,-5.4039,-5.3822,-5.3822,-5.3822,-5.3822,-5.3822,-5.3822,-5.3822,-5.3822,-5.3822,-5.3822,-5.3822,-5.3822,-5.3822,-5.3822,-5.3822,-5.3822,-5.3822,-5.3822,-5.3822,-5.3822,-5.3822,-5.3822,-5.3822,-5.3822,-5.3822,-5.3902,-5.4227,-5.4304,-5.4226,-5.3893,-5.3628,-5.3293,-5.3155,-5.3005,-5.2861,-5.2861,-5.2861,-5.2861,-5.2861,-5.2861,-5.2861,-5.2861,-5.2861,-5.2861,-5.2861,-5.2836,-5.2729,-5.2578,-5.2352,-5.2327,-5.9305,-5.8858,-5.8438,-5.7941,-5.7576,-5.7576,-5.7339,-5.7021,-5.7021,-5.7021,-5.7021,-5.7021,-5.7021,-5.7021,-5.7021,-5.7021,-5.7021,-5.7021,-5.7021,-5.7021,-5.7021,-5.7021,-5.7021,-5.7021,-5.7021,-5.7021,-5.7021,-5.7021,-5.7021,-5.7021,-5.7021,-5.7021,-5.7021,-5.7021,-5.7021,-5.7021,-5.7021,-5.7021,-5.7021,-5.7021,-5.7021,-5.7021,-5.7021,-5.7021,-5.7021,-5.7021,-5.7021,-5.7021,-5.7021,-5.7021,-5.7021,-5.7021,-5.7021,-5.7021,-5.7021,-5.7021,-5.7021,-5.7021,-5.6973,-5.6612,-5.6011,-5.5313,-5.464,-5.4087,-5.387,-5.3822,-5.3822,-5.3822,-5.3822,-5.3822,-5.3822,-5.3822,-5.3822,-5.3822,-5.3822,-5.3822,-5.3822,-5.3822,-5.3822,-5.3822,-5.3822,-5.3822,-5.3822,-5.3822,-5.3822,-5.3822,-5.3822,-5.3822,-5.3822,-5.3798,-5.3635,-5.3837,-5.4035,-5.3932,-5.3424,-5.3208,-5.3212,-5.3105,-5.2886,-5.2861,-5.2861,-5.2861,-5.2861,-5.2861,-5.2861,-5.2861,-5.2861,-5.2861,-5.2861,-5.2861,-5.281,-5.2779,-5.2754,-5.2678,-5.2678,-5.9451,-5.9276,-5.8809,-5.8261,-5.7576,-5.7339,-5.718,-5.7021,-5.7021,-5.7021,-5.7021,-5.7021,-5.7021,-5.7021,-5.7021,-5.7021,-5.7021,-5.7021,-5.7021,-5.7021,-5.7021,-5.7021,-5.7021,-5.7021,-5.7021,-5.7021,-5.7021,-5.7021,-5.7021,-5.7021,-5.7021,-5.7021,-5.7021,-5.7021,-5.7021,-5.7021,-5.7021,-5.7021,-5.7021,-5.7021,-5.7021,-5.7021,-5.7021,-5.7021,-5.7021,-5.7021,-5.7021,-5.7021,-5.7021,-5.7021,-5.7021,-5.7021,-5.7021,-5.7021,-5.7021,-5.7021,-5.7021,-5.7021,-5.6925,-5.6492,-5.5842,-5.4952,-5.4279,-5.3822,-5.3822,-5.3822,-5.3822,-5.3822,-5.3822,-5.3822,-5.3822,-5.3822,-5.3822,-5.3822,-5.3822,-5.3822,-5.3822,-5.3822,-5.3822,-5.3822,-5.3822,-5.3822,-5.3822,-5.3822,-5.3822,-5.3822,-5.3822,-5.3822,-5.3822,-5.3678,-5.3514,-5.3399,-5.3546,-5.3517,-5.3035,-5.3039,-5.3111,-5.3055,-5.2861,-5.2861,-5.2861,-5.2861,-5.2861,-5.2861,-5.2861,-5.2861,-5.2861,-5.2861,-5.2861,-5.2861,-5.2861,-5.2836,-5.2836,-5.2861,-5.2861,-5.9508,-5.9431,-5.8965,-5.8364,-5.7813,-5.7339,-5.71,-5.7021,-5.7021,-5.7021,-5.7021,-5.7021,-5.7021,-5.7021,-5.7021,-5.7021,-5.7021,-5.7021,-5.7021,-5.7021,-5.7021,-5.7021,-5.7021,-5.7021,-5.7021,-5.7021,-5.7021,-5.7021,-5.7021,-5.7021,-5.7021,-5.7021,-5.7021,-5.7021,-5.7021,-5.7021,-5.7021,-5.7021,-5.7021,-5.7021,-5.7021,-5.7021,-5.7021,-5.7021,-5.7021,-5.7021,-5.7021,-5.7021,-5.7021,-5.7021,-5.7021,-5.7021,-5.7021,-5.7021,-5.7021,-5.7021,-5.7021,-5.7021,-5.6876,-5.6299,-5.5506,-5.4496,-5.4111,-5.3846,-5.3822,-5.3822,-5.3822,-5.3822,-5.3822,-5.3822,-5.3822,-5.3822,-5.3822,-5.3822,-5.3822,-5.3822,-5.3822,-5.3822,-5.3822,-5.3822,-5.3822,-5.3822,-5.3822,-5.3822,-5.3822,-5.3822,-5.3822,-5.3798,-5.3774,-5.3558,-5.3345,-5.3181,-5.3107,-5.2904,-5.2671,-5.2889,-5.3055,-5.303,-5.2861,-5.2861,-5.2861,-5.2861,-5.2861,-5.2861,-5.2861,-5.2861,-5.2861,-5.2861,-5.2861,-5.2861,-5.2861,-5.2861,-5.2861,-5.2861,-5.2861,-5.9508,-5.9405,-5.8653,-5.8261,-5.8158,-5.7813,-5.7339,-5.6997,-5.6973,-5.6925,-5.6852,-5.6876,-5.6876,-5.6876,-5.6828,-5.6876,-5.6925,-5.6973,-5.7021,-5.7021,-5.7021,-5.7021,-5.7021,-5.7021,-5.7021,-5.7021,-5.7021,-5.7021,-5.7021,-5.7021,-5.7021,-5.7021,-5.7021,-5.7021,-5.7021,-5.7021,-5.7021,-5.7021,-5.7021,-5.7021,-5.7021,-5.7021,-5.7021,-5.7021,-5.7021,-5.7021,-5.7021,-5.7021,-5.7021,-5.7021,-5.7021,-5.7021,-5.7021,-5.7021,-5.7021,-5.7021,-5.7021,-5.6997,-5.69,-5.5963,-5.5049,-5.4159,-5.387,-5.3846,-5.3822,-5.3822,-5.3822,-5.3822,-5.3822,-5.3822,-5.3822,-5.3822,-5.3822,-5.3822,-5.3822,-5.3822,-5.3822,-5.3822,-5.3822,-5.3822,-5.3822,-5.3822,-5.3822,-5.3822,-5.3822,-5.3822,-5.3822,-5.3798,-5.3774,-5.3536,-5.3225,-5.3011,-5.2838,-5.2681,-5.2589,-5.2784,-5.2886,-5.2861,-5.2861,-5.2861,-5.2861,-5.2861,-5.2861,-5.2861,-5.2861,-5.2861,-5.2861,-5.2861,-5.2861,-5.2861,-5.2861,-5.2861,-5.2861,-5.2861,-5.2861,-5.9508,-5.938,-5.8281,-5.7745,-5.7716,-5.7352,-5.71,-5.6949,-5.666,-5.6299,-5.5987,-5.5938,-5.5938,-5.6035,-5.6347,-5.6492,-5.654,-5.6949,-5.7021,-5.6997,-5.7021,-5.7021,-5.7021,-5.7021,-5.7021,-5.7021,-5.7021,-5.7021,-5.7021,-5.7021,-5.7021,-5.7021,-5.7021,-5.7021,-5.7021,-5.7021,-5.7021,-5.7021,-5.7021,-5.7021,-5.7021,-5.7021,-5.7021,-5.7021,-5.7021,-5.7021,-5.7021,-5.7021,-5.7021,-5.7021,-5.7021,-5.7021,-5.7021,-5.7021,-5.7021,-5.7021,-5.6997,-5.6636,-5.6179,-5.5433,-5.4928,-5.4207,-5.3822,-5.3822,-5.3822,-5.3822,-5.3822,-5.3822,-5.3822,-5.3822,-5.3822,-5.3822,-5.3822,-5.3822,-5.3822,-5.3822,-5.3822,-5.3822,-5.3822,-5.3822,-5.3822,-5.3822,-5.3822,-5.3822,-5.3822,-5.3822,-5.3822,-5.3822,-5.3798,-5.344,-5.308,-5.2914,-5.2739,-5.2601,-5.2506,-5.2798,-5.2861,-5.2861,-5.2861,-5.2861,-5.2861,-5.2861,-5.2861,-5.2861,-5.2861,-5.2861,-5.2861,-5.2861,-5.2861,-5.2861,-5.2861,-5.2861,-5.2861,-5.2861,-5.2861,-5.9131,-5.8829,-5.7866,-5.7333,-5.7152,-5.6691,-5.6468,-5.6395,-5.6083,-5.5722,-5.5482,-5.5409,-5.5433,-5.553,-5.5746,-5.5938,-5.6011,-5.6492,-5.6732,-5.678,-5.6973,-5.6997,-5.7021,-5.7021,-5.7021,-5.7021,-5.7021,-5.7021,-5.7021,-5.7021,-5.7021,-5.7021,-5.7021,-5.7021,-5.7021,-5.7021,-5.7021,-5.7021,-5.7021,-5.7021,-5.7021,-5.7021,-5.7021,-5.7021,-5.7021,-5.7021,-5.7021,-5.7021,-5.7021,-5.7021,-5.7021,-5.7021,-5.7021,-5.7021,-5.7021,-5.7021,-5.6949,-5.6468,-5.5746,-5.5433,-5.4856,-5.3966,-5.3846,-5.3822,-5.3822,-5.3822,-5.3822,-5.3822,-5.3822,-5.3822,-5.3822,-5.3822,-5.3822,-5.3822,-5.3822,-5.3822,-5.3822,-5.3822,-5.3822,-5.3822,-5.3822,-5.3822,-5.3822,-5.3822,-5.3822,-5.3822,-5.3822,-5.3822,-5.375,-5.3271,-5.2985,-5.2962,-5.271,-5.2449,-5.2501,-5.2773,-5.2861,-5.2861,-5.2861,-5.2861,-5.2861,-5.2861,-5.2861,-5.2861,-5.2861,-5.2861,-5.2861,-5.2861,-5.2861,-5.2861,-5.2861,-5.2861,-5.2861,-5.2861,-5.2861,-5.8378,-5.7851,-5.7398,-5.6919,-5.6486,-5.5771,-5.5439,-5.5385,-5.5385,-5.5337,-5.5313,-5.5217,-5.5145,-5.5265,-5.5337,-5.5385,-5.5482,-5.5963,-5.6155,-5.6371,-5.6636,-5.6804,-5.6949,-5.6973,-5.7021,-5.7021,-5.7021,-5.7021,-5.7021,-5.7021,-5.7021,-5.7021,-5.7021,-5.7021,-5.7021,-5.7021,-5.7021,-5.7021,-5.7021,-5.7021,-5.7021,-5.7021,-5.7021,-5.7021,-5.7021,-5.7021,-5.7021,-5.7021,-5.7021,-5.7021,-5.7021,-5.7021,-5.7021,-5.7021,-5.7021,-5.7021,-5.7021,-5.6395,-5.5626,-5.5409,-5.4832,-5.4015,-5.3846,-5.3822,-5.3822,-5.3822,-5.3822,-5.3822,-5.3822,-5.3822,-5.3822,-5.3822,-5.3822,-5.3822,-5.3822,-5.3822,-5.3822,-5.3822,-5.3822,-5.3822,-5.3822,-5.3822,-5.3822,-5.3822,-5.3822,-5.3822,-5.3822,-5.3822,-5.3606,-5.286,-5.2768,-5.313,-5.285,-5.2391,-5.2446,-5.2792,-5.2861,-5.2861,-5.2861,-5.2861,-5.2861,-5.2861,-5.2861,-5.2861,-5.2861,-5.2861,-5.2861,-5.2861,-5.2861,-5.2861,-5.2861,-5.2861,-5.2861,-5.2861,-5.2861,-5.8052,-5.7776,-5.7,-5.6525,-5.6325,-5.518,-5.4775,-5.4808,-5.4832,-5.4664,-5.4279,-5.4279,-5.4375,-5.4303,-5.464,-5.4808,-5.5049,-5.5313,-5.5554,-5.5842,-5.6203,-5.6371,-5.6588,-5.678,-5.6949,-5.6997,-5.6997,-5.7021,-5.7021,-5.7021,-5.7021,-5.7021,-5.7021,-5.7021,-5.7021,-5.7021,-5.7021,-5.7021,-5.7021,-5.7021,-5.7021,-5.7021,-5.7021,-5.7021,-5.7021,-5.7021,-5.7021,-5.7021,-5.7021,-5.7021,-5.7021,-5.7021,-5.7021,-5.7021,-5.7021,-5.7021,-5.6925,-5.6564,-5.565,-5.5385,-5.4928,-5.4087,-5.3846,-5.3822,-5.3822,-5.3822,-5.3822,-5.3822,-5.3822,-5.3822,-5.3822,-5.3822,-5.3822,-5.3822,-5.3822,-5.3822,-5.3822,-5.3822,-5.3822,-5.3822,-5.3822,-5.3822,-5.3822,-5.3822,-5.3822,-5.3822,-5.3822,-5.3822,-5.3534,-5.2788,-5.272,-5.3104,-5.2752,-5.2198,-5.2515,-5.2861,-5.2861,-5.2861,-5.2861,-5.2861,-5.2861,-5.2861,-5.2861,-5.2861,-5.2861,-5.2861,-5.2861,-5.2861,-5.2861,-5.2861,-5.2861,-5.2861,-5.2861,-5.2861,-5.2861,-5.7424,-5.7198,-5.6575,-5.6277,-5.5906,-5.5089,-5.4715,-5.4733,-5.4455,-5.4087,-5.3846,-5.3846,-5.3822,-5.3918,-5.4183,-5.4303,-5.4351,-5.4808,-5.5097,-5.5217,-5.565,-5.5818,-5.6083,-5.6419,-5.6612,-5.6756,-5.6925,-5.7021,-5.7021,-5.7021,-5.7021,-5.7021,-5.7021,-5.7021,-5.7021,-5.7021,-5.7021,-5.7021,-5.7021,-5.7021,-5.7021,-5.7021,-5.7021,-5.7021,-5.7021,-5.7021,-5.7021,-5.7021,-5.7021,-5.7021,-5.7021,-5.7021,-5.7021,-5.7021,-5.7021,-5.7021,-5.6997,-5.6444,-5.5626,-5.5385,-5.4784,-5.4159,-5.3822,-5.3822,-5.3822,-5.3822,-5.3822,-5.3822,-5.3822,-5.3822,-5.3822,-5.3822,-5.3822,-5.3822,-5.3822,-5.3822,-5.3822,-5.3822,-5.3822,-5.3822,-5.3822,-5.3822,-5.3822,-5.3822,-5.3822,-5.3822,-5.3822,-5.3822,-5.3485,-5.2836,-5.289,-5.3225,-5.2678,-5.203,-5.2515,-5.2861,-5.2861,-5.2861,-5.2861,-5.2861,-5.2861,-5.2861,-5.2861,-5.2861,-5.2861,-5.2861,-5.2861,-5.2861,-5.2861,-5.2861,-5.2861,-5.2861,-5.2861,-5.2861,-5.2861,-5.6671,-5.6269,-5.6219,-5.6024,-5.5632,-5.5263,-5.5065,-5.4967,-5.432,-5.3897,-5.3897,-5.3822,-5.3822,-5.3846,-5.3942,-5.3942,-5.4039,-5.4375,-5.4544,-5.4592,-5.5097,-5.5337,-5.5506,-5.5866,-5.6203,-5.6395,-5.6612,-5.6876,-5.6997,-5.7021,-5.7021,-5.7021,-5.7021,-5.7021,-5.7021,-5.7021,-5.7021,-5.7021,-5.7021,-5.7021,-5.7021,-5.7021,-5.7021,-5.7021,-5.7021,-5.7021,-5.7021,-5.7021,-5.7021,-5.7021,-5.7021,-5.7021,-5.7021,-5.7021,-5.7021,-5.6949,-5.69,-5.6299,-5.5626,-5.5289,-5.4712,-5.4183,-5.3822,-5.3822,-5.3822,-5.3822,-5.3822,-5.3822,-5.3822,-5.3822,-5.3822,-5.3822,-5.3822,-5.3822,-5.3822,-5.3822,-5.3822,-5.3822,-5.3822,-5.3822,-5.3822,-5.3822,-5.3822,-5.3822,-5.3822,-5.3822,-5.3822,-5.3822,-5.344,-5.2862,-5.2962,-5.3273,-5.2675,-5.2193,-5.2585,-5.2861,-5.2861,-5.2861,-5.2861,-5.2861,-5.2861,-5.2861,-5.2861,-5.2861,-5.2861,-5.2861,-5.2861,-5.2861,-5.2861,-5.2861,-5.2861,-5.2861,-5.2861,-5.2861,-5.2861,-5.6344,-5.6219,-5.6219,-5.6146,-5.5999,-5.5632,-5.5485,-5.5411,-5.4967,-5.4496,-5.4248,-5.3972,-5.3822,-5.3822,-5.3822,-5.3822,-5.3894,-5.3991,-5.3991,-5.4207,-5.4592,-5.4784,-5.4904,-5.5337,-5.5746,-5.6155,-5.6419,-5.666,-5.6949,-5.7021,-5.7021,-5.7021,-5.7021,-5.7021,-5.7021,-5.7021,-5.7021,-5.7021,-5.7021,-5.7021,-5.7021,-5.7021,-5.7021,-5.7021,-5.7021,-5.7021,-5.7021,-5.7021,-5.7021,-5.7021,-5.7021,-5.7021,-5.7021,-5.7021,-5.7021,-5.6973,-5.6684,-5.6107,-5.5554,-5.5073,-5.4496,-5.4111,-5.3822,-5.3822,-5.3822,-5.3822,-5.3822,-5.3822,-5.3822,-5.3822,-5.3822,-5.3822,-5.3822,-5.3822,-5.3822,-5.3822,-5.3822,-5.3822,-5.3822,-5.3822,-5.3822,-5.3822,-5.3822,-5.3822,-5.3822,-5.3822,-5.3822,-5.3702,-5.3321,-5.2937,-5.2962,-5.3099,-5.2763,-5.2496,-5.2748,-5.2861,-5.2861,-5.2861,-5.2861,-5.2861,-5.2861,-5.2861,-5.2861,-5.2861,-5.2861,-5.2861,-5.2861,-5.2861,-5.2861,-5.2861,-5.2861,-5.2861,-5.2861,-5.2861,-5.2861,-5.6219,-5.6219,-5.6219,-5.6219,-5.6146,-5.5999,-5.5827,-5.5779,-5.5411,-5.5164,-5.4868,-5.4347,-5.4047,-5.4047,-5.3897,-5.3822,-5.3822,-5.3822,-5.387,-5.3966,-5.4087,-5.4207,-5.4471,-5.4808,-5.5073,-5.5506,-5.6107,-5.6492,-5.69,-5.7021,-5.7021,-5.7021,-5.7021,-5.7021,-5.7021,-5.7021,-5.7021,-5.7021,-5.7021,-5.7021,-5.7021,-5.7021,-5.7021,-5.7021,-5.7021,-5.7021,-5.7021,-5.7021,-5.7021,-5.7021,-5.7021,-5.7021,-5.7021,-5.7021,-5.7021,-5.6876,-5.654,-5.5987,-5.5409,-5.4856,-5.4351,-5.3991,-5.3822,-5.3822,-5.3822,-5.3822,-5.3822,-5.3822,-5.3822,-5.3822,-5.3822,-5.3822,-5.3822,-5.3822,-5.3822,-5.3822,-5.3822,-5.3822,-5.3822,-5.3822,-5.3822,-5.3822,-5.3822,-5.3822,-5.3822,-5.375,-5.375,-5.3659,-5.33,-5.2938,-5.2983,-5.3045,-5.2635,-5.259,-5.2817,-5.2861,-5.2861,-5.2861,-5.2861,-5.2861,-5.2861,-5.2861,-5.2861,-5.2861,-5.2861,-5.2861,-5.2861,-5.2861,-5.2861,-5.2861,-5.2861,-5.2861,-5.2861,-5.2861,-5.2861,-5.6219,-5.6219,-5.6219,-5.6219,-5.6219,-5.6219,-5.6219,-5.6146,-5.5852,-5.5705,-5.5558,-5.4868,-5.4546,-5.4347,-5.4122,-5.3972,-5.3822,-5.3822,-5.3822,-5.3822,-5.3846,-5.3942,-5.4087,-5.4279,-5.4592,-5.5097,-5.577,-5.6323,-5.6804,-5.6925,-5.7021,-5.7021,-5.7021,-5.7021,-5.7021,-5.7021,-5.7021,-5.7021,-5.7021,-5.7021,-5.7021,-5.7021,-5.7021,-5.7021,-5.7021,-5.7021,-5.7021,-5.7021,-5.7021,-5.7021,-5.7021,-5.7021,-5.7021,-5.7021,-5.69,-5.6732,-5.6299,-5.577,-5.5265,-5.4688,-5.4255,-5.3942,-5.387,-5.3822,-5.3822,-5.3822,-5.3822,-5.3822,-5.3822,-5.3822,-5.3822,-5.3822,-5.3822,-5.3822,-5.3822,-5.3822,-5.3822,-5.3822,-5.3822,-5.3822,-5.3822,-5.3822,-5.3822,-5.3822,-5.3774,-5.3702,-5.356,-5.3493,-5.3253,-5.2985,-5.2782,-5.2841,-5.272,-5.2704,-5.2861,-5.2861,-5.2861,-5.2861,-5.2861,-5.2861,-5.2861,-5.2861,-5.2861,-5.2861,-5.2861,-5.2861,-5.2861,-5.2861,-5.2861,-5.2861,-5.2861,-5.2861,-5.2861,-5.2861,-5.2861,-5.6219,-5.6219,-5.6219,-5.6219,-5.6219,-5.6219,-5.6219,-5.6219,-5.6146,-5.6072,-5.5926,-5.5632,-5.5263,-5.4892,-5.4496,-5.4272,-5.4272,-5.4047,-5.3822,-5.3822,-5.3897,-5.3822,-5.387,-5.4015,-5.4255,-5.4832,-5.553,-5.6155,-5.6395,-5.6732,-5.6973,-5.69,-5.6925,-5.6949,-5.6973,-5.6925,-5.6852,-5.6828,-5.69,-5.69,-5.6925,-5.6949,-5.7021,-5.7021,-5.7021,-5.7021,-5.7021,-5.7021,-5.7021,-5.7021,-5.7021,-5.7021,-5.6997,-5.6949,-5.6756,-5.6419,-5.5963,-5.5409,-5.488,-5.4399,-5.3966,-5.3894,-5.3822,-5.3822,-5.3822,-5.3822,-5.3822,-5.3822,-5.3822,-5.3822,-5.3822,-5.3822,-5.3822,-5.3822,-5.3822,-5.3822,-5.3822,-5.3822,-5.3822,-5.3822,-5.3822,-5.3822,-5.3822,-5.3822,-5.3822,-5.3654,-5.3293,-5.3202,-5.3108,-5.2859,-5.2576,-5.268,-5.2754,-5.2773,-5.2861,-5.2861,-5.2861,-5.2861,-5.2861,-5.2861,-5.2861,-5.2861,-5.2861,-5.2861,-5.2861,-5.2861,-5.2861,-5.2861,-5.2861,-5.2861,-5.2861,-5.2861,-5.2861,-5.2861,-5.2861]}]]